     2              OBSERVATION DATA    GPS                 RINEX VERSION / TYPE
ASHCAN V. 1.90 20000501 22:42:52UTC                         PGM / RUN BY / DATE
                                                            COMMENT
Original Marker Name: MELL _____________                    COMMENT
Campaign Name: Imperial Fault Kinematic                     COMMENT
4-Character Station Name: MELL                              COMMENT
6-Character Antenna Code: DMRCHT                            COMMENT
Vertical Measurement Point: BCR                             COMMENT
Vertical Offset to Rinex Ref. Point: 0.0348                 COMMENT
Radial Measurement Point: ECF                               COMMENT
Radial Offset to Rinex Ref. Point: 0.1897                   COMMENT
Antenna Height from Field Measurement: 1.1760 m             COMMENT
Additional Antenna Identification Info.:                    COMMENT
Turborogue and Ashtech Choke Ring                           COMMENT
Original XYZ: -2307505.2801 -4845356.2859 3434938.2413      COMMENT
New XYZ position is based on association with SCEC monument COMMENT
E1C8W1O0+0011. Position of that monument is believed to be  COMMENT
valid to within 1 m horizontally; vertical accuracy         COMMENT
should be no worse than 3-times this value.                 COMMENT
                                                            COMMENT
Revised Rinex header created by UCSD GPS archive for        COMMENT
GSAC on 15-Jun-2000 (2000:167) 23:43:54 GMT                 COMMENT
For assistance contact dagnew@ucsd.edu                      COMMENT
or anderson@python.ucsd.edu                                 COMMENT
                                                            COMMENT
MELLO 3                                                     MARKER NAME
BRI SCRIPPS INSTITUTION OF OCEANOGRAPHY                     OBSERVER / AGENCY
LP01378 ASHTECH Z-XII3 CC00 1D02                            REC # / TYPE / VERS
12653 DORNE-MARGOL. TYPE T                                  ANT # / TYPE
 -2307500.4302 -4845316.9326  3434947.3548                  APPROX POSITION XYZ
        1.1258        0.0000        0.0000                  ANTENNA: DELTA H/E/N
     1     1     0                                          WAVELENGTH FACT L1/2
     5    L1    L2    C1    P1    P2                        # / TYPES OF OBSERV
    15                                                      INTERVAL
  2000     4    29    12    54   15.000000                  TIME OF FIRST OBS
  2000     4    29    22    41   15.000000                  TIME OF LAST OBS
                                                            END OF HEADER
 00  4 29 12 54 15.0000000  0  8 27 19  2 18  7 31  8 13             0.000000000
   -127988.255 9    -92068.76349  20543907.640    20543907.4394   20543913.4974
     34197.480 9     24234.87447  22726615.357    22726615.2424   22726622.8784
   -200759.522 9   -141242.62948  21769660.105    21769659.4084   21769666.1314
    155740.634 9    110379.63646  23652981.161    23652980.7024   23652988.0174
   -266203.62419   -179625.84746         0.000           0.0005   22891061.8134
    102827.867 9     66147.85652         0.000           0.0004          0.0005
   -160523.867 9   -113648.22049  20227216.556    20227216.1404   20227221.9944
    -53475.658 9    -37808.05448  21168677.800    21168678.0194   21168683.0264
 00  4 29 12 54 30.0000000  0  8 27 19  2 18  7 31  8 13             0.000423668
   -152613.331 9   -111257.15549  20539221.534    20539221.4734   20539227.5094
     43091.493 9     31165.21647  22728308.164    22728307.7304   22728315.3684
   -238797.275 9   -170882.44248  21762421.747    21762421.1394   21762427.8224
    185606.372 9    133651.58246  23658664.152    23658664.0884   23658671.4104
   -339270.959 9   -236561.43246  22877150.093    22877149.6694   22877157.8094
    126850.23519     84866.49945         0.000           0.0005   23932430.5574
   -190996.130 9   -137392.86049  20221417.726    20221417.4544   20221423.3264
    -62486.971 9    -44829.88048  21166963.051    21166963.2464   21166968.2484
 00  4 29 12 54 45.0000000  0  8 27 19  2 18  7 31  8 13             0.000407012
   -177179.544 9   -130399.68149  20534546.773    20534546.6794   20534552.7194
     52025.884 9     38127.02047  22730008.501    22730007.9634   22730015.5384
   -276824.262 9   -200513.87548  21755186.097    21755184.9094   21755191.5714
    215473.302 9    156924.47946  23664346.916    23664347.6434   23664354.8534
   -412308.047 9   -293473.45547  22863251.582    22863251.5104   22863259.2764
    150906.543 9    103611.57645  23936999.495    23936999.7704   23937008.3644
   -221416.078 9   -161096.74249  20215629.098    20215628.7514   20215634.6254
    -71385.979 9    -51764.19248  21165269.552    21165269.8394   21165274.8134
 00  4 29 12 55  0.0000000  0  8 27 19  2 18  7 31  8 13             0.000000218
   -816296.607 9   -628412.99049  20412926.894    20412926.7554   20412932.7904
   -553609.336 9   -433796.57547  22614760.057    22614759.4884   22614767.0024
   -929450.750 9   -709053.99848  21630995.348    21630994.2644   21631000.8804
   -369265.985 9   -298716.57946  23553074.769    23553075.5054   23553082.6834
  -1099928.228 9   -829281.38747  22732401.383    22732401.7464   22732409.4424
   -439610.340 8   -356531.52645  23824628.300    23824628.1734   23824636.6024
   -866393.855 9   -663676.85349  20092893.905    20092893.5494   20092899.4114
   -694776.814 9   -537523.30648  21046642.249    21046642.5324   21046647.4974
 00  4 29 12 55 15.0000000  0  9 27 19 11  2 18  7 31  8 13          0.000000187
   -814500.909 9   -627013.76649  20413268.649    20413268.4784   20413274.5354
   -518352.678 9   -406323.91347  22621469.061    22621468.6534   22621476.1554
   -803346.84319   -606942.24245         0.000           0.0005   24089576.6394
   -941215.090 9   -718221.02248  21628756.543    21628755.6244   21628762.2044
   -313153.362 9   -254992.51246  23563752.870    23563753.3234   23563760.6184
  -1146669.642 9   -865703.27647  22723506.433    22723507.1444   22723514.8804
   -389239.903 8   -317281.91645  23834213.550    23834213.2874   23834222.0924
   -870464.897 9   -666849.12449  20092119.191    20092118.8464   20092124.7154
   -677197.672 9   -523825.29648  21049987.463    21049987.7474   21049992.7104
 00  4 29 12 55 30.0000000  0  9 27 19 11  2 18  7 31  8 13          0.000000183
   -812594.600 9   -625528.34849  20413631.399    20413631.2474   20413637.3064
   -483008.572 9   -378783.10247  22628194.783    22628194.4374   22628201.9564
   -825181.741 9   -623956.49245  24085413.093    24085414.0054   24085421.4154
   -952921.172 9   -727342.64948  21626528.918    21626528.0664   21626534.6374
   -256993.634 9   -211231.75046  23574439.859    23574440.1154   23574447.4884
  -1193334.661 9   -902065.63247  22714626.659    22714627.0814   22714634.8494
   -338782.530 9   -277964.56545  23843815.347    23843815.1704   23843823.7724
   -874426.968 9   -669936.46549  20091365.238    20091364.9074   20091370.7774
   -659452.370 9   -509997.80848  21053364.304    21053364.5894   21053369.5424
 00  4 29 12 55 45.0000000  0  9 27 19 11  2 18  7 31  8 13          0.000000170
   -810590.694 9   -623966.88349  20414012.743    20414012.5934   20414018.6524
   -447586.546 9   -351181.57847  22634935.349    22634935.0604   22634942.6084
   -846935.345 9   -640907.37345  24081274.292    24081273.1814   24081282.0914
   -964577.765 9   -736425.71648  21624310.745    21624309.9424   21624316.5044
   -200800.323 9   -167444.80146  23585133.249    23585133.4224   23585140.7534
  -1239932.621 9   -938375.73047  22705759.713    22705759.8294   22705767.5674
   -288246.316 8   -238585.77445  23853432.113    23853431.8734   23853440.4364
   -878287.649 9   -672944.80649  20090630.599    20090630.2664   20090636.1364
   -641553.890 9   -496050.96448  21056770.296    21056770.5814   21056775.5444
 00  4 29 12 56  0.0000000  0  9 27 19 11  2 18  7 31  8 13          0.000000159
   -808496.179 9   -622334.81749  20414411.333    20414411.1874   20414417.2384
   -412093.182 9   -323524.47047  22641689.503    22641689.2644   22641696.8194
   -868615.304 9   -657800.86845  24077148.392    24077148.3974   24077156.7884
   -976192.436 9   -745476.13048  21622100.504    21622099.7524   21622106.3434
   -144582.543 9   -123638.78346  23595831.235    23595831.3464   23595838.6594
  -1286471.647 9   -974639.90647  22696903.834    22696903.7804   22696911.5214
   -237640.515 9   -199152.77746  23863062.085    23863062.0264   23863070.4514
   -882057.123 9   -675882.08149  20089913.316    20089912.9734   20089918.8424
   -623515.110 9   -481994.78748  21060202.981    21060203.2854   21060208.2404
 00  4 29 12 56 15.0000000  0 10 26 27 19 11  2 18  7 31  8 13       0.000000150
   -774530.344 8   -568580.47152         0.000           0.0004          0.0005
   -806305.367 9   -620627.69949  20414828.262    20414828.1084   20414834.1644
   -376528.867 9   -295812.07447  22648457.174    22648456.9594   22648464.5694
   -890213.007 9   -674630.26545  24073038.481    24073038.3524   24073047.0194
   -987763.103 9   -754492.24848  21619898.626    21619897.9164   21619904.4994
    -88338.098 9    -79812.00446  23606534.310    23606534.3574   23606541.7004
  -1332951.163 9  -1010857.72547  22688059.164    22688059.0234   22688066.7264
   -186967.177 9   -159667.14146  23872704.954    23872704.8804   23872713.3484
   -885737.789 9   -678750.14749  20089212.898    20089212.5584   20089218.4084
   -605336.049 9   -467829.31949  21063662.355    21063662.6604   21063667.6254
 00  4 29 12 56 30.0000000  0 10 26 27 19 11  2 18  7 31  8 13       0.000000108
   -817484.426 8   -602051.16752         0.000           0.0004          0.0005
   -804016.280 9   -618844.02849  20415263.878    20415263.7274   20415269.7674
   -340898.012 9   -268047.83447  22655237.494    22655237.2764   22655244.9494
   -911727.186 9   -691394.61745  24068944.544    24068944.4774   24068952.9474
   -999292.889 9   -763476.51548  21617704.535    21617703.8554   21617710.5004
    -32068.219 9    -35965.39946  23617242.205    23617242.2234   23617249.5854
  -1379371.184 9  -1047029.16747  22679225.808    22679225.6194   22679233.2964
   -136228.028 9   -120130.21946  23882360.323    23882360.2364   23882368.7234
   -889332.559 9   -681551.27749  20088528.858    20088528.5314   20088534.3734
   -587017.937 9   -453555.47549  21067148.199    21067148.5074   21067153.4784
 00  4 29 12 56 45.0000000  0 10 26 27 19 11  2 18  7 31  8 13       0.000000100
   -860361.18418   -635461.63044         0.000           0.0005   24315108.4674
   -801627.709 9   -616982.81949  20415718.438    20415718.2724   20415724.3234
   -305200.024 9   -240231.27747  22662030.603    22662030.4034   22662038.0554
   -933155.097 9   -708091.68946  24064866.900    24064866.8494   24064875.3064
  -1010779.786 9   -772427.33848  21615518.586    21615517.9484   21615524.6194
     24226.040 9      7900.23146  23627954.735    23627954.6484   23627962.0834
  -1425729.546 9  -1083152.57447  22670404.114    22670403.9164   22670411.6134
    -85423.640 9    -80542.50846  23892028.138    23892028.0734   23892036.5174
   -892840.814 9   -684284.99849  20087861.269    20087860.9434   20087866.7754
   -568558.551 9   -439171.55948  21070660.915    21070661.2444   21070666.1994
 00  4 29 12 57  0.0000000  0 10 26 27 19 11  2 18  7 31  8 13       0.000000098
   -903157.01419   -668809.06245         0.000           0.0005   24306966.2344
   -799137.870 9   -615042.71849  20416192.253    20416192.0944   20416198.1564
   -269431.964 9   -212360.12747  22668837.052    22668836.8514   22668844.5194
   -954494.740 8   -724719.99745  24060806.109    24060805.9714   24060814.5904
  -1022221.072 9   -781342.64048  21613341.363    21613340.7664   21613347.4254
     80544.240 9     51784.46746  23638671.816    23638671.6984   23638679.1954
  -1472022.687 9  -1119225.14947  22661594.860    22661594.6444   22661602.3754
    -34552.811 9    -40902.99446  23901708.630    23901708.5114   23901716.9744
   -896258.004 9   -686947.75649  20087211.045    20087210.7234   20087216.5414
   -549956.580 9   -424676.53648  21074200.783    21074201.1144   21074206.0784
 00  4 29 12 57 15.0000000  0 10 26 27 19 11  2 18  7 31  8 13       0.000000096
   -945876.537 8   -702097.03945  24298828.820    24298828.8214   24298834.2914
   -796550.856 9   -613026.89549  20416684.563    20416684.4134   20416690.4894
   -233594.927 9   -184435.21847  22675656.649    22675656.4404   22675664.0884
   -975749.316 8   -741282.04045  24056761.385    24056761.4204   24056770.0664
  -1033621.400 9   -790226.03448  21611171.921    21611171.3474   21611177.9984
    136881.171 9     95683.29546  23649392.424    23649392.2174   23649399.7194
  -1518252.239 9  -1155248.16747  22652797.691    22652797.4544   22652805.1854
     16377.362 9     -1217.21546  23911400.421    23911400.2724   23911408.6914
   -899589.230 9   -689543.55449  20086577.157    20086576.8424   20086582.6564
   -531219.905 9   -410076.54748  21077766.291    21077766.6264   21077771.5724
 00  4 29 12 57 30.0000000  0 10 26 27 19 11  2 18  7 31  8 13       0.000000096
   -988523.357 9   -735328.35145  24290713.559    24290714.5784   24290720.6634
   -793867.990 9   -610936.35349  20417195.139    20417194.9904   20417201.0784
   -197687.111 9   -156455.18547  22682489.684    22682489.5194   22682497.1274
   -996917.806 8   -757776.99245  24052733.036    24052733.1484   24052741.7844
  -1044979.617 9   -799076.60048  21609010.497    21609009.9344   21609016.6044
    193235.683 9    139595.88246  23660116.400    23660116.1824   23660123.7604
  -1564415.767 9  -1191219.77047  22644013.135    22644012.8264   22644020.5794
     67365.449 9     38513.65846  23921103.242    23921103.0344   23921111.4824
   -902836.123 9   -692073.59249  20085959.300    20085958.9804   20085964.8264
   -512352.738 9   -395374.88748  21081356.619    21081356.9404   21081361.8994
 00  4 29 12 57 45.0000000  0 10 26 27 19 11  2 18  7 31  8 13       0.000000097
  -1031098.064 9   -768503.48346  24282612.107    24282613.1674   24282619.0224
   -791092.329 9   -608773.50849  20417723.341    20417723.1844   20417729.2684
   -161710.918 9   -128421.81147  22689335.756    22689335.6294   22689343.1964
  -1018003.329 8   -774207.28445  24048720.503    24048720.6174   24048729.1014
  -1056295.557 9   -807894.22948  21606857.133    21606856.6044   21606863.2864
    249606.598 9    183521.22546  23670843.532    23670843.2854   23670850.8124
  -1610512.323 9  -1227139.16547  22635241.234    22635240.8894   22635248.6704
    118408.325 9     78287.21446  23930816.458    23930816.2604   23930824.6304
   -906003.652 9   -694541.81449  20085356.562    20085356.2574   20085362.0814
   -493355.643 9   -380572.01748  21084971.665    21084971.9974   21084976.9694
 00  4 29 12 58  0.0000000  0 10 26 27 19 11  2 18  7 31  8 13       0.000000099
  -1073599.536 9   -801621.54346  24274524.543    24274525.2364   24274531.4444
   -788227.141 9   -606540.92349  20418268.571    20418268.4274   20418274.5034
   -125665.617 9   -100334.63947  22696194.991    22696194.8714   22696202.4514
  -1039007.233 9   -790573.99045  24044723.641    24044723.6944   24044732.3214
  -1067569.883 9   -816679.43048  21604711.668    21604711.1404   21604717.8294
    305995.024 9    227460.16946  23681573.990    23681573.7174   23681581.2054
  -1656543.387 9  -1263007.51647  22626481.809    22626481.4434   22626489.2394
    169503.147 8    118101.28246  23940539.574    23940539.3794   23940547.7564
   -909095.517 9   -696951.08149  20084768.213    20084767.9144   20084773.7504
   -474228.688 9   -365667.88049  21088611.455    21088611.7884   21088616.7974
 00  4 29 12 58 15.0000000  0 10 26 27 19 11  2 18  7 31  8 13       0.000000101
  -1116030.663 9   -834684.81146  24266450.319    24266451.0464   24266457.1604
   -785270.435 9   -604237.01749  20418831.218    20418831.0674   20418837.1734
    -89554.978 9    -72196.55247  22703066.646    22703066.5144   22703074.1494
  -1059930.785 9   -806878.10545  24040742.101    24040742.1014   24040750.7624
  -1078804.025 9   -825433.32348  21602573.903    21602573.4004   21602580.0824
    362399.767 9    271411.86546  23692307.552    23692307.2674   23692314.7884
  -1702511.269 9  -1298826.65447  22617734.412    22617734.0294   22617741.8154
    220648.111 9    157954.44246  23950272.242    23950272.0124   23950280.4464
   -912113.512 9   -699302.77049  20084193.928    20084193.6324   20084199.4864
   -454969.177 9   -350660.48449  21092276.418    21092276.7614   21092281.7814
 00  4 29 12 58 30.0000000  0  9 26 27 19 11  2 18  7  8 13          0.000000068
  -1158380.562 9   -867684.76046  24258391.497    24258392.0754   24258398.1794
   -782214.480 9   -601855.78049  20419412.754    20419412.6054   20419418.7184
    -53369.520 9    -44000.14547  22709952.511    22709952.4074   22709960.0424
  -1080763.745 9   -823111.58946  24036777.750    24036777.7454   24036786.4104
  -1089987.194 9   -834147.48348  21600445.849    21600445.3434   21600452.0254
    418830.960 9    315384.17746  23703046.069    23703045.7834   23703053.3414
  -1748405.696 9  -1334588.54647  22609000.969    22609000.5954   22609008.3844
   -915043.130 9   -701585.60949  20083636.449    20083636.1584   20083642.0044
   -435562.041 9   -335538.06948  21095969.494    21095969.8544   21095974.8964
 00  4 29 12 58 45.0000000  0 10 26 27 19 11  2 18  7 31  8 13       0.000000120
  -1200652.363 9   -900623.85346  24250347.445    24250347.9044   24250354.1054
   -779065.071 9   -599401.71349  20420012.086    20420011.9504   20420018.0634
    -17110.280 9    -15746.24047  22716852.462    22716852.3804   22716860.0444
  -1101512.879 9   -839279.77946  24032829.373    24032829.3784   24032838.0494
  -1101121.015 9   -842823.20448  21598327.160    21598326.6694   21598333.3464
    475282.970 9    359372.71046  23713788.574    23713788.3264   23713795.8694
  -1794230.205 9  -1370295.95947  22600280.820    22600280.4714   22600288.2844
   -199909.475 9   -164516.75042         0.000           0.0004          0.0004
   -917884.520 9   -703799.69049  20083095.803    20083095.5124   20083101.3544
   -416009.503 9   -320302.34548  21099690.226    21099690.5884   21099695.6494
 00  4 29 12 59  0.0000000  0 10 26 27 19 11  2 18  7 31  8 13       0.000000125
  -1242856.895 9   -933510.54346  24242316.212    24242316.6344   24242322.8684
   -775834.900 9   -596884.71949  20420626.834    20420626.6944   20420632.8054
     19213.499 9     12557.94147  22723764.701    22723764.6254   22723772.2914
  -1122191.019 9   -855392.64946  24028894.486    24028894.5024   24028903.2594
  -1112216.582 9   -851469.10948  21596215.757    21596215.2714   21596221.9594
    531741.669 9    403366.43546  23724532.357    23724532.1084   23724539.5964
  -1839999.629 9  -1405960.44247  22591571.217    22591570.8014   22591578.6654
   -148592.875 9   -124529.78842         0.000           0.0004          0.0004
   -920647.185 9   -705952.43249  20082570.121    20082569.8264   20082575.6764
   -396325.181 9   -304963.93348  21103436.078    21103436.4254   21103441.5054
 00  4 29 12 59 15.0000000  0 10 26 27 19 11  2 18  7 31  8 13       0.000000127
  -1284990.225 9   -966341.75046  24234298.563    24234298.9144   24234305.1524
   -772520.937 9   -594302.43649  20421257.494    20421257.3584   20421263.4664
     55602.995 9     40913.32347  22730689.446    22730689.3814   22730697.0544
  -1142798.045 9   -871450.09846  24024973.087    24024973.0974   24024981.9184
  -1123272.853 9   -860084.40448  21594111.812    21594111.3384   21594118.0324
    588210.372 9    447367.97046  23735278.012    23735277.7594   23735285.3014
  -1885711.650 9  -1441580.20247  22582872.521    22582872.0834   22582879.9574
    -97229.462 9    -84506.89452         0.000           0.0004          0.0005
   -923329.669 9   -708042.69449  20082059.666    20082059.3704   20082065.2374
   -376509.581 9   -289523.22948  21107206.883    21107207.2444   21107212.3324
 00  4 29 12 59 30.0000000  0 10 26 27 19 11  2 18  7 31  8 13       0.000000126
  -1327051.886 9   -999117.10446  24226294.529    24226294.8754   24226301.1114
   -769122.864 9   -591654.61049  20421904.135    20421903.9904   20421910.0994
     92057.080 9     69319.04247  22737626.506    22737626.4184   22737634.1614
  -1163330.853 9   -887449.69946  24021065.843    24021065.9324   24021074.8124
  -1134289.298 9   -868668.66248  21592015.458    21592014.9794   21592021.7024
    644691.514 9    491379.19746  23746026.017    23746025.7684   23746033.3164
  -1931366.427 9  -1477155.35647  22574184.695    22574184.2674   22574192.1474
    -45820.168 9    -44447.71245         0.000           0.0004   23999104.5124
   -925932.107 9   -710070.58149  20081564.437    20081564.1424   20081570.0154
   -356561.768 9   -273979.50348  21111002.868    21111003.2364   21111008.3224
 00  4 29 12 59 45.0000000  0 10 26 27 19 11  2 18  7 31  8 13       0.000000120
  -1369041.629 9  -1031836.41646  24218304.129    24218304.4574   24218310.7474
   -765642.233 9   -588942.45249  20422566.506    20422566.3714   20422572.4924
    128572.943 9     97772.90147  22744575.248    22744575.1784   22744582.9444
  -1183790.695 9   -903392.46846  24017172.495    24017172.5674   24017181.5004
  -1145266.586 9   -877222.40548  21589926.571    21589926.1054   21589932.8364
    701184.303 9    535399.48846  23756776.235    23756775.9854   23756783.6134
  -1976962.414 9  -1512684.70147  22565508.073    22565507.6544   22565515.5304
      5634.40719     -4353.33146         0.000           0.0005   24008895.9284
   -928451.294 9   -712033.59649  20081085.040    20081084.7544   20081090.6454
   -336480.897 9   -258332.09448  21114824.153    21114824.5114   21114829.5784
 00  4 29 13  0  0.0000000  0 10 26 27 19 11  2 18  7 31  8 13       0.000000112
  -1410956.980 9  -1064497.76546  24210327.869    24210328.2184   24210334.4944
   -762076.946 9   -586164.32849  20423244.982    20423244.8624   20423250.9844
    165148.905 9    126273.58547  22751535.472    22751535.4504   22751543.2254
  -1204177.520 9   -919278.33646  24013293.064    24013293.1534   24013302.0004
  -1156205.824 9   -885746.50048  21587844.943    21587844.4864   21587851.2284
    757690.746 9    579430.42346  23767529.072    23767528.8714   23767536.4914
  -2022498.424 9  -1548167.30947  22556842.853    22556842.4424   22556850.2894
     57135.993 9     35777.67146  24018688.176    24018687.6994   24018696.3634
   -930883.383 9   -713928.74849  20080622.281    20080621.9944   20080627.8864
   -316265.581 9   -242579.92148  21118671.067    21118671.4184   21118676.4704
 00  4 29 13  0 15.0000000  0 10 26 27 19 11  2 18  7 31  8 13       0.000000101
  -1452797.634 9  -1097100.90745  24202365.901    24202366.3504   24202372.4534
   -758423.432 9   -583317.45949  20423940.242    20423940.1304   20423946.2694
    201784.028 9    154820.37847  22758506.992    22758506.9534   22758514.7604
  -1224490.414 9   -935106.59146  24009427.756    24009427.7984   24009436.6804
  -1167108.528 9   -894242.12648  21585770.234    21585769.7824   21585776.5244
    814210.654 9    623471.85046  23778284.504    23778284.3664   23778291.9484
  -2067973.634 9  -1583602.54347  22548189.236    22548188.8044   22548196.6884
    108686.791 9     75947.03046  24028497.799    24028497.7374   24028506.2454
   -933225.012 9   -715753.40949  20080176.693    20080176.3934   20080182.2974
   -295917.105 9   -226723.99248  21122543.281    21122543.6274   21122548.6574
 00  4 29 13  0 30.0000000  0 10 26 27 19 11  2 18  7 31  8 13       0.000000087
  -1494562.442 9  -1129644.94445  24194418.350    24194418.7624   24194424.7924
   -754678.679 9   -580399.49349  20424652.824    20424652.7274   20424658.8884
    238479.571 9    183414.24547  22765489.957    22765489.8994   22765497.7344
  -1244725.879 9   -950874.53446  24005577.161    24005577.1954   24005586.0524
  -1177974.354 9   -902709.01748  21583702.574    21583702.1344   21583708.8674
    870744.805 9    667524.38246  23789042.676    23789042.5884   23789050.1554
  -2113385.929 9  -1618988.74647  22539547.575    22539547.1564   22539555.0354
    160287.636 9    116155.38546  24038317.231    24038317.1604   24038325.7014
   -935474.201 9   -717506.04449  20079748.732    20079748.4194   20079754.3294
   -275437.177 9   -210765.63048  21126440.497    21126440.8494   21126445.8814
 00  4 29 13  0 45.0000000  0 10 26 27 19 11  2 18  7 31  8 13       0.000000073
  -1536247.619 9  -1162126.93145  24186485.953    24186486.3144   24186492.3744
   -750842.402 9   -577410.20449  20425382.862    20425382.7724   20425388.9554
    275238.057 9    212057.16047  22772484.901    22772484.8474   22772492.6964
  -1264882.502 9   -966581.03046  24001741.564    24001741.5904   24001750.4704
  -1188802.293 9   -911146.37648  21581642.126    21581641.6704   21581648.4004
    927294.135 9    711588.72846  23799803.753    23799803.5794   23799811.2194
  -2158728.859 9  -1654320.91147  22530919.151    22530918.7294   22530926.5944
    211940.713 9    156404.45146  24048146.506    24048146.1844   24048155.1084
   -937629.336 9   -719185.38749  20079338.643    20079338.3134   20079344.2494
   -254828.299 9   -194706.78848  21130362.285    21130362.6444   21130367.6674
 00  4 29 13  1  0.0000000  0 10 26 27 19 11  2 18  7 31  8 13       0.000000059
  -1577853.969 9  -1194547.48845  24178568.511    24178568.8064   24178574.8654
   -746909.811 9   -574345.86849  20426131.208    20426131.1344   20426137.3334
    312061.312 9    240750.54647  22779492.170    22779492.1164   22779500.0034
  -1284960.321 9   -982226.12546  23997920.957    23997920.9354   23997929.7994
  -1199591.873 9   -919553.85848  21579588.949    21579588.4824   21579595.2304
    983859.489 9    755665.56246  23810567.835    23810567.7164   23810575.3504
  -2203998.390 9  -1689595.87347  22522304.673    22522304.2634   22522312.0924
    263646.425 9    196694.50646  24057985.820    24057985.5534   24057994.4894
   -939691.730 9   -720792.46649  20078946.178    20078945.8654   20078951.8014
   -234092.826 9   -178549.30148  21134308.127    21134308.4834   21134313.5054
 00  4 29 13  1 15.0000000  0 10 26 27 19 11  2 18  7 31  8 13       0.000000049
  -1619378.904 8  -1226904.60345  24170666.527    24170666.7764   24170672.9994
   -742878.204 9   -571204.37349  20426898.399    20426898.3224   20426904.5384
    348950.127 9    269495.00947  22786511.948    22786511.8854   22786519.8004
  -1304956.708 9   -997807.77246  23994115.801    23994115.7594   23994124.6674
  -1210341.760 9   -927930.40348  21577543.323    21577542.8684   21577549.6104
   1040445.394 9    799758.43246  23821335.872    23821335.7724   23821343.3934
  -2249188.839 9  -1724809.21647  22513705.229    22513704.8364   22513712.6634
    315408.113 9    237028.20446  24067835.783    24067835.4244   24067844.4144
   -941660.539 9   -722326.62449  20078571.537    20078571.2444   20078577.1624
   -213230.584 9   -162293.03048  21138278.101    21138278.4644   21138283.4684
 00  4 29 13  1 30.0000000  0 10 26 27 19 11  2 18  7 31  8 13       0.000000040
  -1660825.479 9  -1259200.66845  24162779.476    24162779.7864   24162786.0264
   -738748.488 9   -567986.43949  20427684.269    20427684.1884   20427690.4344
    385903.721 9    298289.95947  22793544.049    22793543.9884   22793551.9594
  -1324871.577 9  -1013325.87746  23990326.202    23990326.1424   23990335.0304
  -1221053.012 9   -936276.84148  21575505.048    21575504.5794   21575511.3104
   1097051.488 9    843867.02046  23832107.728    23832107.6054   23832115.2074
  -2294300.110 9  -1759960.85047  22505120.911    22505120.4794   22505128.3034
    367228.096 9    277407.32046  24077696.853    24077696.4574   24077705.4804
   -943536.605 9   -723788.51549  20078214.567    20078214.2614   20078220.2014
   -192240.565 9   -145937.19648  21142272.412    21142272.7794   21142277.7874
 00  4 29 13  1 45.0000000  0 10 26 27 19 11  2 18  7 31  8 13       0.000000034
  -1702195.117 8  -1291436.78545  24154907.057    24154907.4364   24154913.6604
   -734518.740 9   -564690.55649  20428489.172    20428489.0914   20428495.3484
    422922.129 9    327135.41247  22800588.446    22800588.4114   22800596.3994
  -1344704.017 9  -1028779.76746  23986552.290    23986552.1954   23986561.0824
  -1231725.912 9   -944593.39548  21573474.096    21573473.6454   21573480.3804
   1153677.354 9    887991.01446  23842883.324    23842883.1754   23842890.8384
  -2339334.942 9  -1795052.94247  22496551.107    22496550.6724   22496558.4914
    419111.282 9    317835.66946  24087569.909    24087569.4934   24087578.5094
   -945318.904 9   -725177.34249  20077875.415    20077875.1264   20077881.0694
   -171122.225 9   -129481.36748  21146291.101    21146291.4674   21146296.4764
 00  4 29 13  2  0.0000000  0 10 26 27 19 11  2 18  7 31  8 13       0.000000029
  -1743486.631 9  -1323612.02045  24147049.607    24147049.8954   24147056.1764
   -730185.974 9   -561314.40049  20429313.716    20429313.6304   20429319.8924
    460003.987 9    356030.29547  22807644.910    22807644.8864   22807652.8884
  -1364456.733 9  -1044171.52446  23982793.546    23982793.4284   23982802.3094
  -1242359.921 9   -952879.64748  21571450.511    21571450.0564   21571456.7814
   1210322.520 9    932130.04946  23853662.604    23853662.4734   23853670.2094
  -2384295.946 9  -1830087.48947  22487995.341    22487994.9054   22488002.7304
    471058.569 9    358313.99546  24097455.162    24097454.7794   24097463.7244
   -947010.725 9   -726495.65949  20077553.475    20077553.1994   20077559.1614
   -149875.472 9   -112925.47848  21150334.287    21150334.6484   21150339.6494
 00  4 29 13  2 15.0000000  0 10 26 27 19 11  2 18  7 31  8 13       0.000000025
  -1784699.481 9  -1355725.97145  24139207.119    24139207.3844   24139213.6354
   -725748.211 9   -557856.42449  20430158.188    20430158.1064   20430164.3884
    497149.157 9    384974.52047  22814713.431    22814713.3934   22814721.4644
  -1384130.232 9  -1059501.57346  23979049.864    23979049.6794   23979058.5734
  -1252955.525 9   -961135.97148  21569434.286    21569433.8224   21569440.5574
   1266984.812 9    976282.41446  23864445.115    23864444.9794   23864452.7364
  -2429190.265 9  -1865070.08047  22479452.248    22479451.8094   22479459.6214
    523068.197 8    398840.87746  24107352.243    24107351.8184   24107360.9634
   -948617.607 9   -727747.79749  20077247.725    20077247.4414   20077253.4214
   -128501.868 9    -96270.74548  21154401.585    21154401.9424   21154406.9494
 00  4 29 13  2 30.0000000  0 10 26 27 19 11  2 18  7 31  8 13       0.000000021
  -1825834.457 9  -1387779.22545  24131379.393    24131379.6634   24131386.0634
   -721205.787 9   -554316.89849  20431022.605    20431022.5274   20431028.7954
    534360.019 9    413969.93447  22821794.447    22821794.4104   22821802.5474
  -1403723.809 9  -1074769.33246  23975321.400    23975321.1604   23975330.0564
  -1263511.580 9   -969361.48048  21567425.546    21567425.0924   21567431.8094
   1323661.325 9   1020445.87046  23875230.285    23875230.1724   23875237.9544
  -2474020.875 9  -1900003.02947  22470921.276    22470920.8354   22470928.6324
    575138.226 9    439414.80646  24117260.804    24117260.4484   24117269.6714
   -950141.844 9   -728935.53549  20076957.670    20076957.4024   20076963.3704
   -106998.340 9    -79514.76948  21158493.601    21158493.9594   21158498.9734
 00  4 29 13  2 45.0000000  0 10 26 27 19 11  2 18  7 31  8 13       0.000000018
  -1866891.150 9  -1419771.50245  24123566.581    24123566.9424   24123573.2304
   -716559.669 9   -550696.56849  20431906.790    20431906.7054   20431912.9804
    571638.774 9    443018.24747  22828888.393    22828888.3594   22828896.5524
  -1423235.279 9  -1089973.11746  23971608.528    23971608.2814   23971617.1054
  -1274026.266 9   -977554.75548  21565424.693    21565424.2374   21565430.9594
   1380352.948 9   1064621.09346  23886018.408    23886018.2744   23886026.0954
  -2518787.746 9  -1934886.31347  22462402.491    22462402.0334   22462409.8084
    627267.789 9    480035.15946  24127180.751    24127180.3614   24127189.6394
   -951584.527 9   -730059.72649  20076683.141    20076682.8714   20076688.8534
    -85361.041 9    -62654.56248  21162611.055    21162611.4194   21162616.4254
 00  4 29 13  3  0.0000000  0 10 26 27 19 11  2 18  7 31  8 13       0.000000013
  -1907871.367 8  -1451704.14645  24115768.328    24115768.6414   24115774.9704
   -711810.059 9   -546995.59549  20432810.648    20432810.5694   20432816.8274
    608985.123 9    472119.23246  22835995.212    22835995.1794   22836003.4174
  -1442667.633 9  -1105115.24946  23967910.684    23967910.5414   23967919.2654
  -1284500.244 9   -985716.31048  21563431.600    21563431.1574   21563437.8784
   1437059.062 9   1108807.60646  23896809.285    23896809.1734   23896816.9014
  -2563494.411 9  -1969722.68347  22453895.125    22453894.6724   22453902.4244
    679454.674 8    520700.13946  24137111.633    24137111.2964   24137120.5374
   -952947.762 9   -731122.01249  20076423.785    20076423.5114   20076429.5134
    -63586.903 9    -45687.72448  21166754.556    21166754.9304   21166759.9364
 00  4 29 13  3 15.0000000  0 10 26 27 19 11  2 18  7 31  8 13       0.000000007
  -1948774.672 9  -1483576.90745  24107984.677    24107984.9894   24107991.4164
   -706954.608 9   -543212.14549  20433734.638    20433734.5504   20433740.7924
    646399.787 9    501273.44046  22843115.015    22843115.0114   22843123.2714
  -1462016.502 9  -1120192.31946  23964228.700    23964228.5604   23964237.3104
  -1294934.013 9   -993846.53548  21561446.128    21561445.7014   21561452.4184
   1493781.697 9   1153006.99546  23907603.330    23907603.1904   23907610.9574
  -2608145.222 9  -2004515.51947  22445398.354    22445397.9244   22445405.6954
    731698.460 8    561409.49845  24147053.325    24147053.0434   24147062.3464
   -954229.717 9   -732120.95649  20076179.863    20076179.5904   20076185.5934
    -41673.454 9    -28612.33648  21170924.576    21170924.9534   21170929.9694
 00  4 29 13  3 30.0000000  0 10 26 27 19 11  2 18  7 31  8 13       0.000000001
  -1989600.251 8  -1515389.08145  24100215.876    24100216.1174   24100222.6624
   -701994.231 9   -539346.94149  20434678.632    20434678.5364   20434684.7684
    683880.429 9    530479.07346  22850247.383    22850247.4024   22850255.6364
  -1481278.576 9  -1135201.76246  23960563.285    23960563.1574   23960571.9594
  -1305328.362 9  -1001946.04448  21559468.155    21559467.7114   21559474.4114
   1550521.110 9   1197219.46446  23918400.582    23918400.4154   23918408.2254
  -2652742.147 9  -2039266.37247  22436911.818    22436911.3804   22436919.1984
    783998.746 8    602162.84645  24157005.795    24157005.4834   24157014.8494
   -955426.995 9   -733053.92249  20075952.075    20075951.7984   20075957.8074
    -19618.007 9    -11426.29248  21175121.634    21175122.0084   21175127.0124
 00  4 29 13  3 45.0000000  0 10 26 27 19 11  2 18  7 31  8 13      -0.000000007
  -2030345.501 8  -1547138.65145  24092462.486    24092462.6054   24092469.1554
   -696925.397 9   -535397.22849  20435643.250    20435643.1484   20435649.3694
    721427.976 9    559736.84546  22857392.488    22857392.5064   22857400.7794
  -1500452.301 9  -1150142.36746  23956914.670    23956914.5634   23956923.2974
  -1315682.228 9  -1010014.01048  21557497.901    21557497.4654   21557504.1594
   1607276.633 9   1241444.48146  23929200.874    23929200.6894   23929208.4594
  -2697285.238 9  -2073975.28547  22428435.556    22428435.1384   22428442.9284
    836354.985 8    642959.81045  24166968.934    24166968.5964   24166978.0424
   -956537.306 9   -733919.12549  20075740.817    20075740.5344   20075746.5454
      2581.983 9      5872.37648  21179346.190    21179346.5734   21179351.5724
 00  4 29 13  4  0.0000000  0 10 26 27 19 11  2 18  7 31  8 13      -0.000000015
  -2071006.725 8  -1578822.76945  24084724.969    24084725.1024   24084731.6264
   -691748.661 9   -531363.42649  20436628.363    20436628.2764   20436634.4904
    759041.589 9    589046.08346  22864550.166    22864550.1914   22864558.4604
  -1519537.582 9  -1165014.04146  23953282.916    23953282.7674   23953291.5254
  -1325994.611 9  -1018049.64848  21555535.543    21555535.1144   21555541.8004
   1664048.110 9   1285681.93746  23940004.213    23940004.0204   23940011.7944
  -2741770.218 9  -2108638.90447  22419970.336    22419969.9284   22419977.6824
    888764.935 8    683798.61245  24176942.230    24176941.9024   24176951.4004
   -957561.105 9   -734716.90549  20075545.998    20075545.7194   20075551.7264
     24925.792 9     23283.11148  21183598.100    21183598.4704   21183603.4734
 00  4 29 13  4 15.0000000  0 10 26 27 19 11  2 18  7 31  8 13      -0.000000022
  -2111581.822 8  -1610439.74845  24077003.746    24077003.8574   24077010.4714
   -686467.402 9   -527248.18149  20437633.373    20437633.2914   20437639.5104
    796722.167 9    618407.50446  22871720.625    22871720.6174   22871728.8914
  -1538534.856 9  -1179817.14546  23949667.898    23949667.7804   23949676.4954
  -1336265.397 9  -1026052.87648  21553581.067    21553580.6474   21553587.3054
   1720836.181 9   1329932.32546  23950810.651    23950810.5094   23950818.2634
  -2786190.563 9  -2143252.16847  22411517.450    22411517.0494   22411524.7884
    941225.895 8    724677.17245  24186925.295    24186924.9704   24186934.4454
   -958496.845 9   -735446.07449  20075367.993    20075367.7124   20075373.7024
     47413.266 9     40805.79148  21187877.359    21187877.7374   21187882.7444
 00  4 29 13  4 30.0000000  0 10 26 27 19 11  2 18  7 31  8 13      -0.000000026
  -2152073.513 8  -1641991.73945  24069298.335    24069298.4924   24069305.0604
   -681087.625 9   -523056.17349  20438657.140    20438657.0724   20438663.2834
    834470.968 9    647822.08646  22878904.052    22878904.0344   22878912.2734
  -1557441.894 9  -1194549.92646  23946070.020    23946069.8804   23946078.7094
  -1346496.941 9  -1034025.52348  21551634.097    21551633.6754   21551640.3184
   1777640.844 9   1374195.63746  23961620.272    23961620.1364   23961627.9564
  -2830539.151 9  -2177809.51447  22403078.238    22403077.8224   22403085.5574
    993737.792 8    765595.46645  24196918.028    24196917.7724   24196927.1814
   -959340.764 9   -736103.69449  20075207.429    20075207.1534   20075213.1374
     70043.148 9     58439.44048  21192183.692    21192184.0764   21192189.0894
 00  4 29 13  4 45.0000000  0 10 26 27 19 11  2 18  7 31  8 13      -0.000000027
  -2192483.425 8  -1673480.01545  24061608.541    24061608.7554   24061615.3454
   -675613.988 9   -518791.02449  20439698.720    20439698.6414   20439704.8834
    872285.973 9    677288.26146  22886100.054    22886100.0234   22886108.2834
  -1576258.418 9  -1209212.18346  23942489.348    23942489.2294   23942498.0884
  -1356691.157 9  -1041969.08648  21549694.236    21549693.8174   21549700.4474
   1834462.957 9   1418472.53546  23972433.197    23972433.1304   23972440.9084
  -2874810.021 9  -2212306.30347  22394653.777    22394653.3644   22394661.0994
   1046298.852 8    806552.03345  24206920.103    24206919.8774   24206929.2934
   -960091.880 9   -736689.00549  20075064.547    20075064.2624   20075070.2424
     92809.534 9     76179.45448  21196515.981    21196516.3674   21196521.4064
 00  4 29 13  5  0.0000000  0 10 26 27 19 11  2 18  7 31  8 13      -0.000000025
  -2232811.908 8  -1704904.85045  24053934.287    24053934.6664   24053941.0694
   -670046.978 9   -514453.11749  20440758.122    20440758.0584   20440764.3094
    910164.103 9    706803.60746  22893308.072    22893308.0624   22893316.3164
  -1594985.472 9  -1223804.72346  23938925.766    23938925.6374   23938934.4994
  -1366850.781 9  -1049885.69448  21547760.936    21547760.5264   21547767.1264
   1891303.100 9   1462763.49046  23983249.582    23983249.4824   23983257.3274
  -2919001.225 9  -2246741.01947  22386244.495    22386244.0954   22386251.7984
   1098908.963 8    847546.83945  24216931.496    24216931.3174   24216940.6324
   -960750.544 9   -737202.26949  20074939.219    20074938.9394   20074944.9174
    115706.231 9     94021.00548  21200873.103    21200873.5014   21200878.5544
 00  4 29 13  5 15.0000000  0 10 26 27 19 11  2  7 31 18  8 13      -0.000000020
  -2273062.922 8  -1736269.31045  24046274.837    24046275.2004   24046281.5964
   -664391.387 9   -510046.18349  20441834.356    20441834.2934   20441840.5374
    948099.161 9    736363.33646  22900526.946    22900526.9054   22900535.1994
  -1613627.004 9  -1238330.61346  23935378.395    23935378.3024   23935387.1514
  -1376979.753 9  -1057778.40848  21545833.479    21545833.0804   21545839.6604
  -2963114.774 9  -2281115.21147  22377850.010    22377849.6274   22377857.3244
   1151564.535 8    888577.04845  24226951.583    24226951.5004   24226960.7614
  -1108432.970 9   -870881.68042         0.000           0.0004          0.0004
   -961318.775 9   -737645.05949  20074831.088    20074830.8344   20074836.8034
    138725.339 9    111957.95248  21205253.503    21205253.8984   21205258.9634
 00  4 29 13  5 30.0000000  0 10 26 27 19 11  2  7 31 18  8 13      -0.000000013
  -2313231.513 9  -1767569.53245  24038631.007    24038631.4124   24038637.7424
   -658645.674 9   -505569.03149  20442927.737    20442927.6764   20442933.9254
    986092.927 9    765968.78946  22907756.962    22907756.9204   22907765.2644
  -1632177.278 9  -1252785.40646  23931848.393    23931848.3174   23931857.1804
  -1387071.061 9  -1065641.78248  21543913.214    21543912.8094   21543919.3904
  -3007143.065 9  -2315422.98547  22369471.746    22369471.3474   22369479.0424
   1204270.121 8    929646.25045  24236981.193    24236981.0574   24236990.3634
  -1051558.915 9   -826564.23342         0.000           0.0004          0.0004
   -961790.400 9   -738012.58049  20074741.353    20074741.0964   20074747.0784
    161869.429 9    129992.27448  21209657.718    21209658.1094   21209663.1604
 00  4 29 13  5 45.0000000  0 10 26 27 19 11  2  7 31 18  8 13      -0.000000000
  -2353316.670 9  -1798804.75345  24031003.071    24031003.5424   24031009.8734
   -652812.271 9   -501023.55449  20444037.845    20444037.7774   20444044.0244
   1024145.365 9    795619.96846  22914998.150    22914998.1264   22915006.4984
  -1650640.113 9  -1267172.05246  23928335.000    23928334.9684   23928343.8884
  -1397125.232 9  -1073476.21448  21541999.968    21541999.5844   21542006.1704
  -3051082.726 9  -2349661.68547  22361110.357    22361109.9364   22361117.6284
   1257023.820 8    970752.94345  24247019.977    24247019.8864   24247029.1164
   -994669.304 9   -782235.18643         0.000           0.0004   24015725.5234
   -962167.002 9   -738306.05249  20074669.667    20074669.4164   20074675.4054
    185136.117 9    148122.13348  21214085.243    21214085.6444   21214090.6814
 00  4 29 13  6  0.0000000  0 10 26 27 19 11  2  7 31 18  8 13       0.000000016
  -2393317.748 9  -1829974.47845  24023391.203    24023391.6524   24023397.9494
   -646894.760 9   -496412.52849  20445163.978    20445163.8974   20445170.1444
   1062256.150 9    825316.61346  22922250.470    22922250.4764   22922258.8204
  -1669018.457 9  -1281492.88146  23924837.702    23924837.7394   23924846.6404
  -1407143.974 9  -1081283.03348  21540093.472    21540093.0944   21540099.6864
  -3094933.941 9  -2383831.47247  22352765.749    22352765.3034   22352773.0204
   1309823.327 8   1011895.31345  24257067.502    24257067.3424   24257076.5834
   -937768.76719   -737897.13545         0.000           0.0005   24026554.0124
   -962451.933 9   -738528.09149  20074615.479    20074615.2334   20074621.2324
    208522.483 9    166345.25348  21218535.540    21218535.9434   21218540.9914
 00  4 29 13  6 15.0000000  0 10 26 27 19 11  2  7 31 18  8 13       0.000000036
  -2433238.261 9  -1861081.39745  24015794.654    24015795.0214   24015801.3754
   -640895.703 9   -491737.96649  20446305.571    20446305.4874   20446311.7364
   1100423.236 9    855057.13046  22929513.509    22929513.4874   22929521.8044
  -1687313.895 9  -1295749.09446  23921356.202    23921356.2294   23921365.1874
  -1417129.978 9  -1089064.35748  21538193.206    21538192.8294   21538199.4414
  -3138697.987 9  -2417933.33347  22344437.706    22344437.2584   22344444.9984
   1362667.696 8   1053072.66245  24267123.514    24267123.4194   24267132.5444
   -880857.026 9   -693550.42145  24037375.253    24037375.8014   24037383.5944
   -962646.709 9   -738679.88949  20074578.443    20074578.1894   20074584.1814
    232025.162 9    184659.00248  21223007.973    21223008.3674   21223013.4254
 00  4 29 13  6 30.0000000  0 10 26 27 19 11  2  7 31 18  8 13       0.000000055
  -2473080.914 9  -1892127.65045  24008212.809    24008213.2204   24008219.6744
   -634815.301 9   -487000.01049  20447462.655    20447462.5864   20447468.8424
   1138646.399 9    884841.35146  22936787.234    22936787.2034   22936795.5204
  -1705524.668 9  -1309939.33746  23917890.857    23917890.8694   23917899.8674
  -1427085.955 9  -1096822.27348  21536298.670    21536298.2814   21536304.9274
  -3182381.198 9  -2451972.20947  22336125.129    22336124.6724   22336132.4044
   1415554.156 8   1094282.79945  24277187.545    24277187.3634   24277196.6484
   -823936.650 9   -649196.94846  24048206.495    24048207.5424   24048215.2014
   -962751.639 9   -738761.66449  20074558.501    20074558.2424   20074564.2574
    255643.086 9    203062.55548  21227502.311    21227502.7164   21227507.8064
 00  4 29 13  6 45.0000000  0 10 26 27 19 11  2  7 31 18  8 13       0.000000075
  -2512846.828 9  -1923114.13045  24000645.591    24000646.0684   24000652.5244
   -628649.386 9   -482195.42549  20448636.015    20448635.9444   20448642.1814
   1176926.470 9    914669.91446  22944071.738    22944071.7104   22944080.0364
  -1723648.468 9  -1324061.81146  23914442.052    23914442.0664   23914451.0134
  -1437010.504 9  -1104555.70148  21534410.070    21534409.6984   21534416.3544
  -3225988.458 9  -2485951.90447  22327826.948    22327826.4884   22327834.2234
   1468480.194 8   1135523.76645  24287259.060    24287258.8714   24287268.2004
   -767010.719 9   -604839.15246  24059039.889    24059039.9334   24059048.0004
   -962768.131 9   -738774.53249  20074555.366    20074555.1154   20074561.1304
    279376.813 9    221556.34448  21232018.710    21232019.1094   21232024.2384
 00  4 29 13  7  0.0000000  0 10 26 27 19 11  2  7 31 18  8 13       0.000000090
  -2552536.543 8  -1954041.21746  23993092.955    23993093.3574   23993099.8564
   -622393.364 9   -477320.62749  20449826.527    20449826.4404   20449832.6884
   1215262.247 9    944541.87646  22951366.852    22951366.8194   22951375.1634
  -1741687.200 9  -1338117.98546  23911009.408    23911009.4124   23911018.3554
  -1446905.048 9  -1112265.74848  21532527.212    21532526.8424   21532533.5144
  -3269528.020 9  -2519878.84447  22319541.635    22319541.1634   22319548.9154
   1521442.826 8   1176793.25545  24297337.570    24297337.3034   24297346.8784
   -710083.422 9   -560480.28846  24069873.137    24069872.5044   24069880.9264
   -962699.212 9   -738720.85149  20074568.475    20074568.2264   20074574.2564
    303227.482 9    240141.25548  21236557.346    21236557.7474   21236562.8734
 00  4 29 13  7 15.0000000  0 10 26 27 19 11  2  7 31 18  8 13       0.000000098
  -2592150.896 8  -1984909.57745  23985554.653    23985555.0464   23985561.5214
   -616044.718 9   -472373.65549  20451034.664    20451034.5834   20451040.8164
   1253654.156 9    974457.58246  22958672.672    22958672.6114   22958680.9904
  -1759641.634 9  -1352108.47846  23907592.847    23907592.8884   23907601.8114
  -1456768.607 9  -1119951.64848  21530650.256    21530649.8714   21530656.5764
  -3313002.842 9  -2553755.34047  22311268.641    22311268.1714   22311275.9414
   1574439.887 8   1218089.54945  24307422.683    24307422.4614   24307431.9894
   -653156.004 9   -516121.34046  24080705.763    24080705.4244   24080713.8644
   -962544.243 9   -738600.12349  20074597.951    20074597.7254   20074603.7684
    327201.477 9    258822.26348  21241119.459    21241119.8694   21241125.0114
 00  4 29 13  7 30.0000000  0 10 26 27 19 11  2  7 31 18  8 13       0.000000099
  -2631686.633 8  -2015716.68345  23978031.287    23978031.6744   23978038.1544
   -609600.869 9   -467352.49549  20452260.933    20452260.8444   20452267.0704
   1292106.435 9   1004420.31846  22965989.942    22965989.9064   22965998.3164
  -1777510.270 9  -1366032.11046  23904192.530    23904192.5524   23904201.6064
  -1466599.059 9  -1127611.75548  21528779.610    21528779.2464   21528785.9604
  -3356410.647 9  -2587579.61747  22303008.368    22303007.9394   22303015.7084
   1627470.629 8   1259412.10945  24317514.214    24317514.0354   24317523.4894
   -596230.304 9   -471763.71946  24091538.186    24091538.0354   24091546.4004
   -962301.836 9   -738411.26049  20074644.105    20074643.8834   20074649.9264
    351303.333 9    277602.90048  21245705.920    21245706.3344   21245711.4894
 00  4 29 13  7 45.0000000  0 10 26 27 19 11  2  7 31 18  8 13       0.000000096
  -2671139.349 8  -2046459.10745  23970523.707    23970524.1114   23970530.5604
   -603057.304 9   -462253.63349  20453506.183    20453506.1024   20453512.3424
   1330624.329 9   1034434.19446  22973319.710    22973319.6724   22973328.1434
  -1795293.579 9  -1379889.26446  23900808.551    23900808.5444   23900817.6074
  -1476397.268 9  -1135246.73848  21526915.069    21526914.7074   21526921.4434
  -3399750.104 9  -2621350.63447  22294761.147    22294760.7284   22294768.4834
   1680535.531 8   1300761.27945  24327612.178    24327611.9654   24327621.5484
   -539308.756 9   -427409.33646  24102369.927    24102369.7864   24102378.2724
   -961971.001 9   -738153.48249  20074707.116    20074706.8904   20074712.9324
    375536.986 9    296486.24048  21250317.435    21250317.8614   21250323.0404
 00  4 29 13  8  0.0000000  0 10 26 27 19 11  2  7 31 18  8 13       0.000000088
  -2710506.211 8  -2077134.60545  23963032.509    23963032.8884   23963039.3974
   -596409.205 9   -457073.32049  20454771.294    20454771.2164   20454777.4714
   1369212.451 9   1064502.78646  22980662.859    22980662.8484   22980671.2974
  -1812989.844 9  -1393678.59646  23897441.149    23897441.0564   23897450.1404
  -1486163.559 9  -1142856.84548  21525056.624    21525056.2634   21525062.9974
  -3443022.507 9  -2655069.40747  22286526.707    22286526.2894   22286534.0774
   1733638.215 8   1342139.89845  24337717.350    24337717.1694   24337726.7094
   -482389.665 9   -383056.87746  24113201.337    24113201.2084   24113209.6584
   -961548.582 9   -737824.33849  20074787.499    20074787.2744   20074793.3224
    399905.158 9    315474.39948  21254954.539    21254954.9614   21254960.1424
 00  4 29 13  8 15.0000000  0 10 26 27 19 11  2  7 31 18  8 13       0.000000076
  -2749788.658 8  -2107744.33045  23955557.294    23955557.6534   23955564.2604
   -589653.079 9   -451808.83049  20456056.971    20456056.9064   20456063.1594
   1407874.032 9   1094628.62547  22988019.984    22988019.9954   22988028.4414
  -1830596.376 9  -1407397.99846  23894090.759    23894090.6354   23894099.6544
  -1495894.957 9  -1150439.77248  21523204.821    21523204.4564   21523211.1764
  -3486227.507 9  -2688735.64847  22278305.065    22278304.6414   22278312.4424
   1786779.365 8   1383548.51945  24347829.812    24347829.7384   24347839.2284
   -425467.583 9   -338702.08645  24124033.276    24124033.1094   24124041.6014
   -961035.133 9   -737424.27049  20074885.246    20074885.0264   20074891.0834
    424410.496 9    334569.44348  21259617.780    21259618.1934   21259623.4034
 00  4 29 13  8 30.0000000  0 10 26 27 19 11  2  7 31 18  8 13       0.000000062
  -2788984.652 8  -2138286.68145  23948098.562    23948098.9164   23948105.5544
   -582785.218 9   -446457.27549  20457363.891    20457363.8324   20457370.0904
   1446611.273 9   1124813.40647  22995391.524    22995391.5314   22995400.0114
  -1848112.256 9  -1421046.76946  23890757.645    23890757.5824   23890766.5324
  -1505588.231 9  -1157992.99548  21521360.300    21521359.9324   21521366.6594
  -3529362.782 9  -2722347.56747  22270096.683    22270096.2734   22270104.0624
   1839958.933 9   1424987.04145  24357949.569    24357949.5724   24357959.0664
   -368538.869 8   -294342.12245  24134866.442    24134866.3204   24134874.8644
   -960429.478 9   -736952.35649  20075000.509    20075000.2964   20075006.3454
    449055.398 9    353773.23148  21264307.534    21264307.9564   21264313.1874
 00  4 29 13  8 45.0000000  0 10 26 27 19 11  2  7 31 18  8 13       0.000000046
  -2828092.058 8  -2168760.02445  23940656.672    23940657.0784   23940663.7344
   -575801.944 9   -441015.78449  20458692.785    20458692.7324   20458698.9974
   1485427.060 9   1155059.39447  23002777.977    23002777.9884   23002786.4774
  -1865536.715 9  -1434624.28546  23887441.905    23887441.8084   23887450.7494
  -1515239.610 9  -1165513.56248  21519523.719    21519523.3644   21519530.0614
  -3572424.376 9  -2755902.07247  22261902.293    22261901.9064   22261909.7314
   1893178.428 9   1466456.68445  24368076.956    24368076.9124   24368086.5164
   -311603.217 9   -249976.75345  24145700.913    24145700.8394   24145709.4104
   -959730.441 9   -736407.67249  20075133.558    20075133.3444   20075139.3974
    473842.707 9    373087.99148  21269024.384    21269024.8214   21269030.0814
 00  4 29 13  9  0.0000000  0 10 26 27 19 11  2  7 31 18  8 13       0.000000030
  -2867109.154 9  -2199162.99345  23933232.006    23933232.4184   23933239.0414
   -568703.486 9   -435484.54749  20460043.574    20460043.5274   20460049.7954
   1524318.567 9   1185364.38647  23010178.822    23010178.8244   23010187.3794
  -1882871.222 9  -1448131.72046  23884143.279    23884143.1614   23884152.1384
  -1524848.291 9  -1173000.87448  21517695.263    21517694.8904   21517701.5964
  -3615408.441 9  -2789396.16647  22253722.624    22253722.2894   22253730.1364
   1946441.335 9   1507960.16145  24378212.632    24378212.5644   24378222.2094
   -254658.474 9   -205604.29245  24156537.171    24156537.0974   24156545.6734
   -958938.024 9   -735790.22149  20075284.370    20075284.1504   20075290.2084
    498772.611 9    392513.86148  21273768.379    21273768.8364   21273774.0964
 00  4 29 13  9 15.0000000  0 10 26 27 19 11  2  7 31 18  8 13       0.000000017
  -2906033.493 9  -2229493.67845  23925824.960    23925825.3764   23925831.9794
   -561492.794 9   -429865.84649  20461415.728    20461415.6974   20461421.9654
   1563282.968 9   1215726.18146  23017593.501    23017593.5624   23017602.1644
  -1900116.544 9  -1461569.65146  23880861.642    23880861.4744   23880870.4644
  -1534414.839 9  -1180455.34648  21515874.806    21515874.4604   21515881.1604
  -3658312.461 9  -2822827.88547  22245558.249    22245557.9404   22245565.8074
   1999750.296 9   1549499.51245  24388357.060    24388356.9714   24388366.6394
   -197702.315 8   -161222.95145  24167375.574    24167375.4944   24167384.1784
   -958049.664 9   -735098.01149  20075453.414    20075453.2134   20075459.2644
    523842.698 9    412048.96448  21278539.093    21278539.5534   21278544.8154
 00  4 29 13  9 30.0000000  0 10 26 27 19 11  2  7 31 18  8 13       0.000000007
  -2944863.025 9  -2259750.47346  23918435.955    23918436.3514   23918442.9864
   -554175.074 9   -424163.75849  20462808.246    20462808.2124   20462814.4974
   1602319.123 9   1246143.88346  23025021.914    23025021.9794   23025030.6004
  -1917275.182 9  -1474940.03246  23877596.462    23877596.3644   23877605.3084
  -1543937.746 9  -1187875.81248  21514062.643    21514062.3044   21514069.0084
  -3701133.476 9  -2856194.91747  22237409.723    22237409.4324   22237417.2744
   2053106.594 9   1591075.76045  24398510.538    24398510.4924   24398520.0754
   -140736.176 8   -116833.83345  24178215.850    24178215.7794   24178224.5574
   -957065.900 9   -734331.46949  20075640.656    20075640.4634   20075646.5014
    549047.397 9    431688.95248  21283335.437    21283335.9034   21283341.1814
 00  4 29 13  9 45.0000000  0 10 26 27 19 11  2  7 31 18  8 13       0.000000001
  -2983597.139 9  -2289932.93346  23911065.133    23911065.5344   23911072.2174
   -546751.995 9   -418379.56449  20464220.824    20464220.8054   20464227.1114
   1641426.180 9   1276616.83046  23032463.786    23032463.8174   23032472.4304
  -1934346.356 9  -1488242.26946  23874347.922    23874347.8624   23874356.7974
  -1553418.228 9  -1195263.21148  21512258.592    21512258.2634   21512264.9464
  -3743873.282 9  -2889498.66747  22229276.647    22229276.3524   22229284.1714
   2106512.788 9   1632690.88545  24408673.534    24408673.5074   24408683.0744
    -83761.462 8    -72438.03745  24189057.783    24189057.7434   24189066.4784
   -955987.749 9   -733491.37149  20075845.881    20075845.6814   20075851.7084
    574381.046 9    451429.43048  21288156.282    21288156.7264   21288162.0184
 00  4 29 13 10  0.0000000  0 10 26 27 19 11  2  7 31 18  8 13      -0.000000000
  -3022239.657 9  -2320044.01046  23903711.747    23903712.1444   23903718.8384
   -539227.370 9   -412516.24949  20465652.721    20465652.7134   20465659.0454
   1680601.364 9   1307142.87346  23039918.618    23039918.6764   23039927.3174
  -1951327.516 9  -1501474.37146  23871116.615    23871116.5704   23871125.4084
  -1562855.485 9  -1202616.92948  21510462.734    21510462.4174   21510469.0964
  -3786533.790 9  -2922740.62947  22221158.674    22221158.3524   22221166.1764
   2159971.373 9   1674346.82545  24418846.461    24418846.4444   24418856.0934
    -26777.026 9    -28034.66845  24199901.593    24199901.6264   24199910.3454
   -954816.653 9   -732578.85049  20076068.775    20076068.5674   20076074.5854
    599838.656 9    471266.49748  21293000.728    21293001.1924   21293006.4794
 00  4 29 13 10 15.0000000  0 10 26 27 19 11  2  7 31 18  8 13       0.000000003
  -3060795.608 9  -2350087.63546  23896374.860    23896375.2534   23896381.9364
   -531604.116 9   -406576.08049  20467103.382    20467103.3794   20467109.7314
   1719842.251 9   1337720.10246  23047385.890    23047386.0264   23047394.6934
  -1968216.440 9  -1514634.58546  23867902.871    23867902.8344   23867911.5814
  -1572248.398 9  -1209936.09148  21508675.354    21508675.0444   21508681.7094
  -3829114.930 9  -2955920.73547  22213055.837    22213055.4924   22213063.3184
   2213481.095 9   1716042.61345  24429029.084    24429029.0954   24429038.6844
     30218.469 9     16377.32545  24210747.530    24210747.5184   24210756.2404
   -953555.825 9   -731596.41649  20076308.719    20076308.5114   20076314.5194
    625416.877 9    491197.54848  21297868.106    21297868.5724   21297873.8674
 00  4 29 13 10 30.0000000  0 10 26 27 19 11  2  7 31 18  8 13       0.000000008
  -3099268.058 9  -2380066.19146  23889053.867    23889054.2324   23889060.9314
   -523886.378 9   -400562.28649  20468572.017    20468572.0124   20468578.3774
   1759143.391 9   1368344.28646  23054864.691    23054864.8494   23054873.5034
  -1985014.643 9  -1527724.12746  23864706.309    23864706.2274   23864714.9734
  -1581597.038 9  -1217220.76048  21506896.384    21506896.0664   21506902.7214
  -3871616.799 9  -2989039.08447  22204968.056    22204967.7114   22204975.4984
   2267038.138 9   1757775.28745  24439220.721    24439220.6004   24439230.3104
     87219.500 9     60793.64245  24221594.586    24221594.5584   24221603.2354
   -952207.249 9   -730545.60349  20076565.393    20076565.1934   20076571.2014
    651112.294 9    511219.91948  21302757.802    21302758.2674   21302763.5814
 00  4 29 13 10 45.0000000  0 10 26 27 19 11  2  7 31 18  8 13       0.000000015
  -3137655.305 9  -2409978.34846  23881749.065    23881749.4194   23881756.1144
   -516076.291 9   -394476.52849  20470058.278    20470058.2734   20470064.6394
   1798501.086 9   1399012.53946  23062354.275    23062354.3944   23062363.1074
  -2001719.536 9  -1540740.96046  23861527.439    23861527.3984   23861536.1554
  -1590903.036 9  -1224472.20248  21505125.516    21505125.2014   21505131.8574
  -3914042.110 9  -3022097.77547  22196894.828    22196894.4794   22196902.2004
   2320644.175 9   1799546.13845  24449421.735    24449421.6074   24449431.4274
    144221.254 9    105210.51545  24232441.742    24232441.7294   24232450.3634
   -950768.449 9   -729424.48549  20076839.171    20076838.9844   20076845.0054
    676922.726 9    531331.91248  21307669.376    21307669.8574   21307675.1874
 00  4 29 13 11  0.0000000  0 10 26 27 19 11  2  7 31 18  8 13       0.000000022
  -3175956.837 9  -2439823.72546  23874460.526    23874460.9154   23874467.6224
   -508175.530 9   -388320.12049  20471561.746    20471561.7334   20471568.1094
   1837914.026 9   1429723.83246  23069854.360    23069854.4624   23069863.2254
  -2018327.748 9  -1553682.44546  23858366.975    23858366.8964   23858375.7414
  -1600168.816 9  -1231692.30548  21503362.313    21503361.9924   21503368.6454
  -3956392.723 9  -3055098.25847  22188835.823    22188835.4694   22188843.1604
   2374298.824 8   1841354.87045  24459631.969    24459631.8094   24459641.6934
    201220.823 9    149625.68145  24243288.447    24243288.4404   24243297.1064
   -949238.397 9   -728232.26249  20077130.329    20077130.1424   20077136.1974
    702848.311 9    551533.63748  21312602.866    21312603.3524   21312608.7004
 00  4 29 13 11 15.0000000  0 10 26 27 19 11  2  7 31 18  8 13       0.000000031
  -3214172.125 9  -2469601.89746  23867188.412    23867188.7394   23867195.5284
   -500186.327 9   -382094.79349  20473082.056    20473082.0404   20473088.4234
   1877382.928 9   1460478.73546  23077365.094    23077365.2124   23077374.0014
  -2034839.551 9  -1566548.81646  23855224.883    23855224.8424   23855233.7074
  -1609396.556 9  -1238882.75948  21501606.342    21501606.0284   21501612.6884
  -3998669.396 9  -3088041.12347  22180790.889    22180790.5284   22180798.2044
   2428001.042 9   1883200.66945  24469851.227    24469851.0744   24469860.9614
    258217.084 9    194038.27445  24254134.510    24254134.5824   24254143.2604
   -947616.681 9   -726968.60749  20077438.926    20077438.7384   20077444.8264
    728887.748 9    571824.07448  21317558.058    21317558.5414   21317563.8914
 00  4 29 13 11 30.0000000  0 10 26 27 19 11  2  7 31 18  8 13       0.000000039
  -3252301.844 9  -2499313.37946  23859932.590    23859932.8924   23859939.8184
   -492107.133 9   -375799.34549  20474619.483    20474619.4764   20474625.8634
   1916910.319 9   1491279.21546  23084886.949    23084887.0354   23084895.8964
  -2051257.157 9  -1579341.77246  23852100.770    23852100.6644   23852109.5634
  -1618588.671 9  -1246045.45848  21499857.144    21499856.8394   21499863.5084
  -4040871.473 9  -3120925.86047  22172760.154    22172759.7674   22172767.4454
   2481748.635 8   1925081.83645  24480079.138    24480078.9744   24480088.7654
    315207.057 8    238445.97145  24264979.388    24264979.4544   24264988.1884
   -945904.329 9   -725634.32449  20077764.766    20077764.5934   20077770.6774
    755040.852 9    592203.08848  21322534.873    21322535.3464   21322540.6834
 00  4 29 13 11 45.0000000  0 10 26 27 19 11  2  7 31 18  8 13       0.000000046
  -3290348.036 9  -2528959.77646  23852692.617    23852692.9844   23852699.9194
   -483933.974 9   -369430.68049  20476174.810    20476174.8094   20476181.1924
   1956497.975 9   1522126.65346  23092420.270    23092420.3704   23092429.2744
  -2067579.277 9  -1592060.32746  23848994.810    23848994.6844   23849003.5704
  -1627747.921 9  -1253182.54448  21498114.227    21498113.9154   21498120.5854
  -4082999.186 9  -3153752.65247  22164743.554    22164743.1584   22164750.8524
   2535539.621 8   1966996.82345  24490315.297    24490315.0584   24490324.9654
    372190.202 8    282848.33845  24275822.934    24275823.0274   24275831.7364
   -944103.584 9   -724231.16649  20078107.440    20078107.2664   20078113.3624
    781310.795 9    612673.13948  21327533.946    21327534.4054   21327539.7314
 00  4 29 13 12  0.0000000  0 10 26 27 19 11  2  7 31 18  8 13       0.000000052
  -3328312.263 9  -2558542.32246  23845468.380    23845468.6654   23845475.6874
   -475666.050 9   -362988.17049  20477748.195    20477748.1704   20477754.5574
   1996144.808 9   1553020.19846  23099964.877    23099964.9674   23099973.9224
  -2083803.689 9  -1604702.76146  23845907.414    23845907.2624   23845916.1584
  -1636877.343 9  -1260296.39448  21496376.998    21496376.6684   21496383.3504
  -4125052.624 9  -3186521.56647  22156741.062    22156740.6774   22156748.3604
   2589369.161 8   2008941.84745  24500558.826    24500558.5764   24500568.4644
    429168.330 9    327246.80345  24286665.558    24286665.6814   24286674.3544
   -942214.983 9   -722759.55749  20078466.872    20078466.6874   20078472.7904
    807699.534 9    633235.76248  21332555.609    21332556.0594   21332561.3954
 00  4 29 13 12 15.0000000  0 10 26 27 19 11  2  7 31 18  8 13       0.000000055
  -3366191.721 9  -2588058.78946  23838260.148    23838260.4964   23838267.5134
   -467301.512 9   -356470.37649  20479339.916    20479339.8984   20479346.3034
   2035852.156 9   1583960.90846  23107521.050    23107521.1264   23107530.0944
  -2099932.017 9  -1617270.30846  23842838.320    23842838.1964   23842847.1364
  -1645978.098 9  -1267387.91148  21494645.218    21494644.8874   21494651.5594
  -4167031.018 9  -3219232.00447  22148752.861    22148752.4584   22148760.1354
   2643234.296 8   2050914.58745  24510809.149    24510808.8604   24510818.7194
    486143.444 9    371642.90545  24297507.611    24297507.6954   24297516.4384
   -940236.797 9   -721218.14049  20078843.330    20078843.1464   20078849.2534
    834210.355 9    653893.51448  21337600.479    21337600.9364   21337606.2714
 00  4 29 13 12 30.0000000  0 10 26 27 19 11  2  7 31 18  8 13       0.000000055
  -3403982.714 9  -2617506.34546  23831068.763    23831069.1344   23831076.1234
   -458836.494 9   -349874.28249  20480950.787    20480950.7634   20480957.1744
   2075618.690 9   1614947.73246  23115088.467    23115088.5064   23115097.4144
  -2115966.751 9  -1629764.93746  23839787.037    23839786.9294   23839795.8854
  -1655051.590 9  -1274458.17748  21492918.622    21492918.2824   21492924.9544
  -4208933.630 9  -3251883.40447  22140779.016    22140778.6384   22140786.3064
   2697130.621 8   2092911.64045  24521065.355    24521065.0304   24521074.9244
    543115.676 9    416036.78245  24308349.143    24308349.2094   24308357.9854
   -938166.543 9   -719604.98049  20079237.307    20079237.1234   20079243.2264
    860845.172 9    674647.88848  21342668.926    21342669.3674   21342674.7214
 00  4 29 13 12 45.0000000  0 10 26 27 19 11  2  7 31 18  8 13       0.000000055
  -3441677.925 9  -2646879.26646  23823895.621    23823896.0304   23823902.9274
   -450267.508 9   -343197.17549  20482581.459    20482581.4144   20482587.8194
   2115444.615 9   1645980.83246  23122667.186    23122667.2704   23122676.0834
  -2131906.893 9  -1642185.86046  23836753.715    23836753.5794   23836762.7024
  -1664100.266 9  -1281509.11348  21491196.706    21491196.3644   21491203.0514
  -4250759.279 9  -3284474.82047  22132819.815    22132819.4584   22132827.0994
   2751059.732 8   2134934.26345  24531327.753    24531327.4254   24531337.3914
    600087.276 9    460430.15445  24319190.594    24319190.6144   24319199.3854
   -936001.472 9   -717917.92749  20079649.355    20079649.1684   20079655.2854
    887604.017 9    695498.90548  21347761.008    21347761.4524   21347766.8004
 00  4 29 13 13  0.0000000  0 10 26 27 19 11  2  7 31 18  8 13       0.000000049
  -3479275.414 9  -2676176.04646  23816741.179    23816741.5434   23816748.3494
   -441592.738 9   -336437.64249  20484232.254    20484232.1914   20484238.6084
   2155336.499 9   1677065.32946  23130258.412    23130258.5054   23130267.2924
  -2147753.081 9  -1654533.57646  23833738.314    23833738.2064   23833747.3314
  -1673126.546 9  -1288542.59148  21489479.085    21489478.7334   21489485.4284
  -4292503.505 9  -3317002.79548  22124876.141    22124875.7774   22124883.4244
   2805022.717 8   2176983.23945  24541596.603    24541596.3464   24541606.4074
    657063.399 9    504827.06245  24330032.910    24330032.8694   24330041.6164
   -933741.975 9   -716157.30449  20080079.354    20080079.1704   20080085.2914
    914488.840 9    716448.08348  21352877.081    21352877.5104   21352882.8494
 00  4 29 13 13 15.0000000  0 10 26 27 19 11  2  7 31 18  8 13       0.000000051
  -3516779.451 9  -2705399.99946  23809604.464    23809604.7644   23809611.5974
   -432813.287 9   -329596.54049  20485902.991    20485902.9144   20485909.3284
   2195293.695 9   1708200.72046  23137862.082    23137862.1614   23137870.9334
  -2163509.334 9  -1666811.20446  23830740.027    23830739.9024   23830749.1174
  -1682130.495 9  -1295558.67048  21487765.693    21487765.3394   21487772.0344
  -4334165.888 9  -3349467.00548  22116948.044    22116947.7064   22116955.3604
   2859017.237 8   2219056.79445  24551871.462    24551871.2124   24551881.3084
    714045.872 9    549228.91445  24340876.440    24340876.3414   24340885.0674
   -931388.806 9   -714323.69149  20080527.178    20080526.9804   20080533.1254
    941498.794 9    737494.76448  21358016.936    21358017.3524   21358022.6634
 00  4 29 13 13 30.0000000  0 10 26 27 19 11  2  7 31 18  8 13       0.000000054
  -3554191.070 9  -2734551.95046  23802485.245    23802485.6124   23802492.3984
   -423928.472 9   -322673.33149  20487593.744    20487593.6444   20487600.0774
   2235316.349 9   1739387.12746  23145478.217    23145478.2794   23145487.0114
  -2179176.396 9  -1679019.32646  23827758.697    23827758.5274   23827767.7924
  -1691110.458 9  -1302556.05548  21486056.908    21486056.5334   21486063.2334
  -4375747.062 9  -3381867.92548  22109035.414    22109035.0734   22109042.7234
   2913041.597 8   2261153.61345  24562151.981    24562151.7064   24562161.9014
    771035.912 9    593636.66745  24351721.330    24351721.1844   24351729.9594
   -928941.802 9   -712416.95849  20080992.866    20080992.6584   20080998.8044
    968631.396 9    758637.02248  21363180.177    21363180.5784   21363185.8824
 00  4 29 13 13 45.0000000  0 10 26 27 19 11  2  7 31 18  8 13       0.000000059
  -3591509.152 9  -2763630.99646  23795383.833    23795384.2284   23795390.9704
   -414938.691 9   -315668.33549  20489304.484    20489304.3894   20489310.8294
   2275403.640 9   1770623.89846  23153106.647    23153106.7274   23153115.4444
  -2194750.993 9  -1691155.40646  23824794.991    23824794.8084   23824804.0354
  -1700063.765 9  -1309532.67248  21484353.184    21484352.7924   21484359.4934
  -4417248.353 9  -3414206.60048  22101138.031    22101137.6814   22101145.3234
   2967096.008 8   2303273.86045  24572438.220    24572437.9454   24572448.1974
    828034.521 9    638051.09545  24362567.884    24362567.7644   24362576.5774
   -926401.336 9   -710437.39249  20081476.344    20081476.1234   20081482.2654
    995886.505 9    779874.73648  21368366.680    21368367.0774   21368372.3634
 00  4 29 13 14  0.0000000  0 10 26 27 19 11  2  7 31 18  8 13       0.000000067
  -3628733.165 9  -2792636.74646  23788300.395    23788300.7724   23788307.5114
   -405850.589 9   -308586.72649  20491033.941    20491033.8424   20491040.2804
   2315554.470 9   1801910.17546  23160747.199    23160747.2784   23160755.9604
  -2210230.558 9  -1703217.43746  23821849.357    23821849.1774   23821858.4074
  -1708988.556 9  -1316487.06948  21482654.893    21482654.4784   21482661.1664
  -4458673.251 9  -3446485.74848  22093255.184    22093254.7884   22093262.4134
   3021180.636 8   2345417.65045  24582730.265    24582729.9404   24582740.3234
    885041.885 9    682472.32745  24373416.042    24373415.9164   24373424.7874
   -923766.287 9   -708384.12049  20081977.805    20081977.5664   20081983.7164
   1023262.975 9    801207.02048  21373576.294    21373576.6904   21373581.9614
 00  4 29 13 14 15.0000000  0 10 26 27 19 11  2  7 31 18  8 13       0.000000078
  -3665864.093 9  -2821569.97546  23781234.685    23781235.0244   23781241.8444
   -396668.152 9   -301431.61049  20492781.320    20492781.2234   20492787.6624
   2355766.786 9   1833244.36046  23168399.458    23168399.5304   23168408.1684
  -2225618.779 9  -1715208.29646  23818921.099    23818920.9344   23818930.2144
  -1717882.142 9  -1323417.15548  21480962.529    21480962.1194   21480968.8074
  -4500021.866 9  -3478705.45148  22085386.868    22085386.4554   22085394.0724
   3075295.914 8   2387585.32645  24593028.118    24593027.8014   24593038.2204
    942054.818 9    726897.91245  24384265.279    24384265.2744   24384274.0354
   -921036.718 9   -706257.20649  20082497.281    20082497.0274   20082503.1864
   1050758.373 9    822631.97648  21378808.568    21378808.9584   21378814.2364
 00  4 29 13 14 30.0000000  0 10 26 27 19 11  2  7 31 18  8 13       0.000000089
  -3702905.956 9  -2850433.77746  23774185.915    23774186.2134   23774193.0824
   -387389.996 9   -294201.90749  20494546.951    20494546.8404   20494553.2844
   2396038.202 9   1864624.59446  23176062.983    23176063.0454   23176071.6584
  -2240916.883 9  -1727128.92746  23816009.977    23816009.7894   23816019.1314
  -1726742.772 9  -1330321.55948  21479276.444    21479276.0274   21479282.7244
  -4541294.012 9  -3510865.56648  22077533.103    22077532.6624   22077540.2854
   3129444.146 8   2429778.66545  24603332.264    24603331.9474   24603342.3784
    999069.282 9    771324.68045  24395114.895    24395114.8534   24395123.6664
   -918211.836 9   -704056.02649  20083034.866    20083034.6044   20083040.7704
   1078370.667 9    844148.01948  21384063.037    21384063.4114   21384068.7054
 00  4 29 13 14 45.0000000  0 10 26 27 19 11  2  7 31 18  8 13       0.000000097
  -3739859.927 9  -2879229.10946  23767153.797    23767154.0824   23767161.0154
   -378016.647 9   -286898.03349  20496330.643    20496330.5364   20496336.9764
   2436369.688 9   1896051.63846  23183737.947    23183737.9824   23183746.5734
  -2256122.485 9  -1738977.49146  23813116.490    23813116.3034   23813125.6714
  -1735567.627 9  -1337198.08648  21477597.146    21477596.7294   21477603.4294
  -4582487.279 9  -3542964.21748  22069694.296    22069693.8494   22069701.4954
   3183627.865 8   2471999.66245  24613643.197    24613642.8994   24613653.2914
   1056083.167 9    815751.00145  24405964.415    24405964.4324   24405973.0054
   -915292.459 9   -701781.21349  20083590.442    20083590.1804   20083596.3524
   1106101.803 9    865756.66648  21389340.139    21389340.5184   21389345.8114
 00  4 29 13 15  0.0000000  0 10 26 27 19 11  2  7 31 18  8 13       0.000000103
  -3776729.394 9  -2907958.58346  23760137.764    23760138.0694   23760145.0144
   -368550.715 9   -279522.01249  20498131.976    20498131.8784   20498138.3114
   2476764.069 9   1927527.69846  23191424.820    23191424.8204   23191433.4174
  -2271234.118 9  -1750752.82046  23810240.889    23810240.6734   23810250.0544
  -1744355.014 9  -1344045.41848  21475924.974    21475924.5474   21475931.2564
  -4623601.450 9  -3575001.24048  22061870.519    22061870.0954   22061877.7204
   3237848.414 9   2514249.36845  24623961.151    24623960.8164   24623971.1434
   1113093.964 9    860174.93445  24416813.315    24416813.1824   24416821.8424
   -912278.968 9   -699433.05849  20084163.964    20084163.6834   20084169.8564
   1133955.013 9    887460.43148  21394640.464    21394640.8384   21394646.1324
 00  4 29 13 15 15.0000000  0 10 26 27 19 11  2  7 31 18  8 13       0.000000106
  -3813516.473 9  -2936623.85146  23753137.439    23753137.7854   23753144.7274
   -358992.556 9   -272074.13149  20499950.876    20499950.7694   20499957.1874
   2517219.874 9   1959051.61346  23199123.400    23199123.3414   23199132.0584
  -2286248.373 9  -1762452.27346  23807383.835    23807383.6514   23807393.0444
  -1753099.328 9  -1350859.18748  21474261.025    21474260.5994   21474267.2974
  -4664637.539 9  -3606977.41648  22054061.629    22054061.2114   22054068.8504
   3292104.394 8   2556526.68045  24634285.899    24634285.5194   24634295.7204
   1170100.425 9    904595.48345  24427661.376    24427661.2614   24427669.9234
   -909170.951 9   -697011.24549  20084755.422    20084755.1134   20084761.3074
   1161932.684 9    909261.18048  21399964.471    21399964.8624   21399970.1434
 00  4 29 13 15 30.0000000  0 10 26 27 19 11  2  7 31 18  8 13       0.000000105
  -3850218.771 9  -2965223.06846  23746153.349    23746153.6704   23746160.6284
   -349338.531 9   -264551.54149  20501788.024    20501787.8974   20501794.2934
   2557734.712 9   1990621.52946  23206833.180    23206833.1134   23206841.8714
  -2301162.366 9  -1774073.60346  23804545.857    23804545.6364   23804555.0454
  -1761798.924 9  -1357638.11348  21472605.577    21472605.1354   21472611.8484
  -4705597.789 9  -3638894.49248  22046267.141    22046266.7074   22046274.3904
   3346394.768 8   2598830.79645  24644617.097    24644616.7064   24644626.8424
   1227097.815 9    949008.95845  24438507.709    24438507.6334   24438516.2214
   -905967.897 9   -694515.38049  20085364.952    20085364.6514   20085370.8524
   1190033.788 9    931158.11848  21405311.997    21405312.3804   21405317.6434
 00  4 29 13 15 45.0000000  0 10 26 27 19 11  2  7 31 18  8 13       0.000000101
  -3886831.002 9  -2993752.09946  23739186.265    23739186.5634   23739193.6564
   -339586.588 9   -256952.65249  20503643.820    20503643.6834   20503650.0644
   2598309.240 9   2022237.96446  23214554.277    23214554.2384   23214563.0734
  -2315974.973 9  -1785615.91446  23801727.106    23801726.8674   23801736.3784
  -1770454.153 9  -1364382.46448  21470958.580    21470958.1254   21470964.8504
  -4746480.686 9  -3670751.30248  22038487.407    22038486.9434   22038494.6504
   3400721.027 8   2641162.87545  24654955.144    24654954.7494   24654964.9034
   1284084.809 9    993414.33445  24449352.019    24449351.9764   24449360.5694
   -902670.799 9   -691946.23749  20085992.397    20085992.0874   20085998.2964
   1218259.053 9    953151.80548  21410683.135    21410683.5124   21410688.7594
 00  4 29 13 16  0.0000000  0 10 26 27 19 11  2  7 31 18  8 13       0.000000095
  -3923352.387 9  -3022210.33546  23732236.430    23732236.8044   23732243.9054
   -329734.852 9   -249276.00249  20505518.556    20505518.4254   20505524.8044
   2638943.067 9   2053900.59946  23222286.695    23222286.6464   23222295.5254
  -2330687.228 9  -1797080.05246  23798927.449    23798927.2354   23798936.7394
  -1779065.528 9  -1371092.64148  21469319.888    21469319.4304   21469326.1634
  -4787283.775 9  -3702545.93148  22030722.813    22030722.3094   22030730.0224
   3455083.972 8   2683523.52845  24665300.145    24665299.7584   24665309.9014
   1341061.060 9   1037811.33645  24460194.280    24460194.2394   24460202.8624
   -899280.331 9   -689304.33249  20086637.592    20086637.2804   20086643.4984
   1246609.592 9    975243.10848  21416078.128    21416078.4874   21416083.7314
 00  4 29 13 16 15.0000000  0 10 26 27 19 11  2  7 31 18  8 13       0.000000086
  -3959783.197 9  -3050598.00746  23725303.857    23725304.1944   23725311.3444
   -319778.914 9   -241518.15649  20507413.129    20507413.0034   20507419.3904
   2679633.336 9   2085607.21846  23230029.848    23230029.7854   23230038.7474
  -2345300.920 9  -1808467.37046  23796146.563    23796146.3904   23796155.8194
  -1787633.624 9  -1377769.10448  21467689.456    21467688.9984   21467695.7354
  -4828005.008 9  -3734276.78248  22022973.772    22022973.3034   22022981.0514
   3509481.150 8   2725910.85545  24675651.619    24675651.1834   24675661.3774
   1398026.221 9   1082199.68545  24471034.392    24471034.3064   24471043.0024
   -895797.155 9   -686590.19349  20087300.409    20087300.0824   20087306.3224
   1275085.674 9    997432.23248  21421496.978    21421497.3364   21421502.5684
 00  4 29 13 16 30.0000000  0 10 26 27 19 11  2  7 31 18  8 13       0.000000072
  -3996124.237 9  -3078915.72346  23718388.436    23718388.7714   23718395.9314
   -309711.388 9   -233673.35349  20509328.951    20509328.8274   20509335.2174
   2720380.452 9   2117358.11646  23237783.847    23237783.7574   23237792.7964
  -2359813.959 9  -1819776.26346  23793384.872    23793384.6824   23793394.0004
  -1796159.374 9  -1384412.55748  21466067.069    21466066.6014   21466073.3534
  -4868643.355 9  -3765943.03948  22015240.461    22015240.0374   22015247.8204
   3563911.147 8   2768323.74245  24686009.308    24686008.8914   24686019.1594
   1454983.740 9   1126582.08445  24481873.066    24481872.9924   24481881.8154
   -892221.005 9   -683803.60349  20087980.932    20087980.6204   20087986.8434
   1303686.113 9   1019718.26748  21426939.491    21426939.8484   21426945.0804
 00  4 29 13 16 45.0000000  0 10 26 27 19 11  2  7 31 18  8 13       0.000000059
  -4032369.412 9  -3107158.74046  23711491.269    23711491.5864   23711498.6944
   -299529.294 9   -225739.28349  20511266.574    20511266.4364   20511272.8254
   2761186.814 9   2149155.19446  23245549.149    23245549.0214   23245558.0734
  -2374223.018 9  -1831004.13846  23790642.933    23790642.7614   23790652.0984
  -1804647.360 9  -1391026.58548  21464451.875    21464451.4194   21464458.1784
  -4909198.707 9  -3797544.63348  22007523.008    22007522.5894   22007530.3854
   3618373.302 8   2810761.68645  24696373.155    24696372.7974   24696383.0184
   1511936.626 9   1170960.87145  24492710.937    24492710.8694   24492719.6884
   -888550.594 9   -680943.56649  20088679.404    20088679.0974   20088685.3044
   1332412.711 9   1042102.60348  21432406.009    21432406.3644   21432411.6264
 00  4 29 13 17  0.0000000  0 10 26 27 19 11  2  7 31 18  8 13       0.000000049
  -4068513.567 9  -3135323.05046  23704613.270    23704613.5774   23704620.6864
   -289233.308 9   -217716.46549  20513225.868    20513225.7194   20513232.1084
   2802053.189 9   2180999.03246  23253325.816    23253325.6984   23253334.8254
  -2388526.055 9  -1842149.39746  23787921.197    23787921.0244   23787930.2964
  -1813098.775 9  -1397612.11848  21462843.631    21462843.1734   21462849.9464
  -4949672.516 9  -3829082.67548  21999821.115    21999820.6814   21999828.5144
   3672865.876 8   2853223.34545  24706742.750    24706742.3384   24706752.7464
   1568887.677 9   1215338.22845  24503548.475    24503548.3664   24503557.2874
   -884788.066 9   -678011.75249  20089395.420    20089395.1014   20089401.2944
   1361264.248 9   1064584.29148  21437896.297    21437896.6434   21437901.9274
 00  4 29 13 17 15.0000000  0 10 26 27 19 11  2  7 31 18  8 13       0.000000042
  -4104555.968 9  -3163408.06446  23697754.682    23697755.0054   23697762.0174
   -278823.880 9   -209605.25249  20515206.744    20515206.5984   20515212.9864
   2842977.115 9   2212887.72146  23261113.376    23261113.2864   23261122.4684
  -2402725.044 9  -1853213.58046  23785219.230    23785219.0654   23785228.3514
  -1821514.532 9  -1404169.86248  21461242.166    21461241.7014   21461248.4744
  -4990066.828 9  -3860558.76248  21992134.387    21992133.9234   21992141.7604
   3727388.533 8   2895708.45145  24717118.128    24717117.7354   24717128.1184
   1625838.485 9   1259715.39845  24514385.978    24514385.7944   24514394.7974
   -880933.242 9   -675008.01149  20090129.031    20090128.6934   20090134.8794
   1390236.055 9   1087159.69248  21443409.441    21443409.7864   21443415.0994
 00  4 29 13 17 30.0000000  0 10 26 27 19 11  2  7 31 18  8 13       0.000000038
  -4140494.445 9  -3191412.10746  23690915.861    23690916.1604   23690923.1664
   -268300.828 9   -201405.49849  20517209.247    20517209.0924   20517215.4974
   2883957.496 9   2244820.39746  23268911.748    23268911.6674   23268920.8984
  -2416823.735 9  -1864199.60146  23782536.414    23782536.2334   23782545.5064
  -1829897.530 9  -1410702.08748  21459646.935    21459646.4764   21459653.2454
  -5030381.643 9  -3891972.90148  21984462.772    21984462.2844   21984470.1434
   3781940.771 8   2938216.61045  24727499.218    24727498.9184   24727509.1524
   1682788.653 8   1304092.06545  24525223.332    24525223.1714   24525232.0704
   -876985.810 9   -671932.11049  20090880.214    20090879.8634   20090886.0344
   1419323.542 9   1109825.23948  21448944.639    21448944.9944   21448950.3314
 00  4 29 13 17 45.0000000  0 10 26 27 19 11  2  7 31 18  8 13       0.000000038
  -4176329.866 9  -3219335.84346  23684096.667    23684096.9904   23684103.9534
   -257664.625 9   -193117.57149  20519233.259    20519233.1004   20519239.5174
   2924997.077 9   2276799.19746  23276721.349    23276721.2814   23276730.5864
  -2430825.574 9  -1875110.16146  23779872.027    23779871.7474   23779881.0764
  -1838249.447 9  -1417210.08648  21458057.652    21458057.1764   21458063.9404
  -5070615.867 9  -3923324.24348  21976806.434    21976805.9744   21976813.8294
   3836524.920 8   2980749.65945  24737886.431    24737886.1574   24737896.2184
   1739739.421 8   1348469.20545  24536060.801    24536060.6094   24536069.4934
   -872946.478 9   -668784.59549  20091648.862    20091648.5114   20091654.7024
   1448524.234 9   1132578.99948  21454501.363    21454501.7074   21454507.0814
 00  4 29 13 18  0.0000000  0 10 26 27 19 11  2  7 31 18  8 13       0.000000041
  -4212063.555 9  -3247180.31446  23677296.790    23677297.1384   23677304.0264
   -246920.442 9   -184745.50549  20521277.832    20521277.6854   20521284.1124
   2966093.657 9   2308822.41346  23284541.808    23284541.7474   23284551.1114
  -2444731.959 9  -1885946.32646  23777225.719    23777225.4794   23777234.8324
  -1846569.492 9  -1423693.25248  21456474.438    21456473.9724   21456480.7274
  -5110767.868 9  -3954611.52448  21969165.751    21969165.3134   21969173.1454
   3891138.490 8   3023305.63445  24748279.176    24748278.8924   24748288.9764
   1796691.781 8   1392847.58045  24546898.534    24546898.3564   24546907.3384
   -868814.468 9   -665564.86549  20092435.161    20092434.8274   20092441.0314
   1477837.299 9   1155420.32348  21460079.497    21460079.8264   21460085.2084
 00  4 29 13 18 15.0000000  0 10 26 27 19 11  2  7 31 18  8 13       0.000000047
  -4247697.060 9  -3274946.70646  23670516.019    23670516.3334   23670523.2304
   -236069.673 9   -176290.39149  20523342.699    20523342.5554   20523348.9894
   3007247.283 9   2340890.07246  23292373.183    23292373.1154   23292382.4824
  -2458541.056 9  -1896706.68746  23774597.916    23774597.7184   23774607.0684
  -1854859.238 9  -1430152.81448  21454896.969    21454896.4944   21454903.2634
  -5150838.998 9  -3985835.78848  21961540.456    21961540.0224   21961547.8634
   3945779.525 8   3065883.01245  24758677.096    24758676.7554   24758686.9064
   1853645.721 8   1437227.20045  24557736.558    24557736.3734   24557745.4874
   -864589.163 9   -662272.44149  20093239.237    20093238.9004   20093245.1284
   1507262.522 9   1178349.03948  21465678.950    21465679.2794   21465684.6554
 00  4 29 13 18 30.0000000  0 10 26 27 19 11  2  7 31 18  8 13       0.000000056
  -4283231.586 9  -3302635.98046  23663754.083    23663754.3344   23663761.1934
   -225115.842 9   -167754.96849  20525427.153    20525427.0224   20525433.4434
   3048459.522 9   2373003.40846  23300215.706    23300215.6464   23300225.0564
  -2472252.326 9  -1907390.82846  23771988.816    23771988.5944   23771997.9524
  -1863120.438 9  -1436590.12348  21453324.929    21453324.4534   21453331.2214
  -5190831.595 9  -4016998.85548  21953930.118    21953929.6814   21953937.4944
   4000447.927 8   3108481.70445  24769080.239    24769079.7934   24769090.0444
   1910600.428 8   1481607.39845  24568574.724    24568574.5704   24568583.7234
   -860268.020 9   -658905.33449  20094061.547    20094061.1914   20094067.4334
   1536798.794 9   1201364.29048  21471299.537    21471299.8584   21471305.2544
 00  4 29 13 18 45.0000000  0 10 26 27 19 11  2  7 31 18  8 13       0.000000067
  -4318666.098 9  -3330247.31146  23657011.143    23657011.3914   23657018.2324
   -214061.050 9   -159140.87649  20527530.842    20527530.7164   20527537.1634
   3089732.371 9   2405163.97046  23308069.753    23308069.6594   23308079.1064
  -2485866.339 9  -1917999.18246  23769398.167    23769397.9784   23769407.2884
  -1871354.955 9  -1443006.64948  21451757.954    21451757.4774   21451764.2374
  -5230744.785 9  -4048100.04348  21946334.960    21946334.4894   21946342.3014
   4055145.372 8   3151103.04145  24779488.916    24779488.3974   24779498.6304
   1967551.360 8   1525984.67145  24579412.193    24579412.0574   24579421.1614
   -855848.925 9   -655461.90349  20094902.475    20094902.1294   20094908.3764
   1566446.762 9   1224466.57248  21476941.370    21476941.7034   21476947.1004
 00  4 29 13 19  0.0000000  0 10 26 27 19 11  2  7 31 18  8 13       0.000000078
  -4354000.467 9  -3357780.60446  23650287.203    23650287.4674   23650294.3854
   -202909.399 9   -150451.30749  20529652.943    20529652.8074   20529659.2584
   3131064.662 9   2437370.84846  23315935.087    23315935.0044   23315944.4424
  -2499386.607 9  -1928534.49646  23766825.347    23766825.1694   23766834.4534
  -1879559.508 9  -1449399.82348  21450196.687    21450196.2284   21450202.9874
  -5270577.707 9  -4079138.68848  21938755.045    21938754.5764   21938762.3704
   4109873.357 8   3193748.16445  24789903.358    24789902.7884   24789912.9964
   2024492.589 8   1570354.37445  24590247.825    24590247.6954   24590256.6984
   -851333.400 9   -651943.33049  20095761.775    20095761.4244   20095767.6704
   1596207.018 9   1247656.34648  21482604.545    21482604.8824   21482610.2924
 00  4 29 13 19 15.0000000  0 10 26 27 19 11  2  7 31 18  8 13       0.000000087
  -4389238.982 9  -3385239.21346  23643581.582    23643581.8094   23643588.7644
   -191663.171 9   -141688.04349  20531793.087    20531792.9454   20531799.4104
   3172457.664 9   2469625.03646  23323811.966    23323811.9214   23323821.3644
  -2512814.871 9  -1938998.10246  23764270.052    23764269.9184   23764279.1514
  -1887728.498 9  -1455765.27648  21448642.195    21448641.7244   21448648.4994
  -5310327.952 9  -4110112.91348  21931190.843    21931190.3734   21931198.1564
   4164632.652 8   3236417.67845  24800323.707    24800323.1634   24800333.4954
   2081420.611 8   1614713.79245  24601080.950    24601080.7854   24601089.7014
   -846719.544 9   -648348.13449  20096639.784    20096639.4164   20096645.6744
   1626080.315 9   1270934.20848  21488289.240    21488289.5974   21488294.9804
 00  4 29 13 19 30.0000000  0 10 26 27 19 11  2  7 31 18  8 13       0.000000092
  -4424382.102 9  -3412623.49646  23636894.064    23636894.3184   23636901.2404
   -180322.665 9   -132851.31249  20533951.129    20533950.9814   20533957.4784
   3213911.578 9   2501926.69846  23331700.456    23331700.4094   23331709.8874
  -2526151.388 9  -1949390.21546  23761732.228    23761732.1454   23761741.3194
  -1895862.718 9  -1462103.64648  21447094.310    21447093.8364   21447100.6314
  -5349993.939 9  -4141021.48448  21923642.658    21923642.1984   21923649.9464
   4219422.658 8   3279111.13245  24810749.968    24810749.4464   24810759.7284
   2138332.235 8   1659060.44845  24611910.926    24611910.6694   24611919.7444
   -842005.460 9   -644674.84649  20097536.841    20097536.4954   20097542.7464
   1656069.552 9   1294302.41448  21493996.024    21493996.3564   21494001.7664
 00  4 29 13 19 45.0000000  0 10 26 27 19 11  2  7 31 18  8 13       0.000000094
  -4459429.732 9  -3439933.36446  23630224.776    23630225.0064   23630231.9104
   -168885.488 9   -123939.25549  20536127.591    20536127.4454   20536133.9594
   3255428.464 9   2534277.42846  23339600.979    23339600.9504   23339610.3404
  -2539392.642 9  -1959708.10246  23759212.601    23759212.4904   23759221.6184
  -1903961.474 9  -1468414.37748  21445553.154    21445552.7034   21445559.5054
  -5389573.362 9  -4171862.59548  21916110.997    21916110.5324   21916118.2524
   4274244.150 9   3321829.12645  24821182.249    24821181.7034   24821191.9074
   2195227.342 8   1703394.19145  24622737.747    24622737.4734   24622746.5914
   -837190.009 9   -640922.57449  20098453.209    20098452.8704   20098459.1134
   1686176.748 9   1317762.52548  21499725.251    21499725.5804   21499730.9804
 00  4 29 13 20  0.0000000  0 10 26 27 19 11  2  7 31 18  8 13       0.000000093
  -4494380.763 9  -3467167.95746  23623573.865    23623574.0604   23623581.0124
   -157351.664 9   -114951.88749  20538322.412    20538322.2654   20538328.8084
   3297006.788 9   2566676.02746  23347513.175    23347513.1234   23347522.5364
  -2552536.803 9  -1969950.33146  23756711.383    23756711.2714   23756720.3954
  -1912023.465 9  -1474696.45648  21444019.037    21444018.5654   21444025.3824
  -5429066.550 9  -4202636.51648  21908595.698    21908595.2254   21908602.9264
   4329096.815 8   3364571.41645  24831620.404    24831619.8874   24831630.0684
   2252105.406 8   1747714.67045  24633561.271    24633561.0704   24633570.2674
   -832272.358 9   -637090.66049  20099389.049    20099388.7034   20099394.9524
   1716403.639 9   1341315.91548  21505477.282    21505477.5984   21505483.0214
 00  4 29 13 20 15.0000000  0 10 26 27 19 11  2  7 31 18  8 13       0.000000089
  -4529232.732 9  -3494325.35946  23616941.752    23616942.0014   23616948.9434
   -145718.752 9   -105887.31549  20540536.104    20540535.9534   20540542.5304
   3338647.257 9   2599123.06146  23355437.152    23355437.0974   23355446.5234
  -2565580.628 9  -1980114.37746  23754229.214    23754229.1394   23754238.2504
  -1920050.471 9  -1480951.28248  21442491.588    21442491.1024   21442497.9364
  -5468473.216 9  -4233343.02148  21901096.837    21901096.3874   21901104.0814
   4383981.788 8   3407338.85945  24842064.740    24842064.2764   24842074.3934
   2308966.333 8   1792021.78845  24644381.512    24644381.3304   24644390.6614
   -827250.599 9   -633177.62749  20100344.667    20100344.3214   20100350.5894
   1746753.964 9   1364965.47948  21511252.757    21511253.0894   21511258.5244
 00  4 29 13 20 30.0000000  0 10 26 27 19 11  2  7 31 18  8 13       0.000000083
  -4563985.839 9  -3521405.72346  23610328.538    23610328.7894   23610335.7014
   -133983.498 9    -96742.98549  20542769.247    20542769.1074   20542775.7064
   3380351.517 9   2631619.78346  23363373.276    23363373.2434   23363382.7294
  -2578525.061 9  -1990200.96346  23751766.020    23751765.8954   23751775.0714
  -1928042.754 9  -1487179.04948  21440970.684    21440970.2154   21440977.0444
  -5507793.208 9  -4263981.98648  21893614.499    21893614.0764   21893621.7454
   4438902.094 8   3450133.83345  24852515.768    24852515.3314   24852525.4644
   2365810.365 8   1836315.74845  24655198.598    24655198.4614   24655207.6764
   -822124.529 9   -629183.30149  20101320.122    20101319.7864   20101326.0674
   1777227.488 9   1388711.04748  21517051.684    21517052.0254   21517057.4904
 00  4 29 13 20 45.0000000  0 10 26 27 19 11  2  7 31 18  8 13       0.000000074
  -4598639.514 9  -3548408.60746  23603734.222    23603734.4144   23603741.3664
   -122143.678 9    -87517.18149  20545022.300    20545022.1674   20545028.7844
   3422120.853 9   2664167.22646  23371321.742    23371321.7114   23371331.2384
  -2591370.601 9  -2000210.50246  23749321.645    23749321.4874   23749330.7464
  -1935998.600 9  -1493378.43048  21439456.761    21439456.2834   21439463.1454
  -5547022.390 9  -4294550.18948  21886149.447    21886149.0144   21886156.6734
   4493858.684 9   3492957.08945  24862973.713    24862973.2224   24862983.5294
   2422637.016 8   1880596.17745  24666012.373    24666012.2754   24666021.5764
   -816894.396 9   -625107.89349  20102315.401    20102315.0774   20102321.3754
   1807824.036 9   1412552.47648  21522874.036    21522874.3744   21522879.8764
 00  4 29 13 21  0.0000000  0 10 26 27 19 11  2  7 31 18  8 13       0.000000063
  -4633191.099 9  -3575331.95446  23597159.283    23597159.4764   23597166.4294
   -110197.828 9    -78208.75049  20547295.544    20547295.4134   20547302.0324
   3463955.785 9   2696765.77946  23379282.729    23379282.6794   23379292.2514
  -2604115.455 9  -2010141.57146  23746896.359    23746896.1864   23746905.5154
  -1943916.691 9  -1499548.38648  21437949.987    21437949.5064   21437956.3804
  -5586160.800 9  -4325047.66748  21878701.687    21878701.2404   21878708.9094
   4548851.695 8   3535808.71545  24873438.540    24873438.1274   24873448.4834
   2479447.542 8   1924864.02345  24676823.051    24676823.0014   24676832.3094
   -811561.660 9   -620952.53249  20103330.186    20103329.8744   20103336.1914
   1838542.336 9   1436488.77848  21528719.543    21528719.8774   21528725.4194
 00  4 29 13 21 15.0000000  0 10 26 27 19 11  2  7 31 18  8 13       0.000000053
  -4667640.690 9  -3602175.82246  23590603.739    23590603.9844   23590610.9224
    -98146.217 9    -68817.91649  20549588.911    20549588.7664   20549595.4044
   3505855.715 9   2729414.97946  23387256.057    23387256.0294   23387265.6404
  -2616756.796 9  -2019992.00446  23744490.823    23744490.6714   23744499.9924
  -1951797.401 9  -1505689.21748  21436450.352    21436449.8944   21436456.7674
  -5625207.825 9  -4355473.92448  21871271.324    21871270.8644   21871278.5564
   4603877.943 8   3578686.23045  24883909.698    24883909.2784   24883919.7144
   2536245.752 8   1969122.27345  24687631.422    24687631.3694   24687640.8224
   -806126.093 9   -616717.04449  20104364.555    20104364.2484   20104370.5814
   1869380.820 9   1460518.73348  21534587.910    21534588.2554   21534593.8304
 00  4 29 13 21 30.0000000  0 10 26 27 19 11  2  7 31 18  8 13       0.000000045
  -4701988.261 9  -3628940.19246  23584067.696    23584067.9394   23584074.8064
    -85987.895 9    -59343.92749  20551902.598    20551902.4544   20551909.0894
   3547819.898 9   2762114.24546  23395241.653    23395241.6214   23395251.2904
  -2629292.136 9  -2029759.82046  23742105.492    23742105.3434   23742114.6624
  -1959644.363 9  -1511803.74548  21434957.144    21434956.6784   21434963.5574
  -5664164.723 9  -4385829.94848  21863858.055    21863857.6064   21863865.3044
   4658933.278 8   3621586.41845  24894386.433    24894385.9754   24894396.5054
   2593035.376 8   2013373.84645  24698438.146    24698438.0674   24698447.6774
   -800587.924 9   -612401.60449  20105418.453    20105418.1394   20105424.4794
   1900336.074 9   1484639.68148  21540478.528    21540478.8774   21540484.4714
 00  4 29 13 21 45.0000000  0 10 26 27 19 11  2  7 31 18  8 13       0.000000039
  -4736232.897 9  -3655624.34246  23577551.180    23577551.4214   23577558.2794
    -73718.656 9    -49783.51149  20554237.351    20554237.2084   20554243.8444
   3589846.560 9   2794862.19846  23403239.145    23403239.1344   23403248.8224
  -2641719.669 9  -2039443.62146  23739740.631    23739740.4694   23739749.8454
  -1967459.734 9  -1517893.67048  21433469.938    21433469.4784   21433476.3684
  -5703032.501 9  -4416116.52348  21856461.772    21856461.3274   21856469.0544
   4714015.741 8   3664507.73945  24904868.353    24904867.9084   24904878.5414
   2649818.945 8   2057620.69245  24709243.800    24709243.6774   24709253.3234
   -794949.529 9   -608008.07449  20106491.444    20106491.1164   20106497.4524
   1931404.120 9   1508848.51448  21546390.593    21546390.9444   21546396.5544
 00  4 29 13 22  0.0000000  0 10 26 27 19 11  2  7 31 18  8 13       0.000000036
  -4770376.374 9  -3682229.67946  23571053.892    23571054.1094   23571061.0434
    -61340.947 9    -40138.56849  20556592.774    20556592.6274   20556599.2714
   3631933.701 9   2827657.28746  23411248.160    23411248.1304   23411257.8004
  -2654037.723 9  -2049042.13546  23737396.641    23737396.4324   23737405.8034
  -1975243.747 9  -1523959.15348  21431988.714    21431988.2634   21431995.1414
  -5741812.140 9  -4446334.42448  21849082.256    21849081.8054   21849089.5334
   4769124.543 8   3707449.59945  24915355.230    24915354.8984   24915365.4884
   2706596.968 8   2101863.22645  24720048.384    24720048.2564   24720057.9034
   -789211.704 9   -603537.06249  20107583.317    20107583.0004   20107589.3384
   1962582.378 9   1533143.22448  21552323.668    21552324.0074   21552329.6234
 00  4 29 13 22 15.0000000  0 10 26 27 19 11  2  7 31 18  8 13       0.000000037
  -4804418.804 9  -3708756.27946  23564575.859    23564576.1034   23564582.9794
    -48855.749 9    -30409.87349  20558968.675    20558968.5324   20558975.1644
   3674080.512 9   2860498.86846  23419268.519    23419268.4574   23419278.0824
  -2666245.553 9  -2058554.74446  23735073.587    23735073.3414   23735082.7724
  -1982998.268 9  -1530001.66248  21430513.131    21430512.6754   21430519.5574
  -5780503.204 9  -4476483.30648  21841719.575    21841719.1224   21841726.8544
   4824254.429 8   3750407.87345  24925846.133    24925845.7764   24925856.4794
   2763369.323 8   2146101.33945  24730851.904    24730851.7874   24730861.4344
   -783377.100 9   -598990.65049  20108693.590    20108693.2914   20108699.6314
   1993870.042 9   1557523.17348  21558277.533    21558277.8654   21558283.4924
 00  4 29 13 22 30.0000000  0 10 26 27 19 11  2  7 31 18  8 13       0.000000039
  -4838362.504 9  -3735205.94246  23558116.599    23558116.8754   23558123.7274
    -36263.106 9    -20597.45649  20561364.988    20561364.8434   20561371.4744
   3716285.641 9   2893385.88646  23427299.987    23427299.8684   23427309.5214
  -2678342.649 9  -2067981.07946  23732771.527    23732771.3044   23732780.8184
  -1990724.244 9  -1536021.92348  21429042.934    21429042.4634   21429049.3714
  -5819105.677 9  -4506563.15348  21834373.791    21834373.3284   21834381.0744
   4879402.835 8   3793380.57445  24936340.550    24936340.2104   24936350.9984
   2820133.200 8   2190332.85045  24741653.751    24741653.6694   24741663.3684
   -777447.493 9   -594370.19849  20109821.994    20109821.6904   20109828.0444
   2025263.612 9   1581985.66248  21564251.526    21564251.8794   21564257.5094
 00  4 29 13 22 45.0000000  0 10 26 27 19 11  2  7 31 18  8 13       0.000000043
  -4872208.759 9  -3761579.67146  23551675.893    23551676.1744   23551682.9694
    -23565.474 9    -10703.22349  20563781.300    20563781.1504   20563787.7864
   3758547.527 9   2926317.13246  23435342.188    23435342.1104   23435351.7864
  -2690328.005 9  -2077320.32946  23730490.716    23730490.6124   23730500.1644
  -1998419.925 9  -1542018.57748  21427578.485    21427578.0364   21427584.9484
  -5857617.431 9  -4536572.30848  21827045.223    21827044.7614   21827052.4924
   4934566.707 8   3836365.34245  24946837.879    24946837.5544   24946848.4834
   2876888.510 8   2234557.67745  24752454.019    24752453.9934   24752463.5724
   -771424.237 9   -589676.77549  20110968.203    20110967.9074   20110974.2594
   2056761.369 9   1606529.33048  21570245.380    21570245.7294   21570251.3734
 00  4 29 13 23  0.0000000  0 10 26 27 19 11  2  7 31 18  8 13       0.000000049
  -4905957.147 9  -3787877.14746  23545253.864    23545254.1294   23545260.9444
    -10765.448 9      -729.20549  20566217.116    20566216.9744   20566223.6034
   3800865.112 9   2959291.78046  23443395.011    23443394.9754   23443404.6244
  -2702199.725 9  -2086571.03646  23728231.621    23728231.5374   23728241.1244
  -2006086.755 9  -1547992.75048  21426119.564    21426119.1164   21426126.0544
  -5896040.826 9  -4566512.60148  21819733.490    21819733.0134   21819740.7644
   4989743.035 8   3879359.81245  24957337.620    24957337.1754   24957348.2464
   2933633.913 8   2278774.78645  24763252.374    24763252.3374   24763261.8804
   -765308.681 9   -584911.43249  20112131.996    20112131.7014   20112138.0464
   2088361.609 9   1631152.85748  21576258.729    21576259.0874   21576264.7304
 00  4 29 13 23 15.0000000  0 10 26 27 19 11  2  7 31 18  8 13       0.000000067
  -4939610.386 9  -3814100.47246  23538849.910    23538850.1334   23538857.0204
      2135.675 9      9323.58649  20568672.145    20568672.0054   20568678.6254
   3843234.693 9   2992306.93946  23451457.743    23451457.7434   23451467.3404
  -2713959.592 9  -2095734.58046  23725993.853    23725993.7564   23726003.3894
  -2013725.550 9  -1553945.08148  21424665.945    21424665.4934   21424672.4344
  -5934376.329 9  -4596384.42348  21812438.456    21812437.9944   21812445.7444
   5044930.573 8   3922363.01245  24967839.553    24967839.0754   24967850.2214
   2990369.382 8   2322984.16745  24774048.851    24774048.8624   24774058.2924
   -759100.691 9   -580074.06549  20113313.366    20113313.0834   20113319.3994
   2120064.482 9   1655856.35748  21582291.624    21582291.9804   21582297.6234
 00  4 29 13 23 30.0000000  0 10 26 27 19 11  2  7 31 18  8 13       0.000000076
  -4973171.809 9  -3840252.24946  23532463.393    23532463.6544   23532470.5724
     15137.372 9     19454.74949  20571146.318    20571146.1724   20571152.7844
   3885653.874 9   3025360.74746  23459529.948    23459529.9454   23459539.5544
  -2725609.273 9  -2104812.27946  23723776.981    23723776.8814   23723786.5674
  -2021335.881 9  -1559875.22848  21423217.768    21423217.3254   21423224.2784
  -5972623.751 9  -4626187.61248  21805160.232    21805159.7624   21805167.5124
   5100126.119 8   3965372.45645  24978342.964    24978342.5134   24978353.6034
   3047091.654 8   2367183.26045  24784842.824    24784842.8404   24784852.2334
   -752802.419 9   -575166.34649  20114511.920    20114511.6234   20114517.9514
   2151870.007 9   1680639.84748  21588344.037    21588344.3904   21588350.0424
 00  4 29 13 23 45.0000000  0 10 26 27 19 11  2  7 31 18  8 13       0.000000082
  -5006640.601 9  -3866331.85146  23526094.519    23526094.7344   23526101.7054
     28241.481 9     29665.72049  20573639.962    20573639.8154   20573646.4244
   3928123.046 9   3058453.51546  23467611.678    23467611.6004   23467621.2154
  -2737148.117 9  -2113803.61546  23721581.177    23721581.0714   23721590.8454
  -2028916.157 9  -1565781.94848  21421775.297    21421774.8444   21421781.8184
  -6010783.412 9  -4655922.41148  21797898.660    21797898.1894   21797905.9714
   5155331.700 8   4008389.71445  24988848.281    24988847.8404   24988859.1544
   3103798.856 8   2411370.60145  24795633.920    24795633.9694   24795643.3424
   -746414.341 9   -570188.64349  20115727.575    20115727.2824   20115733.6214
   2183781.570 9   1705505.96848  21594416.647    21594416.9864   21594422.6684
 00  4 29 13 24  0.0000000  0 10 26 27 19 11  2  7 31 18  8 13       0.000000087
  -5040015.313 9  -3892338.12946  23519743.511    23519743.7604   23519750.7594
     41445.859 9     39954.81549  20576152.712    20576152.5664   20576159.1874
   3970641.350 9   3091584.56646  23475702.695    23475702.6494   23475712.2574
  -2748574.943 9  -2122707.65746  23719406.702    23719406.6264   23719416.3724
  -2036465.776 9  -1571664.78648  21420338.647    21420338.2084   21420345.1704
  -6048854.999 9  -4685588.57748  21790653.874    21790653.3954   21790661.2124
   5210549.776 8   4051416.70145  24999356.066    24999355.4474   24999366.7074
   3160490.896 8   2455546.12945  24806422.135    24806422.1814   24806431.5424
   -739935.137 9   -565139.93949  20116960.548    20116960.2484   20116966.6004
   2215801.564 9   1730456.57748  21600509.881    21600510.2484   21600515.9294
 00  4 29 13 24 15.0000000  0 10 26 27 19 11  2  7 31 18  8 13       0.000000090
  -5073295.417 9  -3918270.68946  23513410.508    23513410.7354   23513417.8084
     54749.160 9     50320.99149  20578684.281    20578684.1334   20578690.7564
   4013210.318 9   3124755.09046  23483803.326    23483803.2614   23483812.9074
  -2759891.982 9  -2131526.14346  23717253.129    23717253.0674   23717262.8054
  -2043985.976 9  -1577524.69848  21418907.621    21418907.1794   21418914.1504
  -6086837.933 9  -4715185.67248  21783425.941    21783425.4784   21783433.3264
   5265780.556 8   4094453.57145  25009866.228    25009865.3804   25009876.5914
   3217165.851 8   2499708.34545  24817207.059    24817207.1844   24817216.6054
   -733363.668 9   -560019.33849  20118211.091    20118210.7824   20118217.1374
   2247932.155 9   1755493.36448  21606624.173    21606624.5554   21606630.2284
 00  4 29 13 24 30.0000000  0 10 26 27 19 11  2  7 31 18  8 13       0.000000090
  -5106481.748 9  -3944130.18646  23507095.376    23507095.6464   23507102.6754
     68151.906 9     60764.66249  20581234.754    20581234.5984   20581241.2274
   4055828.525 9   3157964.00246  23491913.279    23491913.2374   23491922.9444
  -2771104.615 9  -2140263.28846  23715119.444    23715119.3944   23715129.1634
  -2051476.053 9  -1583361.14048  21417482.326    21417481.8864   21417488.8694
  -6124732.666 9  -4744714.03748  21776214.785    21776214.3404   21776222.2154
   5321025.431 8   4137501.42545  25020379.027    25020378.0244   25020389.3864
   3273821.438 8   2543855.48645  24827988.333    24827988.5114   24827997.8484
   -726700.291 9   -554827.12149  20119479.087    20119478.7854   20119485.1484
   2280171.640 9   1780615.00748  21612759.177    21612759.5384   21612765.2154
 00  4 29 13 24 45.0000000  0 10 26 27 19 11  2  7 31 18  8 13       0.000000087
  -5139569.768 9  -3969913.07846  23500798.990    23500799.2354   23500806.2394
     81655.739 9     71287.09849  20583804.472    20583804.3194   20583810.9634
   4098499.740 9   3191214.19346  23500033.372    23500033.3454   23500043.1204
  -2782212.297 9  -2148918.65446  23713005.715    23713005.6684   23713015.4344
  -2058931.900 9  -1589170.90748  21416063.528    21416063.0784   21416070.0824
  -6162537.287 9  -4774172.18448  21769020.782    21769020.3314   21769028.2414
   5376291.305 8   4180565.65045  25030895.747    25030894.8714   25030905.9974
   3330461.800 8   2587990.75845  24838766.635    24838766.8594   24838776.1684
   -719939.986 9   -549559.38049  20120765.546    20120765.2344   20120771.6134
   2312523.401 9   1805824.13348  21618915.572    21618915.9264   21618921.5964
 00  4 29 13 25  0.0000000  0 10 26 27 19 11  2  7 31 18  8 13       0.000000083
  -5172557.218 9  -3995617.60946  23494521.715    23494521.9214   23494528.9744
     95260.203 9     81887.95049  20586393.334    20586393.1774   20586399.8274
   4141225.385 9   3224506.80346  23508163.836    23508163.7874   23508173.6234
  -2793215.982 9  -2157492.97446  23710911.861    23710911.7874   23710921.4804
  -2066354.482 9  -1594954.75648  21414651.073    21414650.6164   21414657.6214
  -6200253.536 9  -4803561.47248  21761843.614    21761843.1894   21761851.0984
   5431580.022 8   4223647.68945  25041416.824    25041416.2364   25041426.8844
   3387087.836 8   2632114.85145  24849542.196    24849542.5984   24849551.8514
   -713080.956 9   -544214.70349  20122070.819    20122070.5004   20122076.8964
   2344990.424 9   1831123.07948  21625093.875    21625094.2394   21625099.8994
 00  4 29 13 25 15.0000000  0 10 26 27 19 11  2  7 31 18  8 13       0.000000076
  -5205443.391 9  -4021243.22846  23488263.649    23488263.8434   23488270.9504
    108969.586 9     92570.55649  20589002.173    20589002.0214   20589008.6764
   4184005.271 9   3257841.68346  23516304.596    23516304.5714   23516314.5004
  -2804117.718 9  -2165987.85746  23708837.395    23708837.2834   23708846.9534
  -2073743.401 9  -1600712.37848  21413245.008    21413244.5694   21413251.5644
  -6237882.855 9  -4832883.02348  21754682.978    21754682.5474   21754690.4694
   5486893.775 8   4266749.24145  25051942.714    25051942.0814   25051952.6914
   3443696.793 8   2676225.63745  24860314.552    24860315.1224   24860324.2144
   -706120.436 9   -538790.94849  20123395.353    20123395.0144   20123401.4474
   2377573.182 9   1856512.20448  21631294.211    21631294.5564   21631300.2034
 00  4 29 13 25 30.0000000  0 10 26 27 19 11  2  7 31 18  8 13       0.000000065
  -5238225.841 9  -4046788.01846  23482025.398    23482025.6324   23482032.7514
    122787.173 9    103337.47649  20591631.577    20591631.4404   20591638.0944
   4226840.553 9   3291219.72346  23524455.928    23524455.9574   23524465.9114
  -2814916.698 9  -2174402.68146  23706782.493    23706782.3754   23706792.0334
  -2081098.060 9  -1606443.30648  21411845.489    21411845.0484   21411852.0284
  -6275423.866 9  -4862135.76548  21747539.173    21747538.7424   21747546.6564
   5542233.963 8   4309871.39545  25062473.652    25062472.9614   25062483.5684
   3500289.470 8   2720323.75145  24871083.891    24871084.4164   24871093.4174
   -699056.613 9   -533286.69649  20124739.561    20124739.2434   20124745.6714
   2410273.675 9   1881993.07648  21637516.955    21637517.2984   21637522.9264
 00  4 29 13 25 45.0000000  0 10 26 27 19 11  2  7 31 18  8 13       0.000000052
  -5270903.160 9  -4072250.87646  23475807.149    23475807.3974   23475814.5224
    136712.290 9    114188.18649  20594281.473    20594281.3364   20594287.9984
   4269730.789 9   3324640.57546  23532617.724    23532617.7874   23532627.7674
  -2825614.171 9  -2182738.40246  23704746.842    23704746.7064   23704756.3474
  -2088418.283 9  -1612147.38748  21410452.499    21410452.0524   21410459.0224
  -6312880.001 9  -4891322.36648  21740411.532    21740411.1064   21740419.0024
   5597600.649 8   4353014.20245  25073009.647    25073008.9074   25073019.7244
   3556864.749 8   2764408.29745  24881849.923    24881850.3634   24881859.4664
   -691891.495 9   -527703.51049  20126103.015    20126102.6994   20126109.1344
   2443090.138 9   1907564.31148  21643761.781    21643762.1154   21643767.7344
 00  4 29 13 26  0.0000000  0 10 26 27 19 11  2  7 31 18  8 13       0.000000040
  -5303469.407 9  -4097627.20446  23469609.991    23469610.2074   23469617.3944
    150746.384 9    125123.81749  20596952.075    20596951.9374   20596958.5984
   4312681.855 9   3358108.83946  23540791.131    23540791.1604   23540801.1644
  -2836209.655 9  -2190994.65146  23702730.559    23702730.4714   23702740.1304
  -2095703.543 9  -1617824.24248  21409066.171    21409065.7224   21409072.6954
  -6350248.180 9  -4920440.43148  21733300.631    21733300.2194   21733308.0804
   5653000.668 8   4396182.98445  25083552.047    25083551.2584   25083562.2694
   3613427.056 8   2808482.73745  24892613.481    24892613.8524   24892622.9854
   -684620.868 9   -522038.11449  20127486.591    20127486.2914   20127492.7234
   2476024.228 9   1933227.20448  21650028.975    21650029.3064   21650034.9114
 00  4 29 13 26 15.0000000  0  9 26 27 19 11  2  7 18  8 13          0.000000029
  -5335923.259 9  -4122915.94546  23463434.233    23463434.4424   23463441.6554
    164887.798 9    136143.07349  20599643.139    20599643.0044   20599649.6744
   4355696.911 9   3391626.96546  23548976.629    23548976.6524   23548986.7154
  -2846705.250 9  -2199173.06646  23700733.314    23700733.2344   23700742.8264
  -2102954.319 9  -1623474.21248  21407686.411    21407685.9774   21407692.9604
  -6387528.805 9  -4949490.27248  21726206.421    21726206.0014   21726213.8024
   3669975.121 8   2852546.07345  24903374.339    24903374.6934   24903383.8224
   -677243.150 9   -516289.26749  20128890.551    20128890.2394   20128896.6754
   2509073.629 9   1958979.94548  21656318.092    21656318.4234   21656324.0174
 00  4 29 13 26 30.0000000  0  9 26 27 19 11  2  7 18  8 13          0.000000018
  -5368265.253 9  -4148117.51846  23457279.730    23457279.9434   23457287.1574
    179139.237 9    147248.06049  20602355.090    20602354.9564   20602361.6364
   4398776.298 9   3425195.22346  23557174.444    23557174.5074   23557184.5674
  -2857104.511 9  -2207276.41146  23698754.438    23698754.3534   23698763.9164
  -2110169.877 9  -1629096.74548  21406313.348    21406312.9184   21406319.9034
  -6424720.562 9  -4978470.86748  21719129.080    21719128.6404   21719136.4244
   3726508.228 8   2896597.74645  24914132.303    24914132.5354   24914141.7734
   -669758.581 9   -510457.15749  20130314.850    20130314.5234   20130320.9644
   2542237.587 9   1984821.95848  21662629.047    21662629.3744   21662634.9564
 00  4 29 13 26 45.0000000  0  9 26 27 19 11  2  7 18  8 13          0.000000010
  -5400492.537 9  -4173229.70646  23451147.073    23451147.2494   23451154.4604
    193500.064 9    158438.28649  20605087.908    20605087.7744   20605094.4524
   4441920.699 9   3458814.12946  23565384.654    23565384.7134   23565394.8254
  -2867404.473 9  -2215302.38546  23696794.478    23696794.3914   23696803.9094
  -2117350.953 9  -1634692.40748  21404946.842    21404946.4044   21404953.3934
  -6461823.385 9  -5007382.16348  21712068.655    21712068.2184   21712075.9744
   3783028.075 8   2940639.09145  24924887.771    24924887.8294   24924897.2634
   -662167.092 9   -504541.73749  20131759.505    20131759.1834   20131765.6074
   2575514.579 9   2010752.05348  21668961.501    21668961.8204   21668967.4074
 00  4 29 13 27  0.0000000  0  9 26 27 19 11  2  7 18  8 13          0.000000005
  -5432605.805 9  -4198253.05746  23445036.069    23445036.2794   23445043.5514
    207971.510 9    169714.70249  20607841.754    20607841.6184   20607848.3054
   4485130.167 9   3492483.73146  23573607.301    23573607.3304   23573617.3974
  -2877602.992 9  -2223249.31246  23694853.815    23694853.6944   23694863.2234
  -2124501.355 9  -1640264.16748  21403586.176    21403585.7364   21403592.7234
  -6498837.882 9  -5036224.63348  21705025.042    21705024.5844   21705032.3274
   3839533.349 8   2984669.10145  24935640.423    24935640.4754   24935649.9724
   -654469.966 9   -498544.00149  20133224.243    20133223.9194   20133230.3454
   2608905.293 9   2036770.75848  21675315.547    21675315.8714   21675321.4814
 00  4 29 13 27 15.0000000  0  9 26 27 19 11  2  7 18  8 13          0.000000001
  -5464607.892 9  -4223189.76946  23438946.261    23438946.4454   23438953.7914
    222556.157 9    181079.33249  20610617.128    20610617.0074   20610623.6964
   4528403.471 9   3526203.07946  23581842.082    23581842.0604   23581852.1454
  -2887699.962 9  -2231117.10646  23692932.499    23692932.3544   23692941.8574
  -2131620.919 9  -1645811.88948  21402231.401    21402230.9644   21402237.9614
  -6535762.398 9  -5064996.98648  21697998.497    21697998.0684   21698005.7934
   3896021.482 8   3028685.75645  24946389.802    24946389.8744   24946399.3934
   -646668.556 9   -492465.00149  20134708.815    20134708.4914   20134714.9304
   2642405.476 9   2062874.76148  21681690.449    21681690.7884   21681696.3844
 00  4 29 13 27 30.0000000  0  9 26 27 19 11  2  7 18  8 13         -0.000000002
  -5496499.719 9  -4248040.56046  23432877.442    23432877.6374   23432884.9574
    237254.885 9    192532.85649  20613414.208    20613414.0804   20613420.7964
   4571741.457 9   3559972.83346  23590089.135    23590089.1214   23590099.2524
  -2897694.692 9  -2238905.23146  23691030.603    23691030.4614   23691039.9034
  -2138708.152 9  -1651334.41148  21400882.746    21400882.2974   21400889.3214
  -6572595.510 9  -5093698.11948  21690989.412    21690989.0014   21690996.7204
   3952495.732 8   3072691.59645  24957136.506    24957136.5544   24957146.2654
   -638764.931 9   -486306.36049  20136212.823    20136212.5004   20136218.9494
   2676013.905 9   2089063.11048  21688085.964    21688086.3004   21688091.9174
 00  4 29 13 27 45.0000000  0  9 26 27 19 11  2  7 18  8 13         -0.000000002
  -5528281.350 9  -4272805.48846  23426829.608    23426829.7834   23426837.0924
    252063.122 9    204071.71149  20616232.154    20616232.0304   20616238.7424
   4615144.192 9   3593793.03946  23598348.451    23598348.4434   23598358.6234
  -2907586.854 9  -2246613.44046  23689148.260    23689148.1244   23689157.5844
  -2145762.027 9  -1656830.95148  21399540.432    21399539.9774   21399547.0014
  -6609336.059 9  -5122327.12448  21683997.949    21683997.5214   21684005.2094
   4008958.971 8   3116688.84945  24967881.141    24967881.1564   24967891.0684
   -630761.507 9   -480069.94949  20137735.853    20137735.5464   20137742.0104
   2709730.095 9   2115335.42448  21694501.953    21694502.2884   21694507.9264
 00  4 29 13 28  0.0000000  0  9 26 27 19 11  2  7 18  8 13          0.000000001
  -5559951.958 9  -4297483.89746  23420802.906    23420803.1164   23420810.4744
    266977.923 9    215693.60649  20619070.363    20619070.2454   20619076.9774
   4658612.128 9   3627664.05046  23606620.204    23606620.2564   23606630.4074
  -2917377.742 9  -2254242.73146  23687285.088    23687284.9244   23687294.4784
  -2152782.810 9  -1662301.70648  21398204.414    21398203.9624   21398210.9984
  -6645984.181 9  -5150884.10948  21677024.045    21677023.6094   21677031.3024
   4065410.296 8   3160676.81245  24978623.498    24978623.4294   24978633.4664
   -622658.221 9   -473755.72749  20139277.873    20139277.5684   20139284.0394
   2743551.726 9   2141689.90448  21700938.025    21700938.3834   21700944.0264
 00  4 29 13 28 15.0000000  0  9 26 27 19 11  2  7 18  8 13          0.000000008
  -5591511.656 9  -4322075.90046  23414797.354    23414797.5424   23414804.9084
    281998.299 9    227397.76449  20621928.660    20621928.5364   20621935.2924
   4702143.854 9   3661584.76346  23614904.135    23614904.1724   23614914.2904
  -2927065.496 9  -2261791.65546  23685441.576    23685441.4304   23685451.0504
  -2159775.030 9  -1667750.21048  21396873.853    21396873.4134   21396880.4494
  -6682539.888 9  -5179369.08248  21670067.726    21670067.3054   21670074.9624
   4121847.562 8   3204653.81745  24989363.177    24989363.1734   24989373.2024
   -614454.645 9   -467363.35149  20140838.964    20140838.6484   20140845.1394
   2777477.161 9   2168125.27048  21707393.863    21707394.2144   21707399.8674
 00  4 29 13 28 30.0000000  0  9 26 27 19 11  2  7 18  8 13          0.000000015
  -5622964.856 9  -4346584.90446  23408812.050    23408812.2364   23408819.5574
    297126.241 9    239185.74449  20624807.395    20624807.2834   20624814.0664
   4745731.336 9   3695548.92246  23623198.673    23623198.7104   23623208.7934
  -2936649.308 9  -2269259.59546  23683617.811    23683617.6534   23683627.3054
  -2166738.888 9  -1673176.60648  21395548.682    21395548.2504   21395555.2694
  -6719001.969 9  -5207781.09448  21663129.220    21663128.7984   21663136.4624
   4178269.865 8   3248619.16845  25000099.967    25000099.9914   25000109.9424
   -606154.005 9   -460895.34049  20142418.554    20142418.2444   20142424.7564
   2811504.656 9   2194640.17448  21713869.131    21713869.4514   21713875.1194
 00  4 29 13 28 45.0000000  0  9 26 27 19 11  2  7 18  8 13          0.000000022
  -5654310.805 9  -4371010.34946  23402847.159    23402847.3954   23402854.6324
    312364.084 9    251059.35949  20627707.100    20627706.9864   20627713.8124
   4789370.912 9   3729553.67546  23631503.096    23631503.1404   23631513.1954
  -2946125.408 9  -2276643.60946  23681814.580    23681814.4814   23681824.1244
  -2173671.720 9  -1678578.82648  21394229.444    21394229.0034   21394236.0174
  -6755368.613 9  -5236118.74548  21656208.895    21656208.4894   21656216.1404
   4234679.606 8   3292574.72645  25010834.411    25010834.3694   25010844.4954
   -597758.015 9   -454353.03149  20144016.263    20144015.9684   20144022.4794
   2845632.474 9   2221233.24848  21720363.467    21720363.7954   21720369.4664
 00  4 29 13 29  0.0000000  0  9 26 27 19 11  2  7 18  8 13          0.000000027
  -5685550.618 9  -4395353.08446  23396902.520    23396902.7714   23396909.9154
    327712.056 9    263018.78749  20630627.718    20630627.5944   20630634.4484
   4833060.722 9   3763597.56746  23639817.125    23639817.1854   23639827.1594
  -2955492.386 9  -2283942.58446  23680032.112    23680031.9754   23680041.7244
  -2180572.920 9  -1683956.39848  21392916.213    21392915.7724   21392922.7874
  -6791641.166 9  -5264383.07548  21649306.493    21649306.0674   21649313.7414
   4291075.853 8   3336519.75945  25021566.284    25021566.3004   25021576.5434
   -589267.196 9   -447736.83449  20145632.039    20145631.7394   20145638.2584
   2879861.965 9   2247905.53948  21726877.109    21726877.4264   21726883.1284
 00  4 29 13 29 15.0000000  0  9 26 27 19 11  2  7 18  8 13          0.000000029
  -5716684.994 9  -4419613.66946  23390977.923    23390978.1724   23390985.2764
    343170.621 9    275064.39449  20633569.419    20633569.3074   20633576.1694
   4876799.456 9   3797679.60246  23648140.462    23648140.4834   23648150.4854
  -2964750.709 9  -2291156.89646  23678270.361    23678270.2454   23678279.9874
  -2187440.243 9  -1689307.57848  21391609.416    21391608.9774   21391616.0034
  -6827819.401 9  -5292573.91448  21642422.002    21642421.5834   21642429.2674
   4347456.849 8   3380452.93245  25032295.309    25032295.3234   25032305.6334
   -580678.985 9   -441044.74549  20147266.342    20147266.0384   20147272.5584
   2914192.874 9   2274656.85748  21733410.104    21733410.4434   21733416.1314
 00  4 29 13 29 30.0000000  0  9 26 27 19 11  2  7 18  8 13          0.000000029
  -5747711.481 9  -4443790.17746  23385073.836    23385074.0904   23385081.1644
    358738.718 9    287195.35149  20636531.919    20636531.7864   20636538.6824
   4920588.391 9   3831800.74546  23656473.280    23656473.2844   23656483.3104
  -2973898.348 9  -2298284.96446  23676529.647    23676529.4994   23676539.3054
  -2194271.683 9  -1694630.79948  21390309.463    21390309.0274   21390316.0654
  -6863902.512 9  -5320690.62648  21635555.656    21635555.2174   21635562.9234
   4403824.484 8   3424375.67845  25043021.831    25043021.8664   25043032.1654
   -571991.091 9   -434274.98149  20148919.642    20148919.3434   20148925.8544
   2948625.508 9   2301487.44448  21739962.420    21739962.7574   21739968.4624
 00  4 29 13 29 45.0000000  0  9 26 27 19 11  2  7 18  8 13          0.000000030
  -5778627.009 9  -4467880.21746  23379190.819    23379191.1134   23379198.1804
    374413.700 9    299409.59649  20639514.795    20639514.6914   20639521.5804
   4964427.361 9   3865960.86846  23664815.680    23664815.6684   23664825.7224
  -2982933.050 9  -2305325.01846  23674810.447    23674810.2894   23674820.0404
  -2201070.378 9  -1699928.50448  21389015.721    21389015.2934   21389022.3474
  -6899889.931 9  -5348732.77148  21628707.473    21628707.0484   21628714.7524
   4460178.999 8   3468288.20345  25053745.851    25053745.9824   25053756.2024
   -563203.150 9   -427427.25449  20150591.975    20150591.6754   20150598.1714
   2983163.117 9   2328399.83148  21746534.726    21746535.0674   21746540.7674
 00  4 29 13 30  0.0000000  0  9 26 27 19 11  2  7 18  8 13          0.000000032
  -5809429.792 9  -4491882.40746  23373329.243    23373329.5304   23373336.6304
    390194.669 9    311706.43049  20642517.883    20642517.7624   20642524.6514
   5008313.531 9   3900157.78246  23673167.032    23673167.0174   23673177.1064
  -2991852.788 9  -2312275.50146  23673113.181    23673112.9754   23673122.6674
  -2207839.359 9  -1705203.04648  21387727.669    21387727.2344   21387734.2904
  -6935779.677 9  -5376698.80848  21621877.891    21621877.4564   21621885.1674
   4516516.423 8   3512187.41745  25064466.586    25064466.5714   25064476.9934
   -554315.030 9   -420501.46649  20152283.398    20152283.0854   20152289.5704
   3017803.373 9   2355392.20148  21753126.564    21753126.9034   21753132.6334
 00  4 29 13 30 15.0000000  0  9 26 27 19 11  2  7 18  8 13          0.000000034
  -5840122.440 9  -4515798.78146  23367488.675    23367488.9534   23367496.0874
    406085.049 9    324088.51649  20645541.747    20645541.6194   20645548.5094
   5052244.994 9   3934389.98746  23681527.023    23681526.9904   23681537.1314
  -3000657.221 9  -2319136.13746  23671437.858    23671437.6354   23671447.2604
  -2214583.365 9  -1710458.14048  21386444.366    21386443.9234   21386450.9634
  -6971571.332 9  -5404588.40948  21615066.968    21615066.5314   21615074.2744
   4572829.698 8   3556067.80345  25075182.704    25075182.7814   25075193.0724
   -545326.738 9   -413497.62249  20153993.854    20153993.5214   20154000.0174
   3052544.501 9   2382463.17548  21759737.584    21759737.9374   21759743.6914
 00  4 29 13 30 30.0000000  0  9 26 27 19 11  2  7 18  8 13          0.000000033
  -5870708.369 9  -4539631.99146  23361668.381    23361668.6534   23361675.7774
    422086.497 9    336557.14849  20648586.753    20648586.6314   20648593.5244
   5096218.980 9   3968655.33146  23689895.049    23689895.0174   23689905.2154
  -3009344.570 9  -2325905.53546  23669784.732    23669784.4794   23669794.1124
  -2221301.504 9  -1715693.07548  21385165.929    21385165.4884   21385172.5164
  -7007263.791 9  -5432400.71848  21608274.885    21608274.4534   21608282.1894
   4629118.172 8   3599928.85745  25085894.113    25085894.0674   25085904.4944
   -536239.569 9   -406416.72949  20155723.092    20155722.7534   20155729.2654
   3087387.469 9   2409613.50048  21766368.006    21766368.3574   21766374.1394
 00  4 29 13 30 45.0000000  0  9 26 27 19 11  2  7 18  8 13          0.000000029
  -5901187.586 9  -4563382.04146  23355868.402    23355868.6894   23355875.8244
    438199.920 9    349113.03149  20651653.048    20651652.9284   20651659.8214
   5140236.907 9   4002954.91646  23698271.466    23698271.4384   23698281.7004
  -3017913.860 9  -2332582.95046  23668154.051    23668153.8084   23668163.4424
  -2227991.366 9  -1720905.96548  21383892.909    21383892.4594   21383899.5024
  -7042856.297 9  -5460135.13748  21601501.857    21601501.4424   21601509.1634
   4685381.621 8   3643770.39545  25096600.798    25096600.7654   25096611.1484
   -527051.284 9   -399257.04249  20157471.607    20157471.2834   20157477.7944
   3122332.570 9   2436843.41548  21773017.880    21773018.2234   21773024.0144
 00  4 29 13 31  0.0000000  0  9 26 27 19 11  2  7 18  8 13          0.000000025
  -5931559.574 9  -4587048.54046  23350088.756    23350089.0494   23350096.2124
    454423.307 9    361754.60549  20654740.258    20654740.1414   20654747.0494
   5184305.634 9   4037294.07646  23706657.519    23706657.5124   23706667.8184
  -3026364.391 9  -2339167.82046  23666545.968    23666545.7314   23666555.3444
  -2234656.743 9  -1726099.77948  21382624.534    21382624.0874   21382631.1334
  -7078352.354 9  -5487794.40148  21594747.179    21594746.7384   21594754.4754
   4741616.264 8   3687589.49045  25107301.995    25107301.8864   25107312.2294
   -517758.024 9   -392015.55949  20159240.081    20159239.7594   20159246.2824
   3157380.067 9   2464153.11848  21779687.210    21779687.5564   21779693.3744
 00  4 29 13 31 15.0000000  0  9 26 27 19 11  2  7 18  8 13          0.000000021
  -5961822.994 9  -4610630.46146  23344329.845    23344330.1574   23344337.2994
    470755.341 9    374480.83649  20657848.167    20657848.0594   20657854.9704
   5228428.116 9   4071675.12646  23715053.809    23715053.8404   23715064.1544
  -3034696.256 9  -2345660.23546  23664960.539    23664960.3194   23664969.8544
  -2241300.269 9  -1731276.56748  21381360.317    21381359.8734   21381366.9204
  -7113751.432 9  -5515378.10048  21588010.950    21588010.5114   21588018.2624
   4797819.474 8   3731384.12545  25117997.240    25117997.1024   25118007.4394
   -508358.006 9   -384690.89249  20161028.871    20161028.5504   20161035.0754
   3192531.013 9   2491543.43348  21786376.229    21786376.5854   21786382.4014
 00  4 29 13 31 30.0000000  0  9 26 27 19 11  2  7 18  8 13          0.000000021
  -5991978.259 9  -4634128.08846  23338591.528    23338591.8484   23338598.9484
    487194.020 9    387290.16749  20660976.367    20660976.2544   20660983.1724
   5272607.977 9   4106100.87746  23723461.066    23723461.0394   23723471.3574
  -3042907.419 9  -2352058.58646  23663398.055    23663397.8504   23663407.3214
  -2247923.812 9  -1736437.79248  21380099.899    21380099.4654   21380106.5304
  -7149052.921 9  -5542885.75448  21581293.300    21581292.8724   21581300.6174
   4853991.326 8   3775154.32545  25128686.507    25128686.2824   25128696.6494
   -498852.373 9   -377283.92249  20162837.748    20162837.4284   20162843.9754
   3227782.782 9   2519012.31148  21793084.460    21793084.8014   21793090.6664
 00  4 29 13 31 45.0000000  0  9 26 27 19 11  2  7 18  8 13          0.000000023
  -6022028.149 9  -4657543.61046  23332873.258    23332873.5484   23332880.6184
    503738.692 9    400182.09749  20664124.759    20664124.6444   20664131.5634
   5316843.744 9   4140570.20046  23731878.971    23731878.8824   23731889.2694
  -3050998.326 9  -2358363.23246  23661858.424    23661858.1964   23661867.7074
  -2254528.950 9  -1741584.67048  21378842.989    21378842.5554   21378849.6384
  -7184256.944 9  -5570317.46248  21574594.162    21574593.7304   21574601.4814
   4910131.421 8   3818899.75845  25139369.717    25139369.5764   25139379.8774
   -489245.285 9   -369797.89649  20164665.923    20164665.6224   20164672.1584
   3263134.936 9   2546559.40648  21799811.762    21799812.1044   21799818.0044
 00  4 29 13 32  0.0000000  0  9 26 27 19 11  2  7 18  8 13          0.000000026
  -6051974.569 9  -4680878.51446  23327174.659    23327174.9234   23327181.9924
    520389.039 9    413156.36949  20667293.253    20667293.1504   20667300.0534
   5361134.793 9   4175082.59346  23740307.366    23740307.2174   23740317.7114
  -3058972.424 9  -2364576.85746  23660341.012    23660340.7974   23660350.3384
  -2261114.868 9  -1746716.56948  21377589.749    21377589.3034   21377596.4104
  -7219364.836 9  -5597674.26248  21567913.371    21567912.9554   21567920.6744
   4966237.360 8   3862618.60145  25150046.394    25150046.3454   25150056.6064
   -479540.160 9   -362235.48149  20166512.768    20166512.4644   20166519.0054
   3298586.370 9   2574183.86148  21806557.981    21806558.3244   21806564.2444
 00  4 29 13 32 15.0000000  0  9 26 27 19 11  2  7 18  8 13          0.000000027
  -6081819.844 9  -4704134.59846  23321495.278    23321495.5654   23321502.6744
    537146.826 9    426214.36349  20670482.160    20670482.0634   20670488.9744
   5405483.273 9   4209639.74246  23748746.673    23748746.5854   23748757.0944
  -3066832.246 9  -2370701.43346  23658845.383    23658845.1624   23658854.7304
  -2267677.434 9  -1751830.27548  21376340.974    21376340.5274   21376347.6434
  -7254381.235 9  -5624959.77048  21561249.969    21561249.5284   21561257.2424
   5022308.462 8   3906310.28745  25160716.439    25160716.3394   25160726.6584
   -469735.059 9   -354595.15549  20168378.636    20168378.3224   20168384.8814
   3334134.813 9   2601883.90548  21813322.619    21813322.9714   21813328.9204
 00  4 29 13 32 30.0000000  0  9 26 27 19 11  2  7 18  8 13          0.000000027
  -6111564.307 9  -4727312.13046  23315835.079    23315835.3734   23315842.5024
    554009.721 9    439354.25349  20673691.102    20673691.0014   20673697.9124
   5449892.172 9   4244243.97146  23757197.585    23757197.4134   23757207.9824
  -3074579.567 9  -2376738.33746  23657371.176    23657370.9924   23657380.4584
  -2274211.422 9  -1756921.71548  21375097.613    21375097.1684   21375104.2744
  -7289309.207 9  -5652176.37848  21554603.406    21554602.9694   21554610.6654
   5078350.522 8   3949979.34845  25171380.969    25171380.8164   25171391.2384
   -459828.381 9   -346875.68249  20170263.823    20170263.5274   20170270.0834
   3369781.862 9   2629660.78648  21820106.046    21820106.4144   21820112.3554
 00  4 29 13 32 45.0000000  0  9 26 27 19 11  2  7 18  8 13          0.000000028
  -6141204.804 9  -4750408.65846  23310194.743    23310194.9984   23310202.1214
    570975.693 9    452574.46649  20676919.627    20676919.5264   20676926.4344
   5494364.128 9   4278897.34146  23765660.455    23765660.2954   23765670.8374
  -3082212.472 9  -2382686.10046  23655918.720    23655918.5484   23655927.9904
  -2280713.502 9  -1761988.28448  21373860.344    21373859.9054   21373867.0164
  -7324150.697 9  -5679325.59348  21547973.319    21547972.8794   21547980.5654
   5134368.592 8   3993629.71745  25182040.926    25182040.7064   25182051.1994
   -449820.564 9   -339077.40149  20172168.237    20172167.9494   20172174.5134
   3405526.896 9   2657514.02148  21826908.167    21826908.5254   21826914.4514
 00  4 29 13 33  0.0000000  0  9 26 27 19 11  2  7 18  8 13          0.000000030
  -6170739.565 9  -4773422.77446  23304574.523    23304574.7684   23304581.9034
    588044.176 9    465874.55449  20680167.677    20680167.5884   20680174.5034
   5538901.704 9   4313601.83446  23774135.788    23774135.6284   23774146.1504
  -3089733.958 9  -2388547.03146  23654487.442    23654487.2494   23654496.7494
  -2287182.936 9  -1767029.42348  21372629.287    21372628.8474   21372635.9454
  -7358907.658 9  -5706408.94348  21541359.306    21541358.8674   21541366.5624
   5190362.793 8   4037261.48645  25192696.321    25192696.0504   25192706.5344
   -439712.048 9   -331200.65449  20174091.875    20174091.5774   20174098.1514
   3441368.275 9   2685442.32248  21833728.628    21833728.9844   21833734.8664
 00  4 29 13 33 15.0000000  0  9 26 27 19 11  2  7 18  8 13          0.000000035
  -6200167.289 9  -4796353.50046  23298974.649    23298974.8954   23298982.0334
    605213.259 9    479253.03649  20683434.856    20683434.7464   20683441.6924
   5583503.987 9   4348356.76446  23782623.442    23782623.2524   23782633.7934
  -3097147.631 9  -2394323.95346  23653076.701    23653076.5664   23653086.0674
  -2293616.176 9  -1772042.34948  21371405.086    21371404.6444   21371411.7484
  -7393579.566 9  -5733426.01648  21534761.477    21534761.0454   21534768.7404
   5246334.732 8   4080875.91145  25203347.453    25203347.1654   25203357.6184
   -429506.307 9   -323248.14349  20176033.997    20176033.6924   20176040.2624
   3477306.591 9   2713446.16148  21840567.503    21840567.8494   21840573.7294
 00  4 29 13 33 30.0000000  0  9 26 27 19 11  2  7 18  8 13          0.000000039
  -6229490.117 9  -4819202.47846  23293394.693    23293394.9884   23293402.1584
    622482.094 9    492709.24849  20686721.030    20686720.9314   20686727.8824
   5628167.605 9   4383159.49046  23791122.717    23791122.5384   23791133.0614
  -3104455.005 9  -2400018.04846  23651686.125    23651686.0084   23651695.4654
  -2300009.455 9  -1777024.13748  21370188.508    21370188.0674   21370195.1804
  -7428166.436 9  -5760376.82748  21528179.830    21528179.3914   21528187.0884
   5302286.078 8   4124474.28545  25213994.671    25213994.5354   25214004.9584
   -419206.111 9   -315222.03749  20177994.045    20177993.7364   20178000.3274
   3513342.495 9   2741526.05048  21847424.963    21847425.3124   21847431.1694
 00  4 29 13 33 45.0000000  0  9 26 27 19 11  2  7 18  8 13          0.000000041
  -6258708.314 9  -4841969.92746  23287834.686    23287834.9374   23287842.1544
    639852.150 9    506244.33249  20690026.435    20690026.3434   20690033.3114
   5672889.850 9   4418007.89946  23799633.180    23799632.9874   23799643.4954
  -3111657.711 9  -2405630.56746  23650315.484    23650315.3884   23650324.8754
  -2306360.280 9  -1781972.85248  21368980.000    21368979.5634   21368986.6884
  -7462667.856 9  -5787261.05148  21521614.476    21521614.0074   21521621.7114
   5358218.128 8   4168057.63645  25224638.140    25224638.1064   25224648.4644
   -408812.267 9   -307122.95849  20179971.950    20179971.6264   20179978.2434
   3549478.664 9   2769684.06948  21854301.459    21854301.8124   21854307.6734
 00  4 29 13 34  0.0000000  0  9 26 27 19 11  2  7 18  8 13          0.000000042
  -6287816.933 9  -4864651.98846  23282295.523    23282295.7424   23282303.0214
    657324.123 9    519858.83149  20693351.254    20693351.1614   20693358.1474
   5717667.162 9   4452899.21446  23808154.128    23808153.9684   23808164.4194
  -3118758.770 9  -2411163.87946  23648964.138    23648964.0634   23648973.6444
  -2312666.976 9  -1786887.18248  21367779.888    21367779.4344   21367786.5814
  -7497083.269 9  -5814078.26248  21515065.444    21515064.9804   21515072.6624
   5414128.757 8   4211624.27645  25235277.646    25235277.5714   25235287.9484
   -398322.010 9   -298948.75349  20181968.142    20181967.8444   20181974.4784
   3585716.049 9   2797920.95648  21861197.235    21861197.5884   21861203.4474
 00  4 29 13 34 15.0000000  0  9 26 27 19 11  2  7 18  8 13          0.000000041
  -6316811.739 9  -4887245.36046  23276777.972    23276778.1924   23276785.5614
    674897.860 9    533552.63249  20696695.456    20696695.3564   20696702.3464
   5762497.954 9   4487832.20045  23816685.226    23816685.0424   23816695.5204
  -3125758.788 9  -2416618.46446  23647632.035    23647631.9554   23647641.6214
  -2318928.372 9  -1791766.21148  21366588.372    21366587.9294   21366595.0884
  -7531411.965 9  -5840827.90048  21508532.919    21508532.4834   21508540.1434
   5470017.302 8   4255173.71745  25245913.016    25245912.7694   25245923.3574
   -387730.719 9   -290695.82049  20183983.619    20183983.3294   20183989.9754
   3622052.732 9   2826235.21648  21868111.912    21868112.2614   21868118.1354
 00  4 29 13 34 30.0000000  0  9 26 27 19 11  2  7 18  8 13          0.000000038
  -6345688.764 9  -4909746.95646  23271282.860    23271283.0964   23271290.5034
    692574.200 9    547326.37749  20700059.205    20700059.0974   20700066.0904
   5807380.452 9   4522805.47145  23825226.131    23825225.9294   23825236.3924
  -3132655.473 9  -2421992.52146  23646319.648    23646319.5534   23646329.2944
  -2325146.180 9  -1796611.27348  21365405.181    21365404.7384   21365411.9004
  -7565649.381 9  -5867506.40948  21502017.749    21502017.3234   21502024.9594
   5525884.130 8   4298706.22545  25256544.233    25256543.8494   25256554.6574
   -377035.657 9   -282362.02949  20186018.829    20186018.5304   20186025.1924
   3658489.169 9   2854627.20348  21875045.563    21875045.9414   21875051.8094
 00  4 29 13 34 45.0000000  0  9 26 27 19 11  2  7 18  8 13          0.000000035
  -6374445.832 9  -4932155.06946  23265810.531    23265810.7644   23265818.2574
    710355.007 9    561181.52549  20703442.811    20703442.6954   20703449.6934
   5852313.274 9   4557817.97045  23833776.600    23833776.5104   23833786.9184
  -3139446.767 9  -2427284.46446  23645027.384    23645027.2784   23645036.9744
  -2331323.038 9  -1801424.42748  21364229.743    21364229.3224   21364236.4894
  -7599790.482 9  -5894109.87548  21495520.960    21495520.5214   21495528.1404
   5581727.268 8   4342220.27645  25267170.914    25267170.7404   25267181.1434
   -366237.146 9   -273947.62849  20188073.707    20188073.4084   20188080.0754
   3695027.757 9   2883098.78548  21881998.669    21881999.0574   21882004.9364
 00  4 29 13 35  0.0000000  0  9 26 27 19 11  2  7 18  8 13          0.000000031
  -6403084.349 9  -4954470.82646  23260360.766    23260361.0074   23260368.5804
    728243.154 9    575120.31449  20706846.856    20706846.7484   20706853.7184
   5897293.888 9   4592867.70545  23842336.168    23842336.0944   23842346.4854
  -3146134.083 9  -2432495.37446  23643754.881    23643754.7594   23643764.4894
  -2337464.200 9  -1806209.76648  21363061.155    21363060.7314   21363067.9044
  -7633833.570 9  -5920636.96548  21489042.805    21489042.3554   21489049.9624
   5637541.764 8   4385712.02045  25277792.097    25277792.0684   25277802.3064
   -355335.423 9   -265452.79949  20190148.216    20190147.9314   20190154.6054
   3731668.115 9   2911649.67748  21888971.154    21888971.5304   21888977.4024
 00  4 29 13 35 15.0000000  0  9 26 27 19 11  2  7 18  8 13          0.000000026
  -6431604.499 9  -4976694.33446  23254933.583    23254933.8444   23254941.4034
    746240.804 9    589144.43149  20710271.706    20710271.6074   20710278.5774
   5942322.463 9   4627954.80545  23850904.911    23850904.9114   23850915.2504
  -3152716.076 9  -2437624.20146  23642502.395    23642502.2474   23642512.0864
  -2343568.590 9  -1810966.44848  21361899.533    21361899.1054   21361906.2824
  -7667774.087 9  -5947084.12848  21482584.108    21482583.6474   21482591.2704
   5693326.199 8   4429180.33845  25288407.643    25288407.8194   25288418.0144
   -344326.980 9   -256874.81049  20192243.066    20192242.7914   20192249.4674
   3768412.055 9   2940281.28048  21895963.359    21895963.7104   21895969.6074
 00  4 29 13 35 30.0000000  0  9 26 27 19 11  2  7 18  8 13          0.000000018
  -6460005.327 9  -4998824.86746  23249529.090    23249529.3064   23249536.9134
    764350.023 9    603255.48349  20713717.814    20713717.7114   20713724.6714
   5987396.305 9   4663077.19045  23859482.276    23859482.2044   23859492.6144
  -3159188.976 9  -2442668.04146  23641270.625    23641270.5184   23641280.4024
  -2349640.047 9  -1815697.46848  21360744.215    21360743.7854   21360750.9744
  -7701608.644 9  -5973448.72148  21476145.604    21476145.1644   21476152.7914
   5749078.008 8   4472623.23445  25299017.022    25299017.2054   25299027.1564
   -333210.104 9   -248212.33249  20194358.555    20194358.2874   20194364.9654
   3805259.427 9   2968993.47948  21902975.241    21902975.5954   21902981.4754
 00  4 29 13 35 45.0000000  0  9 26 27 19 11  2  7 18  8 13          0.000000009
  -6488286.043 9  -5020861.80946  23244147.464    23244147.6814   23244155.3024
    782573.954 9    617455.92649  20717185.752    20717185.6414   20717192.5954
   6032514.723 9   4698234.30145  23868068.131    23868068.0404   23868078.4154
  -3165547.280 9  -2447622.56746  23640060.727    23640060.5964   23640070.4744
  -2355682.143 9  -1820405.60948  21359594.439    21359594.0014   21359601.1904
  -7735335.497 9  -5999729.39048  21469727.622    21469727.1874   21469734.8274
   5804794.310 8   4516038.44045  25309619.558    25309619.5954   25309629.7874
   -321981.977 9   -239463.16349  20196495.243    20196494.9674   20196501.6484
   3842209.937 9   2997786.04948  21910006.715    21910007.0784   21910012.9564
 00  4 29 13 36  0.0000000  0  9 26 27 19 11  2  7 18  8 13         -0.000000001
  -6516443.897 9  -5042803.01446  23238789.255    23238789.5004   23238797.0894
    800913.696 9    631746.61049  20720675.729    20720675.6244   20720682.5754
   6077678.347 9   4733426.63345  23876662.490    23876662.3704   23876672.8454
  -3171790.421 9  -2452487.35746  23638872.780    23638872.5994   23638882.4404
  -2361697.820 9  -1825093.15648  21358449.691    21358449.2534   21358456.4534
  -7768951.901 9  -6025924.00148  21463330.647    21463330.2364   21463337.8554
   5860477.345 8   4559427.75645  25320215.744    25320215.8694   25320225.7834
   -310640.247 9   -230625.47349  20198653.536    20198653.2534   20198659.9344
   3879259.735 9   3026655.98548  21917057.069    21917057.4474   21917063.3324
 00  4 29 13 36 15.0000000  0  8 26 27 19 11  2  7  8 13            -0.000000010
  -6544480.780 9  -5064649.96346  23233454.052    23233454.2744   23233461.8384
    819369.521 9    646127.75049  20724187.785    20724187.6734   20724194.6264
   6122890.655 9   4768656.91445  23885266.209    23885266.0744   23885276.6704
  -3177914.010 9  -2457258.99346  23637707.586    23637707.3354   23637717.1804
  -2367689.117 9  -1829761.72048  21357309.621    21357309.1924   21357316.3734
  -7802456.532 9  -6052031.51448  21456954.986    21456954.5594   21456962.1774
   -299183.485 9   -221698.14849  20200833.708    20200833.4244   20200840.1114
   3916407.722 9   3055602.42848  21924126.079    21924126.4534   21924132.3634
 00  4 29 13 36 30.0000000  0  8 26 27 19 11  2  7  8 13            -0.000000018
  -6572402.029 9  -5086406.80646  23228140.877    23228141.1024   23228148.6384
    837941.779 9    660599.61049  20727722.041    20727721.9174   20727728.8804
   6168156.031 9   4803928.53545  23893879.991    23893879.9214   23893890.5064
  -3183913.598 9  -2461933.99546  23636565.928    23636565.6664   23636575.5014
  -2373657.809 9  -1834412.67148  21356173.838    21356173.4094   21356180.5674
  -7835850.036 9  -6078052.43148  21450600.458    21450600.0184   21450607.6384
   -287614.175 9   -212683.12349  20203035.304    20203035.0204   20203041.7014
   3953653.794 9   3084625.31148  21931213.794    21931214.1664   21931220.0984
 00  4 29 13 36 45.0000000  0  8 26 27 19 11  2  7  8 13            -0.000000025
  -6600211.102 9  -5108076.24046  23222848.994    23222849.2664   23222856.7384
    856632.406 9    675163.70649  20731278.769    20731278.6544   20731285.5964
   6213476.262 9   4839242.90845  23902504.215    23902504.1604   23902514.7944
  -3189786.642 9  -2466510.40746  23635448.325    23635448.0604   23635457.9314
  -2379603.825 9  -1839045.94448  21355042.382    21355041.9524   21355049.1074
  -7869134.992 9  -6103988.76948  21444266.547    21444266.1034   21444273.7244
   -275935.872 9   -203583.17249  20205257.663    20205257.3714   20205264.0384
   3990998.477 9   3113725.02248  21938320.297    21938320.6574   21938326.6104
 00  4 29 13 37  0.0000000  0  8 26 27 19 11  2  7  8 13            -0.000000031
  -6627910.832 9  -5129660.47146  23217577.954    23217578.2554   23217585.6724
    875440.758 9    689819.54049  20734857.915    20734857.8064   20734864.7394
   6258853.020 9   4874601.31145  23911139.187    23911139.1624   23911149.8514
  -3195532.504 9  -2470987.71946  23634354.936    23634354.7464   23634364.5654
  -2385525.859 9  -1843660.53048  21353915.454    21353915.0324   21353922.1724
  -7902313.291 9  -6129841.99148  21437952.964    21437952.4944   21437960.1274
   -264150.063 9   -194399.44649  20207500.432    20207500.1394   20207506.8104
   4028438.791 9   3142899.25448  21945444.946    21945445.3144   21945451.2994
 00  4 29 13 37 15.0000000  0  8 26 27 19 11  2  7  8 13            -0.000000036
  -6655499.849 9  -5151158.41946  23212327.985    23212328.3104   23212335.7014
    894365.822 9    704566.31449  20738459.259    20738459.1244   20738466.0424
   6304284.810 9   4910002.60646  23919784.609    23919784.6374   23919795.2654
  -3201151.141 9  -2475365.87446  23633285.812    23633285.6074   23633295.3204
  -2391424.141 9  -1848256.60848  21352793.078    21352792.6594   21352799.7954
  -7935386.262 9  -6155613.14148  21431659.368    21431658.9014   21431666.5464
   -252257.666 9   -185132.66749  20209763.491    20209763.2124   20209769.8564
   4065971.323 9   3172145.33548  21952587.145    21952587.5304   21952593.5274
 00  4 29 13 37 30.0000000  0  8 26 27 19 11  2  7  8 13            -0.000000039
  -6682975.137 9  -5172567.75446  23207099.615    23207099.9294   23207107.3514
    913403.381 9    719400.75049  20742082.007    20742081.8854   20742088.8154
   6349770.353 9   4945445.78946  23928440.265    23928440.3154   23928451.0304
  -3206642.660 9  -2479644.98746  23632240.849    23632240.6904   23632250.2624
  -2397299.439 9  -1852834.77048  21351675.094    21351674.6634   21351681.7864
  -7968355.013 9  -6181303.08448  21425385.581    21425385.1444   21425392.8024
   -240259.614 9   -175783.55249  20212046.634    20212046.3614   20212053.0124
   4103595.583 9   3201462.90748  21959746.857    21959747.2334   21959753.2674
 00  4 29 13 37 45.0000000  0  8 26 27 19 11  2  7  8 13            -0.000000040
  -6710336.603 9  -5193888.39546  23201892.900    23201893.2244   23201900.6434
    932550.895 9    734320.86449  20745725.663    20745725.5434   20745732.4784
   6395308.496 9   4980929.95346  23937105.930    23937105.9664   23937116.7634
  -3212009.680 9  -2483827.08646  23631219.545    23631219.3574   23631228.9394
  -2403152.695 9  -1857395.76348  21350561.289    21350560.8444   21350567.9634
  -8001222.924 9  -6206914.45548  21419131.031    21419130.5844   21419138.2624
   -228157.364 9   -166353.25049  20214349.665    20214349.3874   20214356.0004
   4141312.525 9   3230852.68948  21966924.187    21966924.5744   21966930.6184
 00  4 29 13 38  0.0000000  0  8 26 27 19 11  2  7  8 13            -0.000000039
  -6737585.545 9  -5215121.34946  23196707.595    23196707.9144   23196715.3284
    951805.752 9    749324.61849  20749389.759    20749389.6364   20749396.5704
   6440901.113 9   5016456.57346  23945781.955    23945782.0204   23945792.8944
  -3217255.467 9  -2487914.72146  23630221.278    23630221.1184   23630230.7134
  -2408982.400 9  -1861938.41248  21349451.964    21349451.5224   21349458.6234
  -8033992.639 9  -6232449.30548  21412895.179    21412894.7414   21412902.4414
   -215951.267 9   -156842.03249  20216672.429    20216672.1394   20216678.7464
   4179120.174 9   3260313.15348  21974118.756    21974119.1544   21974125.2154
 00  4 29 13 38 15.0000000  0  8 26 27 19 11  2  7  8 13            -0.000000036
  -6764721.787 9  -5236266.48746  23191543.676    23191543.9984   23191551.4134
    971165.046 9    764409.75249  20753073.751    20753073.6364   20753080.5664
   6486547.854 9   5052025.36146  23954468.357    23954468.3864   23954479.3374
  -3222382.933 9  -2491910.15246  23629245.506    23629245.3634   23629254.9614
  -2414787.691 9  -1866462.03548  21348347.256    21348346.8274   21348353.9064
  -8066665.260 9  -6257908.49948  21406677.797    21406677.3564   21406685.0794
   -203642.799 9   -147251.03849  20219014.716    20219014.4174   20219021.0184
   4217018.222 9   3289844.05648  21981330.505    21981330.9214   21981337.0094
 00  4 29 13 38 30.0000000  0  8 26 27 19 11  2  7  8 13            -0.000000031
  -6791744.701 9  -5257323.32146  23186401.387    23186401.7084   23186409.1154
    990628.204 9    779575.81849  20756777.504    20756777.3824   20756784.3064
   6532246.695 9   5087634.75446  23963164.641    23963164.6864   23963175.6304
  -3227391.821 9  -2495813.18346  23628292.387    23628292.2044   23628301.8204
  -2420566.885 9  -1870965.31948  21347247.553    21347247.1284   21347254.2014
  -8099244.817 9  -6283295.16948  21400478.058    21400477.6384   21400485.3814
   -191234.615 9   -137582.34749  20221375.939    20221375.6334   20221382.2434
   4255006.359 9   3319445.15848  21988559.433    21988559.8474   21988565.9704
 00  4 29 13 38 45.0000000  0  8 26 27 19 11  2  7  8 13            -0.000000025
  -6818650.192 9  -5278288.64946  23181281.455    23181281.7834   23181289.2144
   1010195.229 9    794822.82649  20760501.022    20760500.9044   20760507.8254
   6577995.465 9   5123283.05246  23971870.437    23971870.4984   23971881.4624
  -3232286.242 9  -2499627.02646  23627361.064    23627360.7994   23627370.4664
  -2426318.605 9  -1875447.19848  21346153.061    21346152.6264   21346159.6944
  -8131732.780 9  -6308610.46948  21394295.780    21394295.3584   21394303.1164
   -178726.696 9   -127835.93849  20223756.096    20223755.7854   20223762.4294
   4293082.359 9   3349114.71848  21995805.080    21995805.4714   21995811.6404
 00  4 29 13 39  0.0000000  0  8 26 27 19 11  2  7  8 13            -0.000000017
  -6845434.744 9  -5299159.74546  23176184.552    23176184.9114   23176192.2964
   1029864.044 9    810149.15049  20764243.852    20764243.7434   20764250.6824
   6623791.035 9   5158967.82346  23980585.149    23980585.2264   23980596.2544
  -3237069.282 9  -2503354.07046  23626450.831    23626450.5294   23626460.3034
  -2432044.676 9  -1879909.08649  21345063.456    21345063.0104   21345070.0804
  -8164129.351 9  -6333854.55648  21388130.850    21388130.4364   21388138.2034
   -166119.813 9   -118012.41349  20226155.111    20226154.8144   20226161.4724
   4331244.182 9   3378851.15548  22003067.091    22003067.4834   22003073.6594
 00  4 29 13 39 15.0000000  0  8 26 27 19 11  2  7  8 13            -0.000000009
  -6872095.606 9  -5319934.45946  23171111.193    23171111.5434   23171118.9104
   1049631.636 9    825552.44149  20768005.508    20768005.3994   20768012.3704
   6669631.588 9   5194687.64446  23989308.379    23989308.4274   23989319.5234
  -3241744.385 9  -2506997.01346  23625561.114    23625560.8554   23625570.6714
  -2437745.274 9  -1884351.12149  21343978.683    21343978.2514   21343985.3064
  -8196432.327 9  -6359025.70948  21381983.784    21381983.4014   21381991.1754
   -153410.525 9   -108109.08849  20228573.612    20228573.3304   20228579.9914
   4369494.669 9   3408656.68448  22010345.914    22010346.3344   22010352.4954
 00  4 29 13 39 30.0000000  0  8 26 27 19 11  2  7  8 13             0.000000000
  -6898633.240 9  -5340613.14746  23166061.268    23166061.6294   23166068.9964
   1069495.694 9    841030.89749  20771785.525    20771785.4124   20771792.4054
   6715515.241 9   5230441.04446  23998039.778    23998039.8834   23998050.9494
  -3246313.877 9  -2510557.65246  23624691.580    23624691.2674   23624701.1064
  -2443423.002 9  -1888775.33549  21342898.268    21342897.8394   21342904.8954
  -8228642.842 9  -6384124.81548  21375854.341    21375853.9444   21375861.7184
   -140598.126 9    -98125.42549  20231011.721    20231011.4524   20231018.1204
   4407835.737 9   3438532.79848  22017642.005    22017642.4244   22017648.6104
 00  4 29 13 39 45.0000000  0  8 26 27 19 11  2  7  8 13             0.000000009
  -6925051.365 9  -5361198.72047  23161034.088    23161034.4394   23161041.8034
   1089459.795 9    856587.30349  20775584.598    20775584.4924   20775591.4954
   6761444.797 9   5266230.20946  24006779.980    24006780.0924   24006791.2134
  -3250777.005 9  -2514035.39946  23623842.330    23623841.9854   23623851.8684
  -2449074.693 9  -1893179.26249  21341822.819    21341822.3844   21341829.4244
  -8260760.911 9  -6409151.88548  21369742.483    21369742.0764   21369749.8454
   -127685.369 9    -88063.56149  20233468.979    20233468.7014   20233475.3814
   4446267.828 9   3468479.83148  22024955.386    22024955.8204   22024962.0174
 00  4 29 13 40  0.0000000  0  8 26 27 19 11  2  7  8 13             0.000000019
  -6951350.664 9  -5381691.69647  23156029.578    23156029.9244   23156037.2384
   1109525.367 9    872222.78349  20779402.984    20779402.8694   20779409.8904
   6807421.934 9   5302056.46346  24015529.270    24015529.2754   24015540.4894
  -3255131.507 9  -2517428.52346  23623013.656    23623013.3784   23623023.2734
  -2454699.152 9  -1897561.96949  21340752.564    21340752.1054   21340759.1464
  -8292786.750 9  -6434107.08248  21363648.158    21363647.7544   21363655.5184
   -114673.145 9    -77924.19349  20235945.155    20235944.8674   20235951.5524
   4484790.035 9   3498497.09248  22032285.952    22032286.3754   22032292.6054
 00  4 29 13 40 15.0000000  0  8 26 27 19 11  2  7  8 13             0.000000029
  -6977531.702 9  -5402092.51947  23151047.525    23151047.8334   23151055.1774
   1129692.796 9    887937.63549  20783240.735    20783240.5924   20783247.6674
   6853445.711 9   5337919.04046  24024287.409    24024287.4214   24024298.5834
  -3259375.059 9  -2520735.19246  23622206.118    23622205.8974   23622215.7944
  -2460296.567 9  -1901923.60349  21339687.402    21339686.9524   21339693.9704
  -8324720.178 9  -6458990.27048  21357571.430    21357571.0414   21357578.8104
   -101562.819 9    -67708.37149  20238439.989    20238439.6904   20238446.3804
   4523400.888 9   3528583.42848  22039633.421    22039633.8294   22039640.0694
 00  4 29 13 40 30.0000000  0  8 26 27 19 11  2  7  8 13             0.000000039
  -7003594.638 9  -5422401.31947  23146087.937    23146088.2564   23146095.5984
   1149963.298 9    903732.79749  20787098.067    20787097.9224   20787105.0324
   6899516.077 9   5373817.93946  24033054.419    24033054.4324   24033065.5594
  -3263507.887 9  -2523955.57846  23621419.633    23621419.4224   23621429.3354
  -2465866.538 9  -1906263.85649  21338627.472    21338627.0364   21338634.0494
  -8356560.728 9  -6483801.09248  21351512.355    21351511.9764   21351519.7494
    -88355.313 9    -57416.82649  20240953.291    20240952.9904   20240959.6894
   4562101.139 9   3558739.41648  22046997.871    22046998.2804   22047004.5084
 00  4 29 13 40 45.0000000  0  8 26 27 19 11  2  7  8 13             0.000000049
  -7029540.689 9  -5442619.02647  23141150.586    23141150.8844   23141158.2664
   1170338.049 9    919609.19149  20790975.265    20790975.1474   20790982.2684
   6945633.039 9   5409753.13046  24041830.276    24041830.2674   24041841.4764
  -3267530.346 9  -2527089.96746  23620654.153    23620653.9324   23620663.8714
  -2471409.885 9  -1910583.36749  21337572.631    21337572.2064   21337579.2144
  -8388307.514 9  -6508538.85048  21345471.194    21345470.7984   21345478.5804
    -75051.489 9    -47050.23249  20243484.973    20243484.6774   20243491.3784
   4600889.635 9   3588964.17848  22054379.129    22054379.5414   22054385.7704
 00  4 29 13 41  0.0000000  0  8 26 27 19 11  2  7  8 13             0.000000058
  -7055371.484 9  -5462746.94447  23136235.150    23136235.4674   23136242.8344
   1190816.401 9    935566.31649  20794872.189    20794872.0704   20794879.2074
   6991796.008 9   5445724.17646  24050614.882    24050614.8264   24050626.1034
  -3271443.544 9  -2530139.20346  23619909.484    23619909.2874   23619919.2614
  -2476926.648 9  -1914882.16049  21336522.843    21336522.4134   21336529.4294
  -8419956.708 9  -6533200.56148  21339448.569    21339448.1574   21339455.9414
    -61652.841 9    -36609.74949  20246034.676    20246034.3824   20246041.0634
   4639768.075 9   3619259.03248  22061777.488    22061777.9094   22061784.1164
 00  4 29 13 41 15.0000000  0  8 26 27 19 11  2  7  8 13             0.000000064
  -7081091.155 9  -5482788.26047  23131340.904    23131341.2264   23131348.5754
   1211398.346 9    951604.16449  20798788.802    20798788.6884   20798795.8334
   7038003.485 9   5481729.89646  24059407.906    24059407.8084   24059419.2354
  -3275247.811 9  -2533103.56446  23619185.572    23619185.3684   23619195.3614
  -2482415.368 9  -1919159.10349  21335478.389    21335477.9564   21335484.9674
  -8451507.150 9  -6557785.32148  21333444.704    21333444.2944   21333452.1144
    -48157.760 9    -26094.12349  20248602.731    20248602.4444   20248609.1214
   4678738.559 9   3649625.60748  22069193.385    22069193.7854   22069199.9974
 00  4 29 13 41 30.0000000  0  8 26 27 19 11  2  7  8 13             0.000000067
  -7106700.967 9  -5502743.97047  23126467.537    23126467.8294   23126475.1934
   1232087.643 9    967725.66349  20802725.863    20802725.7734   20802732.9284
   7084257.855 9   5517772.16846  24068209.898    24068209.8544   24068221.2284
  -3278940.632 9  -2535981.09146  23618482.886    23618482.6754   23618492.6874
  -2487874.165 9  -1923412.72549  21334439.632    21334439.1854   21334446.2094
  -8482957.254 9  -6582291.90048  21327459.936    21327459.5374   21327467.3564
    -34564.997 9    -15502.37849  20251189.332    20251189.0434   20251195.7164
   4717801.090 9   3680063.91248  22076626.801    22076627.2094   22076633.4304
 00  4 29 13 41 45.0000000  0  8 26 27 19 11  2  7  8 13             0.000000067
  -7132201.844 9  -5522614.81546  23121614.903    23121615.1894   23121622.5804
   1252888.138 9    983933.80649  20806684.065    20806683.9724   20806691.1574
   7130561.204 9   5553852.59246  24077021.306    24077021.2854   24077032.5024
  -3282517.608 9  -2538768.34546  23617802.205    23617802.0164   23617812.0174
  -2493300.243 9  -1927640.85849  21333407.079    21333406.6504   21333413.6864
  -8514305.685 9  -6606719.25448  21321494.530    21321494.1374   21321501.9654
    -20876.787 9     -4836.26249  20253794.138    20253793.8604   20253800.5454
   4756952.463 9   3710571.42648  22084077.101    22084077.4914   22084083.7314
 00  4 29 13 42  0.0000000  0  8 26 27 19 11  2  7  8 13             0.000000065
  -7157591.134 9  -5542398.67946  23116783.500    23116783.8034   23116791.1574
   1273798.994 9   1000227.94349  20810663.278    20810663.1984   20810670.4064
   7176914.065 9   5589971.60346  24085842.078    24085842.0684   24085853.2144
  -3285976.660 9  -2541463.70446  23617144.000    23617143.8224   23617153.8094
  -2498691.096 9  -1931841.53949  21332381.249    21332380.8204   21332387.8664
  -8545552.297 9  -6631067.26848  21315548.534    21315548.1334   21315555.9574
     -7089.328 9      5907.18849  20256417.813    20256417.5344   20256424.2294
   4796193.183 9   3741148.56348  22091544.440    22091544.8214   22091551.0524
 00  4 29 13 42 15.0000000  0  8 26 27 19 11  2  7  8 13             0.000000060
  -7182866.793 9  -5562094.02546  23111973.699    23111974.0144   23111981.3684
   1294819.550 9   1016607.56849  20814663.384    20814663.3084   20814670.5284
   7223313.910 9   5626127.22046  24094671.679    24094671.7264   24094682.8954
  -3289319.428 9  -2544068.46746  23616507.884    23616507.6924   23616517.6894
  -2504047.606 9  -1936015.44849  21331361.973    21331361.5364   21331368.5954
  -8576694.557 9  -6655333.96748  21309622.374    21309621.9664   21309629.7774
      6800.887 9     16730.71349  20259061.055    20259060.7844   20259067.4834
   4835523.020 9   3771795.14648  22099028.713    22099029.0904   22099035.3134
 00  4 29 13 42 30.0000000  0  8 26 27 19 11  2  7  8 13             0.000000050
  -7208027.099 9  -5581699.48146  23107185.872    23107186.1874   23107193.5384
   1315953.206 9   1033075.31249  20818685.007    20818684.9144   20818692.1684
   7269761.061 9   5662319.69545  24103510.305    24103510.4574   24103521.6304
  -3292545.638 9  -2546582.40746  23615893.977    23615893.8074   23615903.8044
  -2509367.758 9  -1940161.04049  21330349.548    21330349.1274   21330356.1774
  -8607730.467 9  -6679517.80048  21303716.437    21303716.0344   21303723.8064
     20796.567 9     27636.41149  20261724.392    20261724.1104   20261730.8104
   4874940.367 9   3802509.90848  22106529.648    22106530.0174   22106536.2224
 00  4 29 13 42 45.0000000  0  8 26 27 19 11  2  7  8 13             0.000000039
  -7233068.715 9  -5601212.44646  23102420.644    23102420.9274   23102428.3084
   1337200.867 9   1049631.89349  20822728.327    20822728.2454   20822735.5104
   7316258.177 9   5698551.10545  24112358.492    24112358.5514   24112369.8094
  -3295653.110 9  -2549003.81446  23615302.624    23615302.4564   23615312.4444
  -2514651.322 9  -1944278.11749  21329344.134    21329343.7234   21329350.7904
  -8638657.612 9  -6703616.87748  21297831.194    21297830.7884   21297838.5334
     34899.855 9     38625.96349  20264408.164    20264407.8724   20264414.5814
   4914443.913 9   3833291.84848  22114046.949    22114047.3134   22114053.5244
 00  4 29 13 43  0.0000000  0  8 26 27 19 11  2  7  8 13             0.000000028
  -7257989.880 9  -5620631.55547  23097678.400    23097678.6694   23097686.0054
   1358562.518 9   1066277.30549  20826793.344    20826793.2614   20826800.5464
   7362807.181 9   5734822.96146  24121216.540    24121216.5594   24121227.8384
  -3298638.410 9  -2551330.02446  23614734.576    23614734.4404   23614744.3344
  -2519897.925 9  -1948366.39449  21328345.793    21328345.3744   21328352.4554
  -8669475.536 9  -6727630.84448  21291966.770    21291966.3684   21291974.0944
     49113.558 9     49701.55049  20267112.947    20267112.6504   20267119.3804
   4954033.706 9   3864140.99848  22121580.669    22121581.0284   22121587.2484
 00  4 29 13 43 15.0000000  0  8 26 27 19 11  2  7  8 13             0.000000015
  -7282792.353 9  -5639958.16847  23092958.672    23092958.9274   23092966.3174
   1380036.887 9   1083010.55149  20830879.822    20830879.7324   20830887.0394
   7409408.784 8   5771135.78946  24130084.570    24130084.5704   24130096.0204
  -3301501.114 9  -2553560.70646  23614189.859    23614189.6974   23614199.5584
  -2525108.996 9  -1952426.98549  21327354.149    21327353.7304   21327360.8234
  -8700187.784 9  -6751562.45948  21286122.468    21286122.0644   21286129.7554
     63442.635 9     60867.04449  20269839.677    20269839.3824   20269846.1364
   4993709.192 9   3895056.92848  22129130.691    22129131.0514   22129137.2674
 00  4 29 13 43 30.0000000  0  8 26 27 19 11  2  7  8 13             0.000000002
  -7307473.743 9  -5659190.43947  23088261.927    23088262.1894   23088269.6034
   1401626.130 9   1099833.30649  20834988.149    20834988.0484   20834995.3594
   7456067.189 8   5807492.88845  24138963.339    24138963.4134   24138974.9434
  -3304236.416 9  -2555692.11146  23613669.419    23613669.2364   23613679.1074
  -2530285.340 9  -1956460.52149  21326369.147    21326368.7324   21326375.8314
  -8730794.003 9  -6775411.46348  21280298.327    21280297.9164   21280305.5874
     77891.418 9     72125.80749  20272589.189    20272588.9194   20272595.6704
   5033469.322 9   3926038.79848  22136696.850    22136697.2134   22136703.4334
 00  4 29 13 43 45.0000000  0  8 26 27 19 11  2  7  8 13            -0.000000006
  -7332031.739 9  -5678326.56047  23083588.732    23083588.9944   23083596.4124
   1423328.615 9   1116744.30549  20839118.007    20839117.9194   20839125.2224
   7502784.539 8   5843895.92145  24147853.439    24147853.5384   24147865.0374
  -3306840.408 9  -2557721.20046  23613173.943    23613173.7404   23613183.6174
  -2535428.070 9  -1960467.85449  21325390.536    21325390.1194   21325397.2234
  -8761293.728 9  -6799177.47948  21274494.460    21274494.0344   21274501.7184
     92459.413 9     83477.46649  20275361.415    20275361.1394   20275367.8904
   5073312.651 9   3957085.50448  22144278.818    22144279.1854   22144285.3934
 00  4 29 13 44  0.0000000  0  8 26 27 19 11  2  7  8 13            -0.000000011
  -7356465.395 9  -5697365.79447  23078939.176    23078939.4224   23078946.8414
   1445141.359 9   1133741.21249  20843268.898    20843268.8054   20843276.1134
   7549559.645 8   5880343.94845  24156754.516    24156754.5374   24156766.1734
  -3309312.915 9  -2559647.83646  23612703.428    23612703.2564   23612713.0794
  -2540539.415 9  -1964450.73149  21324417.917    21324417.4934   21324424.6154
  -8791689.202 9  -6822862.26148  21268710.403    21268709.9684   21268717.6514
    107146.472 9     94921.90749  20278156.355    20278156.0554   20278162.7894
   5113239.840 9   3988197.55148  22151876.738    22151877.1144   22151883.2834
 00  4 29 13 44 15.0000000  0  8 26 27 19 11  2  7  8 13            -0.000000010
  -7380775.259 9  -5716308.56747  23074313.182    23074313.4654   23074320.8614
   1467063.119 9   1150823.07348  20847440.505    20847440.4074   20847447.7104
   7596391.897 8   5916836.49945  24165666.449    24165666.4874   24165678.1554
  -3311654.649 9  -2561472.56946  23612257.785    23612257.6544   23612267.4994
  -2545624.077 9  -1968412.81949  21323450.363    21323449.9234   21323457.0724
  -8821982.895 9  -6846467.74048  21262945.690    21262945.2694   21262952.9504
    121950.730 9    106457.66749  20280973.527    20280973.2144   20280979.9464
   5153250.192 9   4019374.40848  22159490.508    22159490.8934   22159497.0594
 00  4 29 13 44 30.0000000  0  8 26 27 19 11  2  7  8 13            -0.000000005
  -7404963.703 9  -5735156.72647  23069710.262    23069710.5324   23069717.9224
   1489093.873 9   1167989.86448  20851632.865    20851632.7654   20851640.0564
   7643279.685 8   5953372.33045  24174588.945    24174588.9604   24174600.6544
  -3313864.779 9  -2563194.75846  23611837.253    23611837.1354   23611846.9104
  -2550685.267 9  -1972356.61749  21322487.233    21322486.8004   21322493.9714
  -8852175.071 9  -6869994.11148  21257200.284    21257199.8774   21257207.5714
    136868.219 9    118081.66349  20283812.248    20283811.9394   20283818.6634
   5193341.418 9   4050614.29348  22167119.674    22167120.0424   22167126.2094
 00  4 29 13 44 45.0000000  0  8 26 27 19 11  2  7  8 13             0.000000005
  -7429030.536 9  -5753910.12347  23065130.499    23065130.7824   23065138.2054
   1511228.581 9   1185237.66148  20855844.984    20855844.8794   20855852.1704
   7690224.072 8   5989952.27545  24183522.159    24183522.2264   24183533.9274
  -3315944.507 9  -2564815.34046  23611441.545    23611441.4294   23611451.0874
  -2555724.029 9  -1976282.93749  21321528.404    21321527.9634   21321535.1594
  -8882268.303 9  -6893443.38348  21251473.735    21251473.3314   21251481.0444
    151897.705 9    129792.92949  20286672.260    20286671.9594   20286678.6784
   5233512.954 9   4081916.74348  22174764.127    22174764.4594   22174770.6254
 00  4 29 13 45  0.0000000  0  8 26 27 19 11  2  7  8 13             0.000000019
  -7452980.031 9  -5772572.09247  23060573.069    23060573.3574   23060580.7834
   1533466.856 9   1202566.16048  20860076.796    20860076.6794   20860083.9834
   7737220.621 8   6026572.84245  24192465.363    24192465.4744   24192477.1744
  -3317899.475 9  -2566338.69446  23611069.563    23611069.4474   23611079.1004
  -2560743.902 9  -1980194.53949  21320573.164    21320572.7354   21320579.9354
  -8912264.575 9  -6916817.10448  21245765.632    21245765.2434   21245772.9484
    167036.655 9    141589.48949  20289553.146    20289552.8454   20289559.5704
   5273766.211 9   4113282.87647  22182424.099    22182424.4074   22182430.5794
 00  4 29 13 45 15.0000000  0  8 26 27 19 11  2  7  8 13             0.000000032
  -7476812.911 9  -5791143.18947  23056037.819    23056038.1274   23056045.5504
   1555810.960 9   1219977.12048  20864328.765    20864328.6564   20864335.9704
   7784265.007 8   6063230.70245  24201417.698    24201417.8364   24201429.5304
  -3319734.546 9  -2567768.62046  23610720.408    23610720.2584   23610729.8814
  -2565744.229 9  -1984090.91949  21319621.647    21319621.2234   21319628.4144
  -8942164.408 9  -6940115.67448  21240075.904    21240075.5124   21240083.2294
    182283.141 9    153469.84349  20292454.477    20292454.1864   20292460.9164
   5314104.200 9   4144715.03347  22190100.147    22190100.4734   22190106.6704
 00  4 29 13 45 30.0000000  0  8 26 27 19 11  2  7  8 13             0.000000045
  -7500527.785 9  -5809622.33247  23051525.053    23051525.3514   23051532.7864
   1578262.765 9   1237472.00648  20868601.247    20868601.1384   20868608.4494
   7831355.670 8   6099924.62845  24210378.833    24210378.9534   24210390.7764
  -3321449.932 9  -2569105.30246  23610394.023    23610393.8744   23610403.4504
  -2570723.141 9  -1987970.60249  21318674.186    21318673.7494   21318680.9334
  -8971966.002 9  -6963337.69848  21234404.853    21234404.4584   21234412.1704
    197634.320 9    165431.77849  20295375.764    20295375.4644   20295382.2054
   5354526.928 9   4176213.21447  22197792.331    22197792.6784   22197798.9254
 00  4 29 13 45 45.0000000  0  8 26 27 19 11  2  7  8 13             0.000000058
  -7524121.261 9  -5828006.88347  23047035.363    23047035.6594   23047043.1364
   1600822.681 9   1255051.12948  20872894.288    20872894.1764   20872901.4684
   7878488.424 9   6136651.35445  24219348.043    24219348.0644   24219359.9584
  -3323049.155 9  -2570351.46146  23610089.707    23610089.5354   23610099.1324
  -2575680.363 9  -1991833.39049  21317730.874    21317730.4524   21317737.6234
  -9001666.470 9  -6986480.93148  21228753.072    21228752.6704   21228760.3694
    213083.337 9    177469.94949  20298315.655    20298315.3484   20298322.0874
   5395032.664 9   4207776.07647  22205500.286    22205500.6524   22205506.9394
 00  4 29 13 46  0.0000000  0  8 26 27 19 11  2  7  8 13             0.000000072
  -7547591.127 9  -5846295.10647  23042569.192    23042569.5114   23042577.0174
   1623491.488 9   1272715.11248  20877208.023    20877207.9194   20877215.1974
   7925662.021 8   6173409.89645  24228325.044    24228324.9894   24228336.8854
  -3324535.575 9  -2571509.71946  23609806.847    23609806.6704   23609816.2434
  -2580614.331 9  -1995678.04249  21316791.988    21316791.5524   21316798.7454
  -9031265.786 9  -7009545.33348  21223120.545    21223120.1304   21223127.8064
    228627.378 9    189582.17049  20301273.639    20301273.3214   20301280.0444
   5435621.827 9   4239403.94447  22213224.133    22213224.5354   22213230.8404
 00  4 29 13 46 15.0000000  0  8 26 27 19 11  2  7  8 13             0.000000084
  -7570936.128 9  -5864486.04247  23038126.814    23038127.1374   23038134.6304
   1646271.377 9   1290465.64448  20881542.949    20881542.8394   20881550.0894
   7972872.597 9   6210197.25345  24237309.032    24237308.9704   24237320.7784
  -3325914.622 9  -2572584.30846  23609544.438    23609544.2524   23609553.7624
  -2585526.295 9  -1999505.56249  21315857.289    21315856.8694   21315864.0524
  -9060764.329 9  -7032531.21348  21217507.168    21217506.7664   21217514.4084
    244266.794 9    201768.70449  20304249.756    20304249.4404   20304256.1444
   5476295.114 9   4271097.37647  22220964.018    22220964.4264   22220970.7744
 00  4 29 13 46 30.0000000  0  8 26 27 19 11  2  7  8 13             0.000000092
  -7594155.323 9  -5882578.93847  23033708.386    23033708.7154   23033716.2114
   1669162.107 9   1308302.54648  20885898.961    20885898.8534   20885906.0814
   8020117.366 9   6247011.27145  24246299.501    24246299.4364   24246311.2264
  -3327190.162 9  -2573578.24046  23609301.711    23609301.5014   23609311.0204
  -2590414.402 9  -2003314.49249  21314927.137    21314926.7234   21314933.9024
  -9090159.271 9  -7055436.36248  21211913.516    21211913.0884   21211920.7744
    260000.145 9    214028.43549  20307243.760    20307243.4384   20307250.1454
   5517049.097 9   4302853.69047  22228719.256    22228719.6674   22228726.0504
 00  4 29 13 46 45.0000000  0  8 26 27 19 11  2  7  8 13             0.000000096
  -7617245.840 9  -5900571.55947  23029314.381    23029314.7074   23029322.2304
   1692166.025 9   1326227.65348  20890276.526    20890276.4124   20890283.6314
   8067397.712 9   6283853.01145  24255296.752    24255296.6974   24255308.5304
  -3328364.027 9  -2574492.95146  23609078.304    23609078.1454   23609087.6244
  -2595274.257 9  -2007101.40449  21314002.391    21314001.9534   21314009.1254
  -9119447.186 9  -7078258.11648  21206340.197    21206339.7764   21206347.4524
    275831.132 9    226364.24249  20310256.316    20310255.9924   20310262.6944
   5557885.249 9   4334674.03547  22236490.141    22236490.5584   22236496.9504
 00  4 29 13 47  0.0000000  0  8 26 27 19 11  2  7  8 13             0.000000095
  -7640207.133 9  -5918463.50047  23024945.017    23024945.3224   23024952.8814
   1715286.860 9   1344243.86048  20894676.282    20894676.1774   20894683.3934
   8114715.068 9   6320723.58745  24264300.991    24264300.9444   24264312.8094
  -3329435.833 9  -2575328.14446  23608874.298    23608874.1964   23608883.6984
  -2600106.256 9  -2010866.61349  21313082.918    21313082.4804   21313089.6474
  -9148626.885 9  -7100995.54348  21200787.459    21200787.0414   21200794.7584
    291761.388 9    238777.40549  20313287.773    20313287.4544   20313294.1724
   5598804.886 9   4366559.42347  22244276.954    22244277.3574   22244283.7784
 00  4 29 13 47 15.0000000  0  8 26 27 19 11  2  7  8 13             0.000000093
  -7663039.115 9  -5936254.66847  23020600.247    23020600.5494   23020608.1104
   1738526.306 9   1362352.49248  20899098.621    20899098.5154   20899105.7284
   8162070.329 9   6357623.71545  24273312.507    24273312.4754   24273324.3074
  -3330399.175 9  -2576078.81146  23608690.981    23608690.8544   23608700.4474
  -2604910.277 9  -2014610.02349  21312168.743    21312168.2934   21312175.4604
  -9177696.592 9  -7123647.26048  21195255.641    21195255.2304   21195262.9754
    307792.543 9    251269.19249  20316338.435    20316338.1124   20316344.8644
   5639808.782 9   4398510.46447  22252079.797    22252080.1954   22252086.6284
 00  4 29 13 47 30.0000000  0  8 26 27 19 11  2  7  8 13             0.000000089
  -7685742.139 9  -5953945.34947  23016280.000    23016280.3204   23016287.8954
   1761878.911 9   1380549.30048  20903542.511    20903542.4094   20903549.6244
   8209465.502 9   6394554.92945  24282331.610    24282331.5714   24282343.3534
  -3331246.879 9  -2576739.37446  23608529.673    23608529.4964   23608539.1714
  -2609683.212 9  -2018329.21949  21311260.480    21311260.0524   21311267.2024
  -9206657.014 9  -7146213.82648  21189744.637    21189744.2354   21189751.9934
    323925.781 9    263840.52249  20319408.491    20319408.1564   20319414.9394
   5680893.611 9   4430524.57347  22259898.026    22259898.4234   22259904.8684
 00  4 29 13 47 45.0000000  0  8 26 27 19 11  2  7  8 13             0.000000088
  -7708316.248 9  -5971535.58247  23011984.367    23011984.6554   23011992.2344
   1785342.817 9   1398832.83948  20908007.563    20908007.4484   20908014.6804
   8256902.824 9   6431518.99645  24291358.705    24291358.6324   24291370.4794
  -3331974.588 9  -2577306.43746  23608391.239    23608391.0614   23608400.7154
  -2614427.608 9  -2022026.16949  21310357.645    21310357.2274   21310364.3754
  -9235507.816 9  -7168694.96148  21184254.503    21184254.0964   21184261.8874
    340160.399 9    276490.84649  20322497.833    20322497.5184   20322504.3134
   5722057.633 9   4462600.39847  22267731.324    22267731.7304   22267738.1624
 00  4 29 13 48  0.0000000  0  8 26 27 19 11  2  7  8 13             0.000000086
  -7730765.973 9  -5989028.89547  23007712.346    23007712.6224   23007720.1774
   1808916.001 9   1417201.52548  20912493.408    20912493.3124   20912500.5524
   8304384.291 9   6468517.44845  24300394.154    24300394.1074   24300406.0044
  -3332581.277 9  -2577779.19846  23608275.768    23608275.5514   23608285.3044
  -2619144.373 9  -2025701.58649  21309460.122    21309459.7084   21309466.8444
  -9264249.276 9  -7191090.89848  21178785.205    21178784.7824   21178792.6084
    356498.416 9    289221.74449  20325606.843    20325606.5254   20325613.3284
   5763301.560 9   4494738.48047  22275579.862    22275580.2474   22275586.6804
 00  4 29 13 48 15.0000000  0  8 26 27 19 11  2  7  8 13             0.000000085
  -7753095.753 9  -6006428.73547  23003463.136    23003463.4334   23003470.9764
   1832597.825 9   1435654.86748  20916999.921    20916999.8224   20917007.0454
   8351910.622 9   6505550.86045  24309438.164    24309438.0964   24309450.0624
  -3333063.629 9  -2578155.06346  23608183.971    23608183.7944   23608193.5534
  -2623834.501 9  -2029356.24549  21308567.650    21308567.2264   21308574.3544
  -9292884.476 9  -7213404.02848  21173336.100    21173335.6954   21173343.5144
    372943.155 9    302035.80549  20328736.186    20328735.8794   20328742.6884
   5804627.253 9   4526940.27047  22283443.953    22283444.3224   22283450.7374
 00  4 29 13 48 30.0000000  0  8 26 27 19 11  2  7  8 13             0.000000081
  -7775309.476 9  -6023738.15247  22999236.034    22999236.3304   22999243.8244
   1856388.033 9   1454192.66548  20921527.093    20921526.9984   20921534.2144
   8399482.056 9   6542619.41845  24318490.748    24318490.6594   24318502.6444
  -3333418.848 9  -2578431.87046  23608116.340    23608116.2014   23608125.9634
  -2628497.658 9  -2032989.89649  21307680.299    21307679.8604   21307686.9894
  -9321414.489 9  -7235635.20748  21167907.019    21167906.6234   21167914.4224
    389496.159 9    314934.22049  20331886.128    20331885.8184   20331892.6414
   5846032.996 9   4559204.44047  22291323.211    22291323.6184   22291330.0514
 00  4 29 13 48 45.0000000  0  8 26 27 19 11  2  7  8 13             0.000000077
  -7797409.675 9  -6040959.09747  22995030.537    22995030.8614   22995038.3264
   1880286.351 9   1472814.70848  20926074.804    20926074.7004   20926081.9344
   8447103.229 9   6579726.74145  24327552.790    24327552.7154   24327564.8084
  -3333642.859 9  -2578606.43946  23608073.726    23608073.6014   23608083.4014
  -2633131.356 9  -2036600.58649  21306798.565    21306798.1404   21306805.2634
  -9349839.981 9  -7257784.94848  21162497.850    21162497.4284   21162505.2454
    406157.894 9    327917.36349  20335056.805    20335056.4834   20335063.3154
   5887517.863 9   4591530.26447  22299217.518    22299217.9534   22299224.4054
 00  4 29 13 49  0.0000000  0  8 26 27 19 11  2  7  8 13             0.000000074
  -7819397.871 9  -6058092.77947  22990846.354    22990846.6684   22990854.1184
   1904293.061 9   1491521.20548  20930643.157    20930643.0474   20930650.2904
   8494775.261 8   6616873.69045  24336624.517    24336624.4564   24336636.6264
  -3333731.521 9  -2578675.53746  23608056.891    23608056.8124   23608066.5544
  -2637737.010 9  -2040189.42749  21305922.145    21305921.7174   21305928.8364
  -9378164.114 9  -7279855.74648  21157107.944    21157107.4994   21157115.3334
    422930.671 9    340987.03149  20338248.584    20338248.2744   20338255.1084
   5929084.111 9   4623919.49847  22307127.317    22307127.7674   22307134.2324
 00  4 29 13 49 15.0000000  0  8 26 27 19 11  2  7  8 13             0.000000072
  -7841274.513 9  -6075139.52147  22986683.380    22986683.7004   22986691.1184
   1928405.906 9   1510310.40648  20935231.696    20935231.5914   20935238.8554
   8542498.146 9   6654060.27045  24345705.919    24345705.8584   24345718.1934
  -3333682.950 9  -2578637.70546  23608066.155    23608066.0564   23608075.7984
  -2642315.109 9  -2043756.79249  21305050.966    21305050.5404   21305057.6754
  -9406388.779 9  -7301849.01748  21151736.963    21151736.5284   21151744.3754
    439811.606 9    354140.98449  20341460.899    20341460.6004   20341467.4474
   5970730.021 9   4656370.80447  22315052.304    22315052.7604   22315059.2314
 00  4 29 13 49 30.0000000  0  8 26 27 19 11  2  7  8 13             0.000000072
  -7863038.033 9  -6092098.12447  22982541.922    22982542.2774   22982549.7004
   1952622.897 9   1529180.76048  20939840.040    20939839.9504   20939847.2284
   8590271.082 9   6691285.83945  24354796.916    24354796.8254   24354809.1084
  -3333499.666 9  -2578494.91346  23608101.056    23608100.9224   23608110.6854
  -2646862.592 9  -2047300.30549  21304185.641    21304185.2004   21304192.3534
  -9434515.101 9  -7323765.63548  21146384.687    21146384.2534   21146392.1374
    456798.634 9    367377.60149  20344693.436    20344693.1524   20344700.0054
   6012454.043 9   4688882.96547  22322992.157    22322992.5834   22322999.0844
 00  4 29 13 49 45.0000000  0  8 26 27 19 11  2  7  8 13             0.000000071
  -7884687.967 9  -6108968.21747  22978422.091    22978422.4194   22978429.8864
   1976946.410 9   1548134.11948  20944468.681    20944468.5864   20944475.9064
   8638092.299 9   6728549.02645  24363897.079    24363897.0244   24363909.3234
  -3333188.724 9  -2578252.62746  23608160.284    23608160.1214   23608169.8654
  -2651380.995 9  -2050821.15149  21303325.843    21303325.4154   21303332.5714
  -9462543.598 9  -7345606.01448  21141051.027    21141050.5954   21141058.5014
    473890.570 9    380695.97049  20347945.928    20347945.6314   20347952.5004
   6054255.755 9   4721455.69947  22330946.803    22330947.2374   22330953.7464
 00  4 29 13 50  0.0000000  0  8 26 27 19 11  2  7  8 13             0.000000070
  -7906221.019 9  -6125747.23047  22974324.510    22974324.7864   22974332.2504
   2001378.553 9   1567172.12348  20949117.961    20949117.8674   20949125.2124
   8685961.623 9   6765849.71245  24373006.417    24373006.4094   24373018.6334
  -3332755.645 9  -2577915.18446  23608242.707    23608242.5544   23608252.2984
  -2655872.745 9  -2054321.22949  21302471.103    21302470.6474   21302477.8374
  -9490472.536 9  -7367368.81448  21135736.312    21135735.8944   21135743.8024
    491088.072 9    394096.59649  20351218.480    20351218.2054   20351225.0764
   6096136.218 9   4754089.77647  22338916.463    22338916.9004   22338923.4064
 00  4 29 13 50 15.0000000  0  8 26 27 19 11  2  7  8 13             0.000000068
  -7927635.449 9  -6142433.81447  22970249.476    22970249.7674   22970257.2794
   2025918.415 9   1586294.06648  20953787.792    20953787.6754   20953795.0414
   8733877.529 9   6803186.67545  24382124.587    24382124.5364   24382136.8274
  -3332203.362 9  -2577484.85046  23608347.798    23608347.6814   23608357.4644
  -2660335.419 9  -2057798.65049  21301621.874    21301621.4444   21301628.6284
  -9518302.567 9  -7389054.53348  21130440.414    21130440.0114   21130447.9364
    508394.334 9    407581.96849  20354511.764    20354511.5054   20354518.3694
   6138095.225 9   4786785.05947  22346901.067    22346901.4924   22346907.9924
 00  4 29 13 50 30.0000000  0  8 26 27 19 11  2  7  8 13             0.000000065
  -7948924.072 9  -6159022.36547  22966198.372    22966198.6724   22966206.2024
   2050568.421 9   1605501.82948  20958478.539    20958478.4174   20958485.7904
   8781837.089 9   6840557.67745  24391251.075    24391251.0084   24391263.4174
  -3331532.694 9  -2576962.26746  23608475.460    23608475.3234   23608485.1424
  -2664769.204 9  -2061253.56649  21300778.162    21300777.7384   21300784.9364
  -9546033.670 9  -7410663.17148  21125163.354    21125162.9444   21125170.8724
    525809.615 9    421152.29049  20357825.793    20357825.5314   20357832.4004
   6180131.165 9   4819540.29747  22354900.330    22354900.7344   22354907.2354
 00  4 29 13 50 45.0000000  0  8 26 27 19 11  2  7  8 13             0.000000062
  -7970084.061 9  -6175510.67947  22962171.785    22962172.0994   22962179.6334
   2075327.237 9   1624794.38848  20963190.028    20963189.8864   20963197.2884
   8829840.250 8   6877962.63645  24400385.877    24400385.7944   24400398.1654
  -3330745.169 9  -2576348.64446  23608625.343    23608625.2394   23608635.0164
  -2669172.816 9  -2064684.96749  21299940.178    21299939.7494   21299946.9634
  -9573662.739 9  -7432192.29848  21119905.738    21119905.3244   21119913.2474
    543332.004 9    434806.07749  20361160.207    20361159.9424   20361166.8004
   6222241.546 9   4852353.55047  22362913.722    22362914.1174   22362920.6304
 00  4 29 13 51  0.0000000  0  8 26 27 19 11  2  7  8 13             0.000000060
  -7991112.272 9  -6191896.31047  22958170.228    22958170.5394   22958178.1424
   2100195.189 9   1644171.98448  20967922.251    20967922.1104   20967929.5344
   8877884.273 9   6915399.44845  24409528.490    24409528.3954   24409540.7344
  -3329843.407 9  -2575645.98446  23608796.925    23608796.8004   23608806.5834
  -2673548.766 9  -2068094.81149  21299107.478    21299107.0554   21299114.2834
  -9601187.932 9  -7453640.49148  21114667.896    21114667.4904   21114675.4164
    560961.422 9    448543.25649  20364514.998    20364514.7104   20364521.5834
   6264427.973 9   4885226.04447  22370941.585    22370941.9894   22370948.5024
 00  4 29 13 51 15.0000000  0  8 26 27 19 11  2  7  8 13             0.000000057
  -8012007.527 9  -6208178.34747  22954193.993    22954194.3224   22954201.9474
   2125172.014 9   1663634.41648  20972675.199    20972675.0694   20972682.5114
   8925966.724 8   6952866.18745  24418678.415    24418678.3004   24418690.7404
  -3328827.663 9  -2574854.50846  23608990.240    23608990.0664   23608999.8684
  -2677897.145 9  -2071483.17749  21298280.024    21298279.5984   21298286.8534
  -9628606.520 9  -7475005.61348  21109450.327    21109449.9124   21109457.8384
    578697.424 9    462363.49349  20367890.056    20367889.7834   20367896.6544
   6306688.337 9   4918156.15247  22378983.526    22378983.9124   22378990.4294
 00  4 29 13 51 30.0000000  0  8 26 27 19 11  2  7  8 13             0.000000052
  -8032769.845 9  -6224356.78147  22950243.054    22950243.3584   22950251.0084
   2150257.910 9   1683181.83948  20977448.892    20977448.7844   20977456.2284
   8974084.412 9   6990360.40845  24427834.984    24427834.9114   24427847.2804
  -3327699.586 9  -2573975.49246  23609204.897    23609204.6684   23609214.5224
  -2682217.940 9  -2074850.04649  21297457.801    21297457.3774   21297464.6274
  -9655914.833 9  -7496284.81048  21104253.742    21104253.3094   21104261.2114
    596538.892 9    476265.91049  20371285.182    20371284.9134   20371291.7924
   6349022.609 9   4951143.84747  22387039.499    22387039.8754   22387046.3864
 00  4 29 13 51 45.0000000  0  8 26 27 19 11  2  7  8 13             0.000000044
  -8053399.224 9  -6240431.63847  22946317.411    22946317.7154   22946325.4234
   2175454.247 9   1702815.31948  20982243.597    20982243.4854   20982250.9374
   9022236.058 8   7027881.06045  24436998.009    24436998.0084   24437010.2614
  -3326458.899 9  -2573008.74946  23609440.926    23609440.7244   23609450.5804
  -2686511.444 9  -2078195.65249  21296640.791    21296640.3734   21296647.6284
  -9683109.789 9  -7517475.68548  21099078.742    21099078.3224   21099086.2124
    614491.334 9    490254.80149  20374701.436    20374701.1684   20374708.0564
   6391433.044 9   4984190.89047  22395109.983    22395110.3384   22395116.8774
 00  4 29 13 52  0.0000000  0  8 26 27 19 11  2  7  8 13             0.000000033
  -8073895.572 9  -6256402.83147  22942417.097    22942417.3954   22942425.1244
   2200762.294 9   1722535.84748  20987059.597    20987059.4914   20987066.9294
   9070423.087 8   7065429.31445  24446167.818    24446167.7104   24446180.0684
  -3325102.839 9  -2571952.08946  23609698.972    23609698.7864   23609708.6934
  -2690778.630 9  -2081520.74949  21295828.776    21295828.3554   21295835.6284
  -9710189.723 9  -7538576.92448  21093925.562    21093925.1404   21093933.0514
    632557.566 9    504332.36049  20378139.393    20378139.1084   20378145.9894
   6433919.086 9   5017296.84947  22403194.816    22403195.2004   22403201.7584
 00  4 29 13 52 15.0000000  0  8 26 27 19 11  2  7  8 13             0.000000020
  -8094258.209 9  -6272269.83847  22938542.210    22938542.5084   22938550.2374
   2226181.821 9   1742343.24248  20991896.809    20991896.6924   20991904.1204
   9118647.170 8   7103006.43045  24455344.639    24455344.4974   24455356.9104
  -3323625.761 9  -2570801.13946  23609980.053    23609979.8514   23609989.7874
  -2695017.692 9  -2084823.92549  21295022.113    21295021.6834   21295028.9684
  -9737154.118 9  -7559588.13248  21088794.413    21088793.9924   21088801.8964
    650738.924 9    518499.62449  20381599.235    20381598.9524   20381605.8284
   6476480.485 9   5050461.52647  22411293.958    22411294.3344   22411300.9234
 00  4 29 13 52 30.0000000  0  8 26 27 19 11  2  7  8 13             0.000000007
  -8114487.870 9  -6288033.22147  22934692.623    22934692.9634   22934700.6544
   2251714.177 9   1762238.55548  20996755.504    20996755.3794   20996762.8054
   9166910.040 8   7140613.77645  24464528.827    24464528.6784   24464541.0494
  -3322024.454 9  -2569553.37146  23610284.801    23610284.5704   23610294.5314
  -2699228.264 9  -2088104.90649  21294220.888    21294220.4684   21294227.7644
  -9764003.011 9  -7580509.35448  21083685.217    21083684.7994   21083692.6884
    669033.943 9    532755.45849  20385080.650    20385080.3724   20385087.2654
   6519116.643 9   5083684.45847  22419407.352    22419407.7574   22419414.3364
 00  4 29 13 52 45.0000000  0  8 26 27 19 11  2  7  8 13            -0.000000006
  -8134587.004 9  -6303694.89947  22930867.905    22930868.2504   22930875.9574
   2277359.561 9   1782221.94148  21001635.670    21001635.5504   21001642.9814
   9215214.190 8   7178253.27645  24473720.905    24473720.7464   24473733.0944
  -3320295.834 9  -2568206.42246  23610613.752    23610613.5524   23610623.4904
  -2703409.877 9  -2091363.31649  21293425.139    21293424.7094   21293432.0234
  -9790736.023 9  -7601340.28648  21078598.089    21078597.6914   21078605.5654
    687440.127 9    547097.91349  20388583.303    20388583.0274   20388589.9164
   6561826.376 9   5116964.71947  22427534.774    22427535.1904   22427541.7694
 00  4 29 13 53  0.0000000  0  8 26 27 19 11  2  7  8 13            -0.000000018
  -8154559.056 9  -6319257.55347  22927067.411    22927067.7014   22927075.4124
   2303116.109 9   1802291.94748  21006536.998    21006536.8874   21006544.3344
   9263561.471 8   7215926.39445  24482921.121    24482921.0064   24482933.2354
  -3318438.844 9  -2566759.42546  23610967.099    23610966.9084   23610976.9184
  -2707560.365 9  -2094597.47749  21292635.360    21292634.9454   21292642.2424
  -9817353.625 9  -7622081.28748  21073532.914    21073532.5274   21073540.4194
    705957.635 9    561527.11849  20392107.090    20392106.8084   20392113.7094
   6604611.720 9   5150303.90147  22435676.579    22435676.9944   22435683.6034
 00  4 29 13 53 15.0000000  0  8 26 27 19 11  2  7  8 13            -0.000000029
  -8174404.491 9  -6334721.55347  22923290.958    22923291.2664   22923298.9454
   2328981.119 9   1822446.47548  21011458.953    21011458.8504   21011466.3084
   9311952.898 8   7253633.91845  24492129.752    24492129.6114   24492141.8604
  -3316451.405 9  -2565210.78846  23611345.323    23611345.1164   23611355.1374
  -2711681.061 9  -2097808.43049  21291851.237    21291850.8184   21291858.1134
  -9843859.001 9  -7642734.82748  21068489.155    21068488.7694   21068496.6544
    724586.214 9    576042.87349  20395651.993    20395651.6944   20395658.6244
   6647472.405 9   5183701.79247  22443832.730    22443833.1574   22443839.7624
 00  4 29 13 53 30.0000000  0  8 26 27 19 11  2  7  8 13            -0.000000071
  -8194122.609 9  -6350086.33947  22919538.747    22919539.0634   22919546.7114
   2354953.723 9   1842684.83348  21016401.400    21016401.3084   21016408.7824
   9360390.844 8   7291377.68645  24501347.200    24501347.1204   24501359.5014
  -3314332.161 9  -2563559.45046  23611748.606    23611748.4074   23611758.3784
  -2715770.482 9  -2100995.00749  21291073.057    21291072.6174   21291079.9274
  -9870254.206 9  -7663302.52148  21063466.325    21063465.9164   21063473.8104
    743324.982 9    590644.48549  20399217.882    20399217.5964   20399224.5264
   6690408.422 9   5217158.37047  22452003.258    22452003.6714   22452010.2784
 00  4 29 13 53 45.0000000  0  8 26 27 19 11  2  7  8 13            -0.000000063
  -8213716.197 9  -6365354.09147  22915810.252    22915810.5644   22915818.1914
   2381029.652 9   1863003.70848  21021363.494    21021363.4034   21021370.8924
   9408875.038 8   7329157.48645  24510573.510    24510573.4624   24510585.8504
  -3312085.925 9  -2561809.15946  23612176.059    23612175.8204   23612185.7704
  -2719832.748 9  -2104160.41649  21290300.049    21290299.6024   21290306.9344
  -9896546.246 9  -7683789.82348  21058463.107    21058462.6904   21058470.6024
    762170.481 9    605329.26249  20402804.064    20402803.8034   20402810.7454
   6733417.676 9   5250672.02547  22460187.698    22460188.0954   22460194.6984
 00  4 29 13 54  0.0000000  0  8 26 27 19 11  2  7  8 13            -0.000000054
  -8233185.638 9  -6380525.10347  22912105.351    22912105.7094   22912113.3174
   2407206.567 9   1883401.27348  21026344.826    21026344.7344   21026352.2364
   9457406.038 8   7366973.74445  24519808.782    24519808.6194   24519821.0924
  -3309715.469 9  -2559962.06446  23612627.177    23612626.9584   23612636.9004
  -2723869.615 9  -2107306.04049  21289531.859    21289531.4244   21289538.7534
  -9922740.089 9  -7704200.59948  21053478.596    21053478.1904   21053486.1154
    781118.793 9    620094.15649  20406409.823    20406409.5574   20406416.5214
   6776495.591 9   5284239.18547  22468385.219    22468385.5904   22468392.1934
 00  4 29 13 54 15.0000000  0  8 26 27 19 11  2  7  8 13            -0.000000041
  -8252528.286 9  -6395597.32147  22908424.578    22908424.9774   22908432.5264
   2433483.354 9   1903876.66448  21031345.155    21031345.0534   21031352.5874
   9505985.420 8   7404827.71945  24529053.219    24529053.1894   24529065.6334
  -3307219.444 9  -2558017.11746  23613102.243    23613102.0204   23613111.9004
  -2727879.234 9  -2110430.43849  21288768.846    21288768.4224   21288775.7534
  -9948837.556 9  -7724536.28248  21048512.396    21048511.9984   21048519.9194
    800166.304 9    634936.35349  20410034.445    20410034.1874   20410041.1734
   6819640.891 9   5317858.85647  22476595.557    22476595.9364   22476602.5374
 00  4 29 13 54 30.0000000  0  8 26 27 19 11  2  7  8 13            -0.000000026
  -8271745.400 9  -6410571.72047  22904767.732    22904768.1084   22904775.6704
   2459857.459 9   1924427.88048  21036364.040    21036363.9184   21036371.4704
   9554608.472 8   7442715.73545  24538305.833    24538305.9144   24538318.3424
  -3304600.455 9  -2555976.36446  23613600.665    23613600.4544   23613610.2954
  -2731863.086 9  -2113534.75749  21288010.785    21288010.3674   21288017.6884
  -9974839.821 9  -7744797.78348  21043564.368    21043563.9644   21043571.8784
    819309.918 9    649853.42949  20413677.355    20413677.1254   20413684.1064
   6862853.246 9   5351530.77547  22484818.636    22484819.0334   22484825.6304
 00  4 29 13 54 45.0000000  0  8 26 27 19 11  2  7  8 13            -0.000000011
  -8290838.982 9  -6425449.86747  22901134.381    22901134.7744   22901142.3034
   2486328.141 9   1945054.35248  21041401.241    21041401.1414   21041408.7084
   9603273.963 8   7480636.81045  24547566.549    24547566.6144   24547579.2534
  -3301859.939 9  -2553840.91046  23614122.181    23614121.9634   23614131.8434
  -2735820.136 9  -2116618.19048  21287257.805    21287257.3884   21287264.7114
 -10000747.218 9  -7764985.36148  21038634.362    21038633.9474   21038641.8624
    838548.858 9    664844.78949  20417338.456    20417338.2114   20417345.1814
   6906130.254 9   5385253.07047  22493054.029    22493054.4024   22493061.0424
 00  4 29 13 55  0.0000000  0  8 26 27 19 11  2  7  8 13             0.000000005
  -8309808.815 9  -6440231.56147  22897524.565    22897524.9134   22897532.4914
   2512897.223 9   1965757.50348  21046457.181    21046457.0814   21046464.6614
   9651978.727 8   7518588.48545  24556834.834    24556834.8164   24556847.6384
  -3298998.776 9  -2551611.45046  23614666.627    23614666.4564   23614676.2724
  -2739749.158 9  -2119679.79149  21286510.129    21286509.7164   21286517.0314
 -10026559.648 9  -7785098.93548  21033722.423    21033722.0074   21033729.9004
    857883.207 9    679910.49649  20421017.733    20421017.4644   20421024.4344
   6949473.183 9   5419026.73647  22501301.927    22501302.3224   22501308.9504
 00  4 29 13 55 15.0000000  0  8 26 27 19 11  2  7  8 13             0.000000019
  -8328653.640 9  -6454915.87747  22893938.514    22893938.8564   22893946.4174
   2539565.961 9   1986538.30548  21051532.119    21051532.0174   21051539.5994
   9700721.743 8   7556569.95345  24566110.448    24566110.4454   24566123.1844
  -3296020.693 9  -2549290.87746  23615233.365    23615233.1944   23615243.0274
  -2743654.402 9  -2122722.84649  21285766.993    21285766.5804   21285773.9174
 -10052274.769 9  -7805136.68448  21028828.977    21028828.5654   21028836.4604
    877313.899 9    695051.27349  20424715.306    20424715.0344   20424721.9844
   6992878.393 9   5452848.92347  22509561.697    22509562.0654   22509568.7264
 00  4 29 13 55 30.0000000  0  8 26 27 19 11  2  7  8 13             0.000000030
  -8347371.829 9  -6469501.49847  22890376.569    22890376.8624   22890384.4874
   2566339.529 9   2007400.79248  21056626.981    21056626.8804   21056634.4484
   9749504.940 8   7594582.73245  24575393.688    24575393.7584   24575406.3904
  -3292926.828 9  -2546880.08646  23615822.129    23615821.9674   23615831.8224
  -2747537.307 9  -2125748.51048  21285028.099    21285027.6924   21285035.0334
 -10077889.193 9  -7825095.96348  21023954.705    21023954.2994   21023962.1734
    896843.066 9    710268.78049  20428431.599    20428431.3214   20428438.2714
   7036345.662 9   5486719.47147  22517833.265    22517833.6184   22517840.3314
 00  4 29 13 55 45.0000000  0  8 26 27 19 11  2  7  8 13             0.000000036
  -8365964.679 9  -6483989.46547  22886838.405    22886838.7414   22886846.3984
   2593220.039 9   2028346.61748  21061742.187    21061742.0894   21061749.6734
   9798327.126 8   7632625.89345  24584684.315    24584684.3774   24584696.9724
  -3289719.314 9  -2544380.74046  23616432.550    23616432.3444   23616442.2324
  -2751396.833 9  -2128755.95648  21284293.681    21284293.2804   21284300.6074
 -10103401.396 9  -7844975.58848  21019099.871    21019099.4804   21019107.3454
    916470.611 9    725562.94849  20432166.624    20432166.3464   20432173.3014
   7079874.425 9   5520637.92547  22526116.526    22526116.9044   22526123.6324
 00  4 29 13 56  0.0000000  0  8 26 27 19 11  2  7  8 13             0.000000038
  -8384432.088 9  -6498379.67247  22883324.182    22883324.5244   22883332.2094
   2620208.156 9   2049376.28948  21066877.881    21066877.7944   21066885.4094
   9847187.442 8   7670698.75845  24593982.253    24593982.2204   24593994.8124
  -3286395.084 9  -2541790.44146  23617065.181    23617064.9954   23617074.8294
  -2755232.032 9  -2131744.43948  21283563.882    21283563.4654   21283570.7974
 -10128806.482 9  -7864771.74148  21014265.479    21014265.0674   21014272.9264
    936200.137 9    740936.58449  20435921.046    20435920.7664   20435927.7304
   7123466.042 9   5554605.37247  22534411.741    22534412.1514   22534418.9174
 00  4 29 13 56 15.0000000  0  8 26 27 19 11  2  7  8 13             0.000000038
  -8402772.561 9  -6512670.97547  22879834.103    22879834.4604   22879842.1784
   2647305.263 9   2070490.88748  21072034.273    21072034.1844   21072041.8244
   9896084.968 8   7708800.61745  24603287.155    24603287.2584   24603299.7934
  -3282951.083 9  -2539106.81646  23617720.601    23617720.4124   23617730.2254
  -2759043.262 9  -2134714.25148  21282838.645    21282838.2284   21282845.5614
 -10154100.221 9  -7884481.13248  21009452.252    21009451.8394   21009459.6784
    956032.816 9    756390.60349  20439695.082    20439694.7944   20439701.7814
   7167120.634 9   5588621.86947  22542718.932    22542719.3504   22542726.1604
 00  4 29 13 56 30.0000000  0  8 26 27 19 11  2  7  8 13             0.000000034
  -8420988.553 9  -6526865.27947  22876367.774    22876368.1204   22876375.8544
   2674513.297 9   2091691.91748  21077211.819    21077211.7304   21077219.3764
   9945019.842 8   7746931.58145  24612599.269    24612599.3724   24612612.0444
  -3279386.542 9  -2536329.26346  23618398.928    23618398.7134   23618408.5164
  -2762831.748 9  -2137666.33748  21282117.739    21282117.3174   21282124.6434
 -10179278.269 9  -7904100.38048  21004661.016    21004660.6164   21004668.4414
    975970.215 9    771926.21649  20443489.051    20443488.7574   20443495.7554
   7210840.055 9   5622688.88447  22551038.515    22551038.9414   22551045.7634
 00  4 29 13 56 45.0000000  0  8 26 27 19 11  2  7  8 13             0.000000027
  -8439080.543 9  -6540962.95747  22872925.033    22872925.3534   22872933.0704
   2701833.618 9   2112980.44848  21082410.760    21082410.6514   21082418.3094
   9993994.648 8   7785093.64745  24621919.003    24621919.0404   24621931.8484
  -3275700.515 9  -2533457.04946  23619100.347    23619100.1274   23619109.9754
  -2766596.397 9  -2140599.83948  21281401.351    21281400.9234   21281408.2424
 -10204337.404 9  -7923626.96748  20999892.403    20999891.9974   20999899.8064
    996014.191 9    787544.88049  20447303.314    20447303.0174   20447310.0264
   7254624.262 9   5656806.39047  22559370.406    22559370.8034   22559377.6604
 00  4 29 13 57  0.0000000  0  8 26 27 19 11  2  7  8 13             0.000000018
  -8457046.616 9  -6554962.51947  22869506.207    22869506.5204   22869514.2724
   2729269.584 9   2134359.09048  21087631.686    21087631.5664   21087639.2164
  10043012.416 8   7823289.19745  24631246.830    24631246.9624   24631259.7924
  -3271889.595 9  -2530487.52446  23619825.559    23619825.3954   23619835.1604
  -2770335.817 9  -2143513.68148  21280689.788    21280689.3654   21280696.6584
 -10229276.646 9  -7943060.13148  20995146.594    20995146.1934   20995153.9904
   1016165.150 9    803246.90649  20451137.934    20451137.6424   20451144.6624
   7298474.860 9   5690975.63147  22567714.953    22567715.3464   22567722.2244
 00  4 29 13 57 15.0000000  0  8 26 27 19 11  2  7  8 13             0.000000010
  -8474885.009 9  -6568862.59347  22866111.702    22866112.0204   22866119.7904
   2756819.811 9   2155826.76848  21092874.363    21092874.2474   21092881.8874
  10092073.179 8   7861518.24545  24640582.854    24640582.9994   24640595.8674
  -3267953.663 9  -2527420.58346  23620574.588    23620574.4464   23620584.1924
  -2774051.902 9  -2146409.35049  21279982.646    21279982.2254   21279989.5024
 -10254094.031 9  -7962398.34048  20990424.014    20990423.6324   20990431.4064
   1036425.096 9    819033.85649  20454993.316    20454993.0234   20455000.0574
   7342393.551 9   5725197.92847  22576072.429    22576072.8204   22576079.7494
 00  4 29 13 57 30.0000000  0  8 26 27 19 11  2  7  8 13             0.000000001
  -8492595.898 9  -6582663.30647  22862741.440    22862741.7534   22862749.5204
   2784481.992 9   2177381.67948  21098138.322    21098138.2034   21098145.8534
  10141177.826 8   7899781.49445  24649927.242    24649927.3804   24649940.1934
  -3263892.405 9  -2524255.98246  23621347.444    23621347.3214   23621357.0884
  -2777743.721 9  -2149286.10649  21279280.147    21279279.7314   21279287.0224
 -10278791.038 9  -7981642.75748  20985724.331    20985723.9264   20985731.6984
   1056796.831 9    834907.91449  20458869.965    20458869.6494   20458876.7004
   7386381.415 9   5759474.13447  22584443.110    22584443.5054   22584450.4544
 00  4 29 13 57 45.0000000  0  8 26 27 19 11  2  7  8 13            -0.000000005
  -8510180.812 9  -6596365.86347  22859395.158    22859395.4604   22859403.2384
   2812253.675 9   2199021.92148  21103423.114    21103423.0044   21103430.6474
  10190321.318 8   7938075.02445  24659278.943    24659279.0764   24659291.9274
  -3259703.420 9  -2520991.85346  23622144.611    23622144.4304   23622154.2204
  -2781407.751 9  -2152141.21649  21278582.921    21278582.5044   21278589.7894
 -10303370.698 9  -8000795.73248  20981046.977    20981046.5644   20981054.3434
   1077277.393 9    850866.77649  20462767.321    20462767.0014   20462774.0644
   7430440.902 9   5793806.14647  22592827.451    22592827.8204   22592834.7724
 00  4 29 13 58  0.0000000  0  8 26 27 19 11  2  7  8 13            -0.000000009
  -8527638.727 9  -6609969.46047  22856073.078    22856073.3694   22856081.1304
   2840131.933 9   2220745.20648  21108728.208    21108728.1024   21108735.7484
  10239500.836 8   7976396.63545  24668637.619    24668637.7174   24668650.5224
  -3255383.087 9  -2517625.37246  23622966.772    23622966.5414   23622976.4024
  -2785042.484 9  -2154973.49749  21277891.310    21277890.8924   21277898.1754
 -10327832.761 9  -8019857.06948  20976392.009    20976391.5964   20976399.3604
   1097866.925 9    866910.54949  20466685.371    20466685.0794   20466692.1494
   7474571.851 9   5828193.85147  22601225.374    22601225.7174   22601232.6554
 00  4 29 13 58 15.0000000  0  8 26 27 19 11  2  7  8 13            -0.000000008
  -8544967.965 9  -6623472.78147  22852775.462    22852775.7524   22852783.5104
   2868115.934 9   2242550.89148  21114053.430    21114053.3154   21114060.9284
  10288715.520 8   8014745.64845  24678003.004    24678003.1234   24678015.9404
  -3250932.399 9  -2514157.31846  23623813.727    23623813.5244   23623823.2924
  -2788650.437 9  -2157784.91349  21277204.772    21277204.3584   21277211.6264
 -10352180.470 9  -8038829.30148  20971758.786    20971758.3644   20971766.1374
   1118564.077 9    883038.18149  20470623.894    20470623.6124   20470630.6964
   7518771.968 9   5862635.44947  22609636.416    22609636.7644   22609643.7244
 00  4 29 13 58 30.0000000  0  8 26 27 19 11  2  7  8 13            -0.000000004
  -8562170.168 9  -6636877.10547  22849502.052    22849502.3494   22849510.0794
   2896208.635 9   2264441.27748  21119399.346    21119399.2144   21119406.8244
  10337965.431 8   8053122.11145  24687375.049    24687375.1064   24687388.0264
  -3246352.473 9  -2510588.55946  23624685.268    23624685.0714   23624694.7644
  -2792230.980 9  -2160574.95949  21276523.412    21276523.0004   21276530.2864
 -10376418.095 9  -8057715.75648  20967146.483    20967146.0974   20967153.8594
   1139366.801 9    899248.07849  20474582.556    20474582.2714   20474589.3644
   7563039.028 9   5897129.21447  22618060.203    22618060.5824   22618067.5254
 00  4 29 13 58 45.0000000  0  8 26 27 19 11  2  7  8 13             0.000000002
  -8579245.374 9  -6650182.48547  22846252.760    22846253.0484   22846260.7704
   2924410.699 9   2286416.87648  21124766.065    21124765.9284   21124773.4964
  10387251.013 8   8091526.37045  24696753.843    24696753.8534   24696766.7824
  -3241642.368 9  -2506918.36746  23625581.581    23625581.3914   23625591.0864
  -2795783.072 9  -2163342.84249  21275847.510    21275847.0974   21275854.3834
 -10400549.000 9  -8076519.05348  20962554.512    20962554.1264   20962561.8894
   1160273.863 9    915539.27649  20478561.062    20478560.7574   20478567.8524
   7607370.787 9   5931673.38947  22626496.305    22626496.6924   22626503.6294
 00  4 29 13 59  0.0000000  0  8 26 27 19 11  2  7  8 13             0.000000011
  -8596194.177 9  -6663389.36147  22843027.574    22843027.8514   22843035.5264
   2952720.666 9   2308476.55748  21130153.341    21130153.2094   21130160.7514
  10436570.096 8   8129956.74245  24706139.014    24706139.0364   24706151.9374
  -3236803.160 9  -2503147.57646  23626502.416    23626502.2334   23626511.9344
  -2799306.348 9  -2166088.27149  21275177.062    21275176.6324   21275183.9404
 -10424578.061 9  -8095242.99148  20957981.956    20957981.5614   20957989.3214
   1181284.058 9    931910.84049  20482559.177    20482558.8604   20482565.9754
   7651765.131 9   5966266.34047  22634944.348    22634944.7144   22634951.6614
 00  4 29 13 59 15.0000000  0  8 26 27 19 11  2  7  8 13             0.000000021
  -8613016.658 9  -6676497.80347  22839826.409    22839826.6974   22839834.3494
   2981139.007 9   2330620.68648  21135561.239    21135561.0954   21135568.6314
  10485919.977 8   8168411.11645  24715530.081    24715529.9654   24715542.9834
  -3231837.553 9  -2499278.29746  23627447.354    23627447.1894   23627456.9334
  -2802802.555 9  -2168812.60749  21274511.772    21274511.3524   21274518.6714
 -10448507.546 9  -8113889.33349  20953428.311    20953427.9244   20953435.6674
   1202398.418 9    948363.56649  20486577.116    20486576.8284   20486583.9274
   7696220.774 9   6000907.05647  22643404.061    22643404.4074   22643411.3494
 00  4 29 13 59 30.0000000  0  8 26 27 19 11  2  7  8 13             0.000000030
  -8629712.291 9  -6689507.40347  22836649.372    22836649.6664   22836657.2694
   3009665.044 9   2352848.73248  21140989.587    21140989.4574   21140997.0074
  10535302.161 8   8206890.65545  24724927.243    24724927.0694   24724940.2374
  -3226747.365 9  -2495311.94246  23628415.978    23628415.8184   23628425.5974
  -2806270.147 9  -2171514.64349  21273851.920    21273851.4994   21273858.8394
 -10472338.805 9  -8132459.14949  20948893.379    20948892.9834   20948900.7264
   1223618.880 9    964898.96849  20490615.279    20490614.9724   20490622.0664
   7740736.821 9   6035594.85447  22651875.233    22651875.5824   22651882.5114
 00  4 29 13 59 45.0000000  0  8 26 27 19 11  2  7  8 13             0.000000038
  -8646281.337 9  -6702418.35547  22833496.435    22833496.7294   22833504.3424
   3038299.875 9   2375161.56148  21146438.634    21146438.5054   21146446.0714
  10584717.717 9   8245396.19645  24734330.796    24734330.5984   24734343.7104
  -3221532.447 9  -2491248.39446  23629408.326    23629408.2114   23629417.9404
  -2809707.625 9  -2174193.20649  21273197.830    21273197.4024   21273204.7454
 -10496075.117 9  -8150954.97549  20944376.531    20944376.1304   20944383.8784
   1244943.879 9    981515.83049  20494673.368    20494673.0534   20494680.1374
   7785310.860 9   6070327.82847  22660357.431    22660357.7914   22660364.6944
 00  4 29 14  0  0.0000000  0  8 26 27 19 11  2  7  8 13             0.000000045
  -8662721.463 9  -6715228.85647  22830367.942    22830368.2454   22830375.9084
   3067044.636 9   2397560.03948  21151908.607    21151908.4684   21151916.0564
  10634168.844 9   8283929.46045  24743741.170    24743741.0734   24743754.0684
  -3216191.611 9  -2487086.73446  23630424.648    23630424.5684   23630434.2824
  -2813116.709 9  -2176849.64949  21272549.116    21272548.6914   21272556.0484
 -10519715.489 9  -8169376.05149  20939877.898    20939877.5044   20939885.2494
   1266374.582 9    998215.05149  20498751.503    20498751.1904   20498758.2684
   7829941.035 9   6105104.54847  22668850.264    22668850.6414   22668857.5484
 00  4 29 14  0 15.0000000  0  8 26 27 19 11  2  7  8 13             0.000000050
  -8679033.567 9  -6727939.60547  22827263.879    22827264.1844   22827271.8384
   3095899.666 9   2420044.44448  21157399.574    21157399.4374   21157407.0324
  10683659.878 8   8322493.82845  24753159.127    24753159.0344   24753172.0094
  -3210728.445 9  -2482829.75946  23631464.294    23631464.2184   23631473.9144
  -2816500.070 9  -2179486.05849  21271905.295    21271904.8774   21271912.2274
 -10543261.115 9  -8187723.29249  20935397.303    20935396.9164   20935404.6414
   1287911.779 9   1014997.26249  20502849.908    20502849.6024   20502856.6814
   7874625.377 9   6139923.46847  22677353.400    22677353.7954   22677360.7114
 00  4 29 14  0 30.0000000  0  8 26 27 19 11  2  7  8 13             0.000000051
  -8695218.825 9  -6740551.50547  22824183.900    22824184.1964   22824191.8804
   3124867.325 9   2442616.61348  21162911.977    21162911.8314   21162919.4414
  10733193.226 8   8361091.15545  24762585.065    24762585.0494   24762598.0134
  -3205145.029 9  -2478479.07546  23632526.809    23632526.7224   23632536.4414
  -2819856.740 9  -2182101.66349  21271266.588    21271266.1594   21271273.5174
 -10566709.210 9  -8205994.52949  20930935.283    20930934.8854   20930942.6254
   1309556.518 9   1031863.27549  20506968.781    20506968.4614   20506975.5524
   7919364.446 9   6174785.04247  22685866.970    22685867.3614   22685874.2934
 00  4 29 14  0 45.0000000  0  8 26 27 19 11  2  7  8 13             0.000000047
  -8711277.899 9  -6753065.08047  22821127.972    22821128.2824   22821135.9874
   3153946.522 9   2465275.69248  21168445.608    21168445.4404   21168453.0624
  10782768.034 9   8399720.78745  24772018.882    24772018.8494   24772031.9044
  -3199443.197 9  -2474036.12346  23633611.873    23633611.7714   23633621.4274
  -2823185.603 9  -2184695.59849  21270633.156    21270632.7274   21270640.0974
 -10590056.256 9  -8224187.03149  20926492.495    20926492.0814   20926499.8264
   1331309.033 9   1048813.26649  20511108.179    20511107.8564   20511114.9704
   7964159.628 9   6209690.34447  22694391.226    22694391.5904   22694398.5744
 00  4 29 14  1  0.0000000  0  8 26 27 19 11  2  7  8 13             0.000000038
  -8727206.983 9  -6765477.36347  22818096.791    22818097.0804   22818104.7764
   3183134.494 9   2488019.53348  21173999.910    21173999.7554   21174007.3864
  10832384.134 9   8438382.58945  24781460.602    24781460.5214   24781473.5804
  -3193623.892 9  -2469501.62546  23634719.323    23634719.1544   23634728.8024
  -2826485.127 9  -2187266.67649  21270005.289    21270004.8424   21270012.2254
 -10613299.241 9  -8242298.45149  20922069.495    20922069.1034   20922076.8234
   1353173.672 9   1065850.62149  20515268.877    20515268.5654   20515275.6654
   8009013.586 9   6244641.42547  22702926.678    22702927.0514   22702934.0444
 00  4 29 14  1 15.0000000  0  8 26 27 19 11  2  7  8 13             0.000000025
  -8743003.235 9  -6777786.15247  22815090.925    22815091.1914   22815098.8834
   3212430.267 9   2510847.37148  21179574.707    21179574.5754   21179582.2214
  10882038.432 9   8477074.15545  24790909.582    24790909.6004   24790922.5494
  -3187687.309 9  -2464875.75946  23635849.049    23635848.8724   23635858.5584
  -2829753.874 9  -2189813.76849  21269383.263    21269382.8434   21269390.2144
 -10636435.566 9  -8260326.75349  20917666.816    20917666.4314   20917674.1424
   1375154.251 9   1082978.32249  20519451.653    20519451.3494   20519458.4584
   8053930.871 9   6279641.85047  22711474.175    22711474.5734   22711481.6064
 00  4 29 14  1 30.0000000  0  8 26 27 19 11  2  7  8 13             0.000000010
  -8758665.327 9  -6789990.39347  22812110.580    22812110.8144   22812118.5104
   3241832.493 9   2533758.16348  21185169.755    21185169.6424   21185177.3054
  10931731.962 9   8515796.31345  24800365.934    24800365.9344   24800378.9584
  -3181632.504 9  -2460157.77646  23637001.276    23637001.0544   23637010.7644
  -2832993.115 9  -2192337.86949  21268766.871    21268766.4594   21268773.8284
 -10659464.035 9  -8278271.01349  20913284.677    20913284.2744   20913291.9774
   1397253.163 9   1100198.22749  20523656.957    20523656.6584   20523663.7504
   8098914.653 9   6314694.09847  22720034.315    22720034.7174   22720041.8034
 00  4 29 14  1 45.0000000  0  8 26 27 19 11  2  7  8 13            -0.000000006
  -8774193.643 9  -6802090.39547  22809155.621    22809155.8404   22809163.5644
   3271339.067 9   2556750.27148  21190784.692    21190784.5854   21190792.2684
  10981463.029 9   8554547.71845  24809829.463    24809829.4024   24809842.6144
  -3175458.942 9  -2455347.24146  23638176.102    23638175.8914   23638185.6184
  -2836203.991 9  -2194839.86549  21268155.865    21268155.4524   21268162.8364
 -10682383.107 9  -8296130.02749  20908923.337    20908922.9044   20908930.5904
   1419470.134 9   1117510.13349  20527884.753    20527884.4514   20527891.5414
   8143965.706 9   6349798.76847  22728607.324    22728607.7224   22728614.8144
 00  4 29 14  2  0.0000000  0  8 26 27 19 11  2  7  8 13            -0.000000021
  -8789587.822 9  -6814085.87047  22806226.216    22806226.4384   22806234.1784
   3300950.178 9   2579823.82948  21196419.544    21196419.4244   21196427.1054
  11031227.251 9   8593324.95245  24819299.361    24819299.2664   24819312.5974
  -3169165.996 9  -2450443.69146  23639373.675    23639373.4724   23639383.1624
  -2839389.836 9  -2197322.36249  21267549.661    21267549.2424   21267556.6254
 -10705189.016 9  -8313900.86749  20904583.507    20904583.0984   20904590.7864
   1441804.019 9   1134913.13349  20532134.762    20532134.4594   20532141.5304
   8189084.002 9   6384955.83347  22737193.133    22737193.5184   22737200.6214
 00  4 29 14  2 15.0000000  0  8 26 27 19 11  2  7  8 13            -0.000000035
  -8804848.203 9  -6825977.09647  22803322.261    22803322.4884   22803330.2584
   3330665.581 9   2602978.65748  21202074.208    21202074.0694   21202081.7744
  11081022.342 9   8632126.24745  24828775.098    24828774.9974   24828788.3884
  -3162754.672 9  -2445447.89646  23640593.729    23640593.5184   23640603.2434
  -2842554.482 9  -2199788.34348  21266947.444    21266947.0294   21266954.4174
 -10727878.284 9  -8331580.82949  20900265.876    20900265.4574   20900273.1604
   1464253.235 9   1152406.00049  20536406.725    20536406.4214   20536413.5084
   8234269.223 9   6420165.04447  22745791.667    22745792.0454   22745799.1134
 00  4 29 14  2 30.0000000  0  8 26 27 19 11  2  7  8 13            -0.000000049
  -8819975.850 9  -6837764.88447  22800443.561    22800443.8314   22800451.6084
   3360483.832 9   2626213.62448  21207748.451    21207748.3214   21207756.0434
  11130845.763 9   8670949.59945  24838256.232    24838256.1334   24838269.4884
  -3156224.143 9  -2440359.21446  23641836.461    23641836.2764   23641845.9674
  -2845697.114 9  -2202237.16348  21266349.460    21266349.0434   21266356.4434
 -10750448.566 9  -8349168.06549  20895970.926    20895970.5114   20895978.2144
   1486816.133 9   1169987.45349  20540700.295    20540699.9994   20540707.1144
   8279521.431 9   6455426.45447  22754402.967    22754403.3344   22754410.4174
 00  4 29 14  2 45.0000000  0  8 26 27 19 11  2  7  8 13            -0.000000061
  -8834969.047 9  -6849447.91347  22797590.465    22797590.7564   22797598.5224
   3390405.179 9   2649528.92848  21213442.312    21213442.1704   21213449.9174
  11180695.773 9   8709793.68645  24847742.456    24847742.3754   24847755.6664
  -3149572.501 9  -2435176.16146  23643102.249    23643102.0514   23643111.7954
  -2848817.312 9  -2204668.50848  21265755.736    21265755.3144   21265762.7154
 -10772900.496 9  -8366663.07649  20891698.435    20891698.0084   20891705.7314
   1509491.913 9   1187656.86349  20545015.366    20545015.0824   20545022.2094
   8324839.823 9   6490739.43447  22763026.849    22763027.2044   22763034.2814
 00  4 29 14  3  0.0000000  0  8 26 27 19 11  2  7  8 13            -0.000000069
  -8849827.326 9  -6861025.80447  22794763.055    22794763.3344   22794771.0904
   3420427.456 9   2672922.87448  21219155.392    21219155.2544   21219163.0134
  11230572.382 9   8748658.49845  24857233.735    24857233.6854   24857246.9324
  -3142798.497 9  -2429897.75846  23644391.323    23644391.1694   23644400.9314
  -2851917.016 9  -2207083.88648  21265165.913    21265165.4824   21265172.8864
 -10795237.294 9  -8384068.38149  20887447.875    20887447.4814   20887455.1974
   1532280.238 9   1205413.97449  20549351.842    20549351.5404   20549358.6844
   8370222.916 9   6526102.83447  22771663.034    22771663.3754   22771670.4774
 00  4 29 14  3 15.0000000  0  8 26 27 19 11  2  7  8 13            -0.000000074
  -8864552.572 9  -6872500.03747  22791960.979    22791961.2434   22791969.0194
   3450549.769 9   2696394.77548  21224887.490    21224887.3664   21224895.1424
  11280475.701 9   8787544.10445  24866730.045    24866729.9614   24866743.2004
  -3135899.452 9  -2424521.91946  23645704.213    23645704.0704   23645713.8364
  -2854996.982 9  -2209483.87648  21264579.823    21264579.3984   21264586.8044
 -10817460.219 9  -8401384.95249  20883219.016    20883218.6184   20883226.3374
   1555178.887 9   1223257.04749  20553709.349    20553709.0534   20553716.1974
   8415668.374 9   6561514.82147  22780311.079    22780311.4184   22780318.5084
 00  4 29 14  3 30.0000000  0  8 26 27 19 11  2  7  8 13            -0.000000075
  -8879147.522 9  -6883872.75147  22789183.669    22789183.9364   22789191.7274
   3480772.756 9   2719945.11648  21230638.773    21230638.6554   21230646.4384
  11330410.830 9   8826454.51245  24876232.382    24876232.2034   24876245.6534
  -3128873.765 9  -2419047.40846  23647041.148    23647041.0344   23647050.8314
  -2858058.505 9  -2211869.49548  21263997.246    21263996.8114   21264004.2274
 -10839566.648 9  -8418610.74349  20879012.324    20879011.9314   20879019.6234
   1578184.803 9   1241183.70049  20558087.239    20558086.9424   20558094.0834
   8461172.965 9   6596972.90147  22788970.337    22788970.6644   22788977.8064
 00  4 29 14  3 45.0000000  0  8 26 27 19 11  2  7  8 13            -0.000000076
  -8893614.486 9  -6895145.72647  22786430.740    22786430.9824   22786438.7664
   3511099.234 9   2743576.10748  21236409.750    21236409.6094   21236417.4004
  11380380.660 9   8865391.96445  24885741.393    24885741.1984   24885754.7144
  -3121721.473 9  -2413474.23446  23648402.170    23648402.1314   23648411.9104
  -2861102.382 9  -2214241.36248  21263418.003    21263417.5824   21263425.0074
 -10861553.959 9  -8435743.70649  20874828.302    20874827.8974   20874835.6124
   1601293.417 9   1259190.38349  20562484.697    20562484.3784   20562491.5304
   8506729.583 9   6632471.52047  22797639.503    22797639.8334   22797647.0134
 00  4 29 14  4  0.0000000  0  8 26 27 19 11  2  7  8 13            -0.000000078
  -8907950.573 9  -6906316.73147  22783702.679    22783702.9404   22783710.7104
   3541531.444 9   2767289.48248  21242200.836    21242200.6904   21242208.4804
  11430387.380 8   8904358.13645  24895257.448    24895257.3814   24895270.6824
  -3114439.470 9  -2407799.99346  23649787.929    23649787.8634   23649797.6344
  -2864123.720 9  -2216595.67448  21262843.084    21262842.6704   21262850.0874
 -10883417.038 9  -8452779.87149  20870667.921    20870667.5074   20870675.2094
   1624502.665 9   1277275.47949  20566901.308    20566901.0114   20566908.1524
   8552335.741 9   6668008.73447  22806318.069    22806318.4144   22806325.6244
 00  4 29 14  4 15.0000000  0  8 26 27 19 11  2  7  8 13            -0.000000081
  -8922156.651 9  -6917386.42347  22780999.415    22780999.7124   22781007.4314
   3572070.840 9   2791086.38248  21248012.308    21248012.1574   21248019.9634
  11480434.175 8   8943355.56845  24904781.074    24904781.0004   24904794.3894
  -3107029.140 9  -2402025.75546  23651198.091    23651198.0174   23651207.8514
  -2867121.094 9  -2218931.30548  21262272.750    21262272.3354   21262279.7414
 -10905155.969 9  -8469719.29449  20866531.167    20866530.7514   20866538.4444
   1647810.572 9   1295437.45549  20571336.665    20571336.3704   20571343.5024
   8597991.148 9   6703584.33047  22815006.004    22815006.3504   22815013.6284
 00  4 29 14  4 30.0000000  0  8 26 27 19 11  2  7  8 13            -0.000000086
  -8936230.602 9  -6928353.16447  22778321.240    22778321.5264   22778329.2574
   3602718.572 9   2814967.69648  21253844.403    21253844.2804   21253852.0734
  11530528.964 8   8982390.38645  24914313.776    24914313.7894   24914327.2044
  -3099486.366 9  -2396148.30846  23652633.380    23652633.3634   23652643.1774
  -2870087.477 9  -2221242.78248  21261708.300    21261707.8764   21261715.2804
 -10926770.827 9  -8486562.03649  20862418.028    20862417.5994   20862425.2904
   1671220.501 9   1313678.92749  20575791.484    20575791.1764   20575798.3194
   8643698.113 9   6739200.08747  22823703.741    22823704.1084   22823711.3824
 00  4 29 14  4 45.0000000  0  8 26 27 19 11  2  7  8 13            -0.000000090
  -8950172.218 9  -6939216.78147  22775668.271    22775668.5634   22775676.3254
   3633474.712 9   2838933.48448  21259697.111    21259696.9784   21259704.7734
  11580672.262 8   9021463.03345  24923855.803    24923855.8334   24923869.3084
  -3091810.601 9  -2390167.23746  23654094.027    23654093.9924   23654103.9114
  -2873019.650 9  -2223527.60748  21261150.308    21261149.8824   21261157.3024
 -10948263.523 9  -8503309.59449  20858328.089    20858327.6504   20858335.3544
   1694732.656 9   1332000.05649  20580265.716    20580265.4094   20580272.5474
   8689456.260 9   6774855.73047  22832411.232    22832411.5914   22832418.9004
 00  4 29 14  5  0.0000000  0  8 26 27 19 11  2  7  8 13            -0.000000093
  -8963979.119 9  -6949975.41947  22773040.909    22773041.2024   22773048.9534
   3664340.451 9   2862984.67748  21265570.716    21265570.5824   21265578.3674
  11630864.358 8   9060573.70245  24933407.194    24933407.1214   24933420.6904
  -3084001.487 9  -2384082.25746  23655580.111    23655580.0824   23655590.0034
  -2875917.183 9  -2225785.43748  21260598.957    21260598.5344   21260605.9674
 -10969636.544 9  -8519963.89949  20854260.970    20854260.5164   20854268.2114
   1718348.902 9   1350402.30349  20584759.778    20584759.4774   20584766.6294
   8735266.205 9   6810551.73947  22841128.628    22841128.9954   22841136.3354
 00  4 29 14  5 15.0000000  0  8 26 27 19 11  2  7  8 13            -0.000000096
  -8977651.094 9  -6960628.93547  22770439.231    22770439.5434   22770447.2594
   3695316.254 9   2887121.62948  21271465.242    21271465.1014   21271472.8834
  11681103.685 8   9099721.14445  24942967.512    24942967.2934   24942981.1254
  -3076057.638 9  -2377892.28746  23657091.833    23657091.7864   23657101.7274
  -2878779.735 9  -2228016.01548  21260054.211    21260053.7914   21260061.2304
 -10990888.757 9  -8536524.06349  20850216.804    20850216.3364   20850224.0484
   1742068.577 9   1368885.14149  20589273.505    20589273.2234   20589280.3854
   8781128.488 9   6846288.52947  22849855.997    22849856.3634   22849863.6774
 00  4 29 14  5 30.0000000  0  8 26 27 19 11  2  7  8 13            -0.000000097
  -8991189.821 9  -6971178.61347  22767862.952    22767863.2464   22767870.9304
   3726404.990 9   2911346.58448  21277381.266    21277381.1254   21277388.9004
  11731388.787 8   9138904.27745  24952536.550    24952536.3574   24952550.0314
  -3067978.897 9  -2371597.21446  23658629.188    23658629.1524   23658639.1044
  -2881607.205 9  -2230219.26348  21259516.170    21259515.7634   21259523.2064
 -11012021.359 9  -8552991.03049  20846195.362    20846194.9204   20846202.6464
   1765889.907 9   1387447.18549  20593806.600    20593806.3044   20593813.4844
   8827041.362 9   6882064.73347  22858592.984    22858593.3254   22858600.6364
 00  4 29 14  5 45.0000000  0  8 26 27 19 11  2  7  8 13            -0.000000096
  -9004593.479 9  -6981623.04747  22765312.360    22765312.6324   22765320.2904
   3757608.440 9   2935660.92848  21283319.096    21283318.9454   21283326.7354
  11781717.473 8   9178121.37545  24962113.915    24962113.6584   24962127.3414
  -3059767.489 9  -2365198.75946  23660191.793    23660191.7404   23660201.6754
  -2884399.694 9  -2232395.25148  21258984.812    21258984.3914   21258991.8234
 -11033037.470 9  -8569367.21949  20842196.144    20842195.7184   20842203.4404
   1789813.037 9   1406088.55849  20598359.067    20598358.7434   20598365.9394
   8873005.535 9   6917880.91747  22867339.768    22867340.0904   22867347.3764
 00  4 29 14  6  0.0000000  0  8 26 27 19 11  2  7  8 13            -0.000000094
  -9017862.105 9  -6991962.26447  22762787.474    22762787.7504   22762795.4014
   3788924.337 9   2960062.88748  21289278.355    21289278.1894   21289286.0024
  11832081.956 8   9217366.36445  24971698.049    24971697.7624   24971711.3894
  -3051426.612 9  -2358699.41946  23661779.026    23661778.9814   23661788.9424
  -2887156.211 9  -2234543.21548  21258460.285    21258459.8644   21258467.3084
 -11053943.042 9  -8585657.27949  20838217.959    20838217.5124   20838225.2144
   1813839.317 9   1424810.29649  20602931.143    20602930.8284   20602938.0054
   8919023.331 9   6953738.88947  22876096.700    22876097.0084   22876104.3044
 00  4 29 14  6 15.0000000  0  8 26 27 19 11  2  7  8 13            -0.000000088
  -9030996.380 9  -7002196.78447  22760288.137    22760288.4204   22760296.0434
   3820350.791 9   2984550.99548  21295258.615    21295258.4694   21295266.3004
  11882480.100 8   9256637.55845  24981288.606    24981288.2544   24981302.2584
  -3042957.266 9  -2352099.97846  23663390.734    23663390.7354   23663400.6354
  -2889877.990 9  -2236664.10148  21257942.365    21257941.9534   21257949.3914
 -11074745.321 9  -8601866.84849  20834259.430    20834258.9934   20834266.6964
   1837971.305 9   1443614.41349  20607523.334    20607523.0094   20607530.1884
   8965097.056 9   6989640.42847  22884864.277    22884864.5984   22884871.8894
 00  4 29 14  6 30.0000000  0  8 26 27 19 11  2  7  8 13            -0.000000077
  -9043998.780 9  -7012328.55547  22757813.897    22757814.1834   22757821.7984
   3851885.692 9   3009123.60548  21301259.514    21301259.3554   21301267.2154
  11932909.715 8   9295933.28245  24990885.096    24990884.6304   24990898.6214
  -3034358.858 9  -2345399.96146  23665027.098    23665027.0424   23665036.9104
  -2892567.706 9  -2238760.00748  21257430.545    21257430.1274   21257437.5714
 -11095451.428 9  -8618001.47449  20830319.208    20830318.7804   20830326.4734
   1862209.132 9   1462500.99849  20612135.654    20612135.3554   20612142.5194
   9011225.912 9   7025584.92347  22893642.329    22893642.6714   22893649.9294
 00  4 29 14  6 45.0000000  0  8 26 27 19 11  2  7  8 13            -0.000000062
  -9056871.549 9  -7022359.30647  22755364.341    22755364.5994   22755372.2004
   3883524.831 9   3033777.44748  21307280.282    21307280.1174   21307288.0194
  11983365.557 8   9335249.47345  25000486.633    25000486.2544   25000499.9234
  -3025632.700 9  -2338600.38846  23666687.720    23666687.6334   23666697.4794
  -2895228.519 9  -2240833.38548  21256924.222    21256923.7884   21256931.2354
 -11116065.453 9  -8634064.34549  20826396.509    20826396.0564   20826403.7654
   1886549.031 9   1481467.12649  20616767.405    20616767.1094   20616774.2774
   9057406.177 9   7061569.49847  22902430.201    22902430.5374   22902437.8134
 00  4 29 14  7  0.0000000  0  8 26 27 19 11  2  7  8 13            -0.000000045
  -9069615.622 9  -7032289.78147  22752939.209    22752939.4884   22752947.0734
   3915266.500 9   3058511.17748  21313320.525    21313320.3754   21313328.3144
  12033843.189 8   9374582.61645  25010092.299    25010092.0534   25010105.6034
  -3016784.110 9  -2331705.43046  23668371.629    23668371.5474   23668381.4034
  -2897862.678 9  -2242885.99848  21256422.988    21256422.5654   21256430.0084
 -11136590.049 9  -8650057.53849  20822490.785    20822490.3304   20822498.0514
   1910989.678 9   1500511.75149  20621418.367    20621418.0594   20621425.2344
   9103635.858 9   7097592.57347  22911227.447    22911227.8174   22911235.0444
 00  4 29 14  7 15.0000000  0  8 26 27 19 11  2  7  8 13            -0.000000029
  -9082235.193 9  -7042123.24147  22750537.784    22750538.0704   22750545.6484
   3947109.572 9   3083323.92248  21319380.066    21319379.9304   21319387.8944
  12084340.375 8   9413930.98845  25019701.719    25019701.6094   25019715.1234
  -3007815.540 9  -2324716.97346  23670078.334    23670078.2464   23670088.0664
  -2900472.570 9  -2244919.69548  21255926.338    21255925.9194   21255933.3684
 -11157024.873 9  -8665980.78149  20818602.146    20818601.7124   20818609.4444
   1935528.945 9   1519633.22749  20626088.056    20626087.7464   20626094.9344
   9149912.807 9   7133652.47647  22920033.697    22920034.0814   22920041.2994
 00  4 29 14  7 30.0000000  0  7 26 27 11  2  7  8 13               -0.000000014
  -9094732.320 9  -7051861.29747  22748159.705    22748159.9564   22748167.5604
   3979052.220 9   3108214.26048  21325458.553    21325458.4124   21325466.3744
  -2998727.204 9  -2317635.19546  23671807.789    23671807.7294   23671817.4934
  -2903057.919 9  -2246934.26648  21255434.400    21255433.9694   21255441.4374
 -11177367.770 9  -8681832.38549  20814731.022    20814730.5724   20814738.3294
   1960166.460 9   1538831.26449  20630776.456    20630776.1614   20630783.3504
   9196236.236 9   7169748.60447  22928848.762    22928849.1284   22928856.3794
 00  4 29 14  7 45.0000000  0  7 26 27 11  2  7  8 13               -0.000000001
  -9107105.468 9  -7061502.74247  22745805.208    22745805.4174   22745813.0234
   4011092.624 9   3133180.76948  21331555.682    21331555.5514   21331563.5144
  -2989521.831 9  -2310462.20746  23673559.578    23673559.5254   23673569.2464
  -2905620.146 9  -2248930.82848  21254946.833    21254946.3974   21254953.8854
 -11197617.682 9  -8697611.54449  20810877.539    20810877.1204   20810884.8974
   1984903.700 9   1558107.00449  20635483.805    20635483.5024   20635490.6954
   9242608.071 9   7205882.44047  22937673.062    22937673.4094   22937680.7174
 00  4 29 14  8  0.0000000  0  7 26 27 11  2  7  8 13                0.000000010
  -9119353.271 9  -7071046.52547  22743474.495    22743474.7304   22743482.3284
   4043227.200 9   3158220.65848  21337670.703    21337670.5884   21337678.5494
  -2980201.141 9  -2303199.37946  23675333.295    23675333.1884   23675342.9454
  -2908158.954 9  -2250909.13748  21254463.729    21254463.3114   21254470.8074
 -11217772.678 9  -8713316.73649  20807042.149    20807041.7654   20807049.5374
   2009742.112 9   1577461.57949  20640210.410    20640210.0804   20640217.2904
   9289029.578 9   7242054.98847  22946506.801    22946507.1534   22946514.5064
 00  4 29 14  8 15.0000000  0  7 26 27 11  2  7  8 13                0.000000019
  -9131475.112 9  -7080492.14047  22741167.784    22741168.0474   22741175.6424
   4075456.006 9   3183333.97448  21343803.702    21343803.5924   21343811.5324
  -2970763.011 9  -2295845.02146  23677129.377    23677129.2644   23677139.0844
  -2910676.283 9  -2252870.70948  21253984.691    21253984.2634   21253991.7694
 -11237828.471 9  -8728944.62749  20803225.671    20803225.2774   20803233.0724
   2034682.279 9   1596895.45149  20644956.372    20644956.0444   20644963.2784
   9335499.388 9   7278265.16747  22955349.754    22955350.0914   22955357.4854
 00  4 29 14  8 30.0000000  0  7 26 27 11  2  7  8 13                0.000000027
  -9143470.210 9  -7089838.99247  22738885.204    22738885.4674   22738893.0594
   4107781.750 9   3208522.82348  21349955.128    21349955.0244   21349962.9574
  -2961206.152 9  -2288398.15646  23678948.047    23678947.9564   23678957.7534
  -2913174.336 9  -2254817.26548  21253509.350    21253508.9224   21253516.4334
 -11257780.828 9  -8744491.92049  20799428.848    20799428.4364   20799436.2214
   2059721.695 9   1616406.64849  20649721.207    20649720.9064   20649728.1214
   9382016.205 9   7314511.98847  22964201.674    22964202.0034   22964209.4604
 00  4 29 14  8 45.0000000  0  7 26 27 11  2  7  8 13                0.000000032
  -9155337.797 9  -7099086.48747  22736626.881    22736627.1514   22736634.7494
   4140204.468 9   3233787.23748  21356125.024    21356124.9124   21356132.8484
  -2951532.769 9  -2280860.49146  23680788.880    23680788.7714   23680798.5884
  -2915652.632 9  -2256748.41848  21253037.786    21253037.3484   21253044.8714
 -11277623.874 9  -8759954.03349  20795652.852    20795652.4394   20795660.2464
   2084859.297 9   1635994.36749  20654504.773    20654504.4544   20654511.6964
   9428578.701 9   7350794.39047  22973062.253    22973062.6404   22973070.0614
 00  4 29 14  9  0.0000000  0  7 26 27 11  2  7  8 13                0.000000032
  -9167075.419 9  -7108232.71347  22734393.284    22734393.5274   22734401.1494
   4172728.856 9   3259130.87148  21362314.232    21362314.1374   21362322.0674
  -2941744.027 9  -2273232.93746  23682651.677    23682651.5314   23682661.3564
  -2918111.654 9  -2258664.55549  21252569.871    21252569.4324   21252576.9874
 -11297351.838 9  -8775326.47349  20791898.751    20791898.3284   20791906.1414
   2110097.484 9   1655660.45849  20659307.453    20659307.1394   20659314.4064
   9475187.952 9   7387113.23447  22981931.746    22981932.1494   22981939.6034
 00  4 29 14  9 15.0000000  0  7 26 27 11  2  7  8 13                0.000000029
  -9178681.680 9  -7117276.57247  22732184.670    22732184.9464   22732192.5704
   4205357.652 9   3284555.86748  21368523.355    21368523.2594   21368531.1834
  -2931837.902 9  -2265513.91346  23684536.810    23684536.6264   23684546.4604
  -2920552.559 9  -2260566.57249  21252105.407    21252104.9644   21252112.5244
 -11316961.573 9  -8790606.78349  20788167.129    20788166.7024   20788174.5164
   2135440.371 9   1675408.13149  20664130.058    20664129.7614   20664137.0344
   9521844.281 9   7423468.75247  22990810.145    22990810.5734   22990818.0744
 00  4 29 14  9 30.0000000  0  7 26 27 11  2  7  8 13                0.000000024
  -9190154.125 9  -7126216.16247  22730001.549    22730001.8074   22730009.4214
   4238091.535 9   3310062.74648  21374752.490    21374752.3774   21374760.2704
  -2921810.853 9  -2257700.67246  23686444.886    23686444.7154   23686454.5794
  -2922975.790 9  -2262454.81849  21251644.298    21251643.8534   21251651.4274
 -11336449.624 9  -8805792.27549  20784458.664    20784458.2494   20784466.0744
   2160888.186 9   1695237.56549  20668972.630    20668972.3284   20668979.6254
   9568548.671 9   7459861.71947  22999697.741    22999698.2004   22999705.7244
 00  4 29 14  9 45.0000000  0  7 26 27 11  2  7  8 13                0.000000020
  -9201489.675 9  -7135049.07347  22727844.475    22727844.7314   22727852.3784
   4270931.799 9   3335652.51948  21381001.850    21381001.7204   21381009.6084
  -2911663.503 9  -2249793.67746  23688375.874    23688375.7294   23688385.6174
  -2925380.066 9  -2264328.28849  21251186.800    21251186.3704   21251193.9354
 -11355816.757 9  -8820883.54949  20780773.214    20780772.7904   20780780.6334
   2186439.931 9   1715147.98749  20673835.034    20673834.7224   20673842.0194
   9615302.433 9   7496293.15947  23008594.729    23008595.2014   23008602.7544
 00  4 29 14 10  0.0000000  0  7 26 27 11  2  7  8 13                0.000000015
  -9212688.071 9  -7143775.10847  22725713.495    22725713.7964   22725721.4394
   4303878.413 9   3361325.16648  21387271.413    21387271.2904   21387279.1744
  -2901397.200 9  -2241793.98946  23690329.525    23690329.3864   23690339.1714
  -2927762.938 9  -2266185.08349  21250733.391    21250732.9534   21250740.5214
 -11375064.740 9  -8835881.97649  20777110.447    20777110.0364   20777117.8744
   2212095.518 9   1735139.32349  20678717.163    20678716.8424   20678724.1544
   9662103.533 9   7532761.50447  23017500.737    23017501.2254   23017508.7834
 00  4 29 14 10 15.0000000  0  7 26 27 11  2  7  8 13                0.000000010
  -9223748.108 9  -7152393.33847  22723608.874    22723609.1734   22723616.8484
   4336932.410 9   3387081.48348  21393561.424    21393561.2964   21393569.1924
  -2891009.751 9  -2233699.90746  23692306.228    23692306.0484   23692315.8964
  -2930121.792 9  -2268023.16549  21250284.537    21250284.1044   21250291.6724
 -11394192.047 9  -8850786.37549  20773470.625    20773470.2064   20773478.0344
   2237854.594 9   1755211.30349  20683618.978    20683618.6694   20683625.9814
   9708950.804 9   7569265.81947  23026415.537    23026416.0144   23026423.5854
 00  4 29 14 10 30.0000000  0  7 26 27 11  2  7  8 13                0.000000003
  -9234670.576 9  -7160904.36847  22721530.449    22721530.7414   22721538.4314
   4370094.573 9   3412922.08848  21399871.988    21399871.8774   21399879.7644
  -2880499.031 9  -2225509.76646  23694306.339    23694306.1234   23694316.1144
  -2932455.783 9  -2269841.87849  21249840.401    21249839.9624   21249847.5284
 -11413200.973 9  -8865598.52149  20769853.368    20769852.9404   20769860.7724
   2263718.970 9   1775365.33549  20688540.798    20688540.4914   20688547.8194
   9755842.769 9   7605804.96347  23035338.860    23035339.3364   23035346.9214
 00  4 29 14 10 45.0000000  0  7 26 27 11  2  7  8 13               -0.000000004
  -9245455.311 9  -7169308.07147  22719478.244    22719478.4924   22719486.2094
   4403363.277 9   3438845.70648  21406202.872    21406202.7444   21406210.6244
  -2869864.314 9  -2217222.99846  23696330.070    23696329.8624   23696339.8924
  -2934761.675 9  -2271638.69649  21249401.619    21249401.1664   21249408.7314
 -11432091.923 9  -8880318.74549  20766258.516    20766258.0894   20766265.9254
   2289689.342 9   1795601.95649  20693482.808    20693482.5004   20693489.8254
   9802780.059 9   7642379.40647  23044270.803    23044271.2824   23044278.8754
 00  4 29 14 11  0.0000000  0  7 26 27 11  2  7  8 13               -0.000000012
  -9256103.029 9  -7177605.01447  22717452.074    22717452.3354   22717460.0414
   4436734.333 9   3464849.08148  21412553.193    21412553.0384   21412560.9374
  -2859104.273 9  -2208838.58146  23698377.655    23698377.5044   23698387.4774
  -2937036.779 9  -2273411.51849  21248968.677    21248968.2254   21248975.7884
 -11450866.245 9  -8894948.08949  20762685.902    20762685.4924   20762693.3094
   2315767.729 9   1815922.74549  20698445.395    20698445.0654   20698452.3934
   9849763.003 9   7678989.42347  23053211.455    23053211.8934   23053219.5104
 00  4 29 14 11 15.0000000  0  7 26 27 11  2  7  8 13               -0.000000019
  -9266611.628 9  -7185793.56047  22715452.374    22715452.6394   22715460.3594
   4470204.516 9   3490929.70248  21418922.385    21418922.2394   21418930.1504
  -2848217.195 9  -2200355.18046  23700449.455    23700449.2804   23700459.2834
  -2939279.521 9  -2275159.12448  21248541.912    21248541.4714   21248549.0354
 -11469525.405 9  -8909487.69849  20759135.171    20759134.7504   20759142.5784
   2341956.810 9   1836329.79149  20703429.052    20703428.7444   20703436.0484
   9896793.079 9   7715636.17247  23062161.040    23062161.4274   23062169.0854
 00  4 29 14 11 30.0000000  0  7 26 27 11  2  7  8 13               -0.000000026
  -9276982.876 9  -7193875.07047  22713478.830    22713479.0864   22713486.8104
   4503770.979 9   3517085.34448  21425309.931    21425309.7774   21425317.6844
  -2837201.986 9  -2191771.93346  23702545.626    23702545.4504   23702555.4594
  -2941486.077 9  -2276878.53248  21248122.026    21248121.5914   21248129.1384
 -11488069.750 9  -8923937.84049  20755606.300    20755605.8634   20755613.6944
   2368256.757 9   1856823.22749  20708433.786    20708433.4804   20708440.7954
   9943871.673 9   7752320.72547  23071119.855    23071120.2364   23071127.9234
 00  4 29 14 11 45.0000000  0  7 26 27 11  2  7  8 13               -0.000000034
  -9287218.796 9  -7201851.12947  22711531.068    22711531.3144   22711539.0534
   4537433.503 9   3543315.84048  21431715.704    21431715.5524   21431723.4554
  -2826058.809 9  -2183088.97646  23704666.119    23704665.8914   23704675.9914
  -2943654.379 9  -2278568.12848  21247709.439    21247708.9874   21247716.5454
 -11506499.490 9  -8938298.67549  20752099.242    20752098.8214   20752106.6404
   2394666.340 9   1877402.09249  20713459.374    20713459.0714   20713466.4104
   9990997.663 9   7789042.21447  23080087.639    23080088.0184   23080095.7644
 00  4 29 14 12  0.0000000  0  7 26 27 11  2  7  8 13               -0.000000041
  -9297318.751 9  -7209721.24747  22709609.159    22709609.4144   22709617.1304
   4571193.681 9   3569622.43048  21438140.072    21438139.9444   21438147.8604
  -2814785.164 9  -2174304.34246  23706811.431    23706811.2364   23706821.3244
  -2945783.254 9  -2280227.00548  21247304.345    21247303.8884   21247311.4474
 -11524814.604 9  -8952570.19349  20748613.960    20748613.5544   20748621.3654
   2421188.260 9   1898068.48949  20718506.380    20718506.0674   20718513.4334
  10038171.151 9   7825800.70947  23089064.462    23089064.9134   23089072.6134
 00  4 29 14 12 15.0000000  0  7 26 27 11  2  7  8 13               -0.000000048
  -9307284.304 9  -7217486.62447  22707712.803    22707713.0574   22707720.7534
   4605052.844 9   3596006.14948  21444583.308    21444583.1844   21444591.1124
  -2803378.521 9  -2165416.08946  23708982.105    23708981.8934   23708991.9504
  -2947874.886 9  -2281856.86848  21246906.326    21246905.8834   21246913.4354
 -11543013.853 9  -8966751.42649  20745150.737    20745150.3314   20745158.1284
   2447825.341 9   1918824.62149  20723575.241    20723574.9284   20723582.3164
  10085391.459 9   7862595.68047  23098050.189    23098050.6624   23098058.3454
 00  4 29 14 12 30.0000000  0  7 26 27 11  2  7  8 13               -0.000000053
  -9317117.886 9  -7225149.18547  22705841.590    22705841.8324   22705849.5094
   4639013.320 9   3622468.81648  21451045.824    21451045.6604   21451053.6314
  -2791836.635 9  -2156422.44146  23711178.550    23711178.2934   23711188.3464
  -2949934.657 9  -2283461.89648  21246514.362    21246513.9144   21246521.4934
 -11561097.566 9  -8980842.63249  20741709.563    20741709.1344   20741716.9474
   2474579.757 9   1939672.18949  20728666.473    20728666.1534   20728673.5644
  10132659.123 9   7899427.56247  23107044.960    23107045.4354   23107053.0564
 00  4 29 14 12 45.0000000  0  7 26 27 11  2  7  8 13               -0.000000057
  -9326820.753 9  -7232709.87347  22703995.215    22703995.4314   22704003.1324
   4673075.971 9   3649011.09648  21457527.771    21457527.6134   21457535.5974
  -2780162.212 9  -2147325.51846  23713400.116    23713399.8854   23713409.9484
  -2951962.064 9  -2285041.70948  21246128.586    21246128.1224   21246135.7014
 -11579066.603 9  -8994844.47749  20738290.174    20738289.7514   20738297.5654
   2501451.109 9   1960610.87149  20733779.965    20733779.6434   20733787.0764
  10179974.394 9   7936296.54147  23116048.859    23116049.3124   23116056.8974
 00  4 29 14 13  0.0000000  0  7 26 27 11  2  7  8 13               -0.000000060
  -9336391.206 9  -7240167.40547  22702174.030    22702174.2524   22702181.9594
   4707241.200 9   3675633.31048  21464029.198    21464029.0524   21464037.0644
  -2768357.197 9  -2138126.83946  23715646.511    23715646.3104   23715656.4644
  -2953957.607 9  -2286596.69148  21245748.889    21245748.4244   21245756.0134
 -11596918.753 9  -9008755.24749  20734893.023    20734892.6024   20734900.4074
   2528436.851 9   1981638.68849  20738915.189    20738914.8684   20738922.3034
  10227338.448 9   7973203.51847  23125062.007    23125062.4324   23125070.0034
 00  4 29 14 13 15.0000000  0  7 26 27 11  2  7  8 13               -0.000000061
  -9345827.975 9  -7247520.75947  22700378.266    22700378.5154   22700386.2214
   4741512.497 9   3702338.17248  21470550.822    21470550.6874   21470558.7244
  -2756422.354 9  -2128826.99446  23717917.619    23717917.4374   23717927.6054
  -2955922.328 9  -2288127.65848  21245375.028    21245374.5734   21245382.1424
 -11614655.761 9  -9022576.29249  20731517.799    20731517.3694   20731525.1564
   2555538.146 9   2002756.54549  20744072.429    20744072.1284   20744079.5634
  10274749.682 9   8010147.26147  23134084.122    23134084.5364   23134092.0954
 00  4 29 14 13 30.0000000  0  7 26 27 11  2  7  8 13               -0.000000062
  -9355132.399 9  -7254770.98547  22698607.689    22698607.9604   22698615.7084
   4775894.510 9   3729129.30948  21477093.557    21477093.4074   21477101.4774
  -2744359.485 9  -2119427.38446  23720213.160    23720212.8994   23720223.1214
  -2957859.871 9  -2289637.44148  21245006.319    21245005.8584   21245013.4464
 -11632278.451 9  -9036308.25849  20728164.329    20728163.9114   20728171.6854
   2582752.021 9   2023962.12949  20749251.046    20749250.7634   20749258.2034
  10322204.846 9   8047125.24047  23143114.578    23143114.9744   23143122.5214
 00  4 29 14 13 45.0000000  0  7 26 27 11  2  7  8 13               -0.000000061
  -9364305.090 9  -7261918.56347  22696862.196    22696862.4794   22696870.2554
   4810391.656 9   3756010.15848  21483658.175    21483658.0134   21483666.1104
  -2732167.897 9  -2109927.48146  23722533.183    23722532.8724   23722543.1344
  -2959770.203 9  -2291126.01848  21244642.827    21244642.3704   21244649.9404
 -11649787.477 9  -9049951.66149  20724832.493    20724832.0774   20724839.8394
   2610075.170 9   2045252.86049  20754450.483    20754450.1734   20754457.6534
  10369702.335 9   8084136.20147  23152153.135    23152153.5274   23152161.0624
 00  4 29 14 14  0.0000000  0  7 26 27 11  2  7  8 13               -0.000000058
  -9373342.477 9  -7268960.70347  22695142.457    22695142.7304   22695150.5424
   4845004.022 9   3782980.78648  21490244.752    21490244.5834   21490252.6674
  -2719849.868 9  -2100329.03746  23724877.197    23724876.9494   23724887.1754
  -2961657.061 9  -2292596.31248  21244283.786    21244283.3194   21244290.8904
 -11667185.718 9  -9063508.73949  20721521.737    20721521.3294   20721529.0584
   2637506.540 9   2066627.91649  20759670.518    20759670.2094   20759677.6884
  10417241.357 9   8121179.53347  23161199.589    23161199.9754   23161207.4674
 00  4 29 14 14 15.0000000  0  7 26 27 11  2  7  8 13               -0.000000054
  -9382245.475 9  -7275898.13947  22693448.278    22693448.5624   22693456.4004
   4879728.632 9   3810038.88048  21496852.701    21496852.5184   21496860.5864
  -2707409.016 9  -2090634.91146  23727244.562    23727244.3604   23727254.6224
  -2963523.404 9  -2294050.61748  21243928.652    21243928.1754   21243935.7474
 -11684475.674 9  -9076981.43649  20718231.602    20718231.1874   20718238.8944
   2665045.439 9   2088086.76249  20764911.039    20764910.7214   20764918.2184
  10464819.822 9   8158253.58847  23170253.560    23170253.9274   23170261.4134
 00  4 29 14 14 30.0000000  0  7 26 27 11  2  7  8 13               -0.000000048
  -9391014.445 9  -7282731.12947  22691779.580    22691779.8484   22691787.7154
   4914563.038 9   3837182.52748  21503481.503    21503481.3394   21503489.4004
  -2694847.112 9  -2080846.44546  23729635.015    23729634.8754   23729645.1144
  -2965369.970 9  -2295489.51248  21243577.271    21243576.8084   21243584.3784
 -11701657.179 9  -9090369.62249  20714962.087    20714961.6504   20714969.3514
   2692688.097 9   2109626.46249  20770171.311    20770171.0004   20770178.5074
  10512437.520 9   8195358.21247  23179314.996    23179315.3444   23179322.8364
 00  4 29 14 14 45.0000000  0  7 26 27 11  2  7  8 13               -0.000000042
  -9399648.987 9  -7289459.37847  22690136.479    22690136.7454   22690144.6414
   4949503.134 9   3864408.52548  21510130.449    21510130.2864   21510138.3434
  -2682166.984 9  -2070965.85246  23732048.002    23732047.8854   23732058.1074
  -2967194.791 9  -2296911.46548  21243230.045    21243229.5684   21243237.1434
 -11718731.370 9  -9103674.19049  20711712.988    20711712.5604   20711720.2454
   2720429.848 9   2131243.37448  20775450.402    20775450.0854   20775457.6044
  10560093.537 9   8232492.70447  23188383.716    23188384.0654   23188391.5944
 00  4 29 14 15  0.0000000  0  7 26 27 11  2  7  8 13               -0.000000036
  -9408147.963 9  -7296081.98647  22688519.204    22688519.4654   22688527.3684
   4984548.384 9   3891716.46648  21516799.386    21516799.2294   21516807.2734
  -2669369.110 9  -2060993.52346  23734483.357    23734483.1594   23734493.4804
  -2968997.150 9  -2298315.91948  21242887.081    21242886.5864   21242894.1914
 -11735697.612 9  -9116894.64149  20708484.439    20708484.0154   20708491.6814
   2748267.120 9   2152934.71848  20780747.680    20780747.3684   20780754.8824
  10607785.690 9   8269655.34847  23197459.298    23197459.6334   23197467.1624
 00  4 29 14 15 15.0000000  0  7 26 27 11  2  7  8 13               -0.000000030
  -9416513.239 9  -7302600.41447  22686927.343    22686927.6074   22686935.5574
   5019696.964 9   3919104.92548  21523487.996    21523487.8494   21523495.8834
  -2656450.531 9  -2050927.12846  23736941.654    23736941.4984   23736951.8214
  -2970779.630 9  -2299704.88048  21242547.910    21242547.4304   21242555.0404
 -11752556.034 9  -9130031.07149  20705276.375    20705275.9464   20705283.6194
   2776200.589 9   2174701.02348  20786063.260    20786062.9484   20786070.4684
  10655512.114 9   8306844.70747  23206541.432    23206541.7554   23206549.3244
 00  4 29 14 15 30.0000000  0  7 26 27 11  2  7  8 13               -0.000000023
  -9424745.965 9  -7309015.55447  22685360.732    22685361.0114   22685368.9724
   5054948.266 9   3946573.42748  21530196.167    21530196.0054   21530204.0564
  -2643410.496 9  -2040766.08746  23739423.112    23739422.9804   23739433.2594
  -2972543.997 9  -2301079.72648  21242212.186    21242211.7134   21242219.3174
 -11769305.871 9  -9143082.89549  20702089.008    20702088.5924   20702096.2624
   2804230.098 9   2196542.16348  20791397.139    20791396.8254   20791404.3404
  10703271.660 9   8344059.87247  23215629.832    23215630.1434   23215637.7504
 00  4 29 14 15 45.0000000  0  7 26 27 11  2  7  8 13               -0.000000016
  -9432848.971 9  -7315329.61447  22683818.809    22683819.0594   22683827.0644
   5090300.969 9   3974120.94448  21536923.585    21536923.4484   21536931.5094
  -2630248.330 9  -2030509.87346  23741927.795    23741927.6954   23741938.0174
  -2974288.967 9  -2302439.46148  21241880.139    21241879.6634   21241887.2754
 -11785945.811 9  -9156049.08249  20698922.537    20698922.1244   20698929.7754
   2832355.183 9   2218457.78548  20796749.200    20796748.8804   20796756.3864
  10751066.182 9   8381302.29147  23224724.913    23224725.2074   23224732.8544
 00  4 29 14 16  0.0000000  0  7 26 27 11  2  7  8 13               -0.000000009
  -9440822.159 9  -7321542.52047  22682301.580    22682301.8194   22682309.8364
   5125751.634 9   4001744.78648  21543669.643    21543669.5084   21543677.6004
  -2616965.162 9  -2020159.39146  23744455.519    23744455.4364   23744465.7594
  -2976014.419 9  -2303783.99648  21241551.806    21241551.3204   21241558.9424
 -11802476.261 9  -9168929.95649  20695776.920    20695776.5024   20695784.1444
   2860577.096 9   2240448.84848  20802119.694    20802119.3724   20802126.8654
  10798898.615 9   8418574.25547  23233827.229    23233827.5064   23233835.2334
 00  4 29 14 16 15.0000000  0  8 26 27 11  2  4  7  8 13            -0.000000003
  -9448665.606 9  -7327654.32747  22680809.041    22680809.2924   22680817.3184
   5161299.958 9   4029444.73148  21550434.283    21550434.1554   21550442.2634
  -2603561.260 9  -2009714.81946  23747006.206    23747006.1404   23747016.4604
  -2977719.867 9  -2305112.93748  21241227.281    21241226.8054   21241234.4374
  -4067781.360 7  -3148742.21745  24862574.817    24862574.8484   24862587.1474
 -11818895.247 9  -9181723.97549  20692652.530    20692652.1054   20692659.7324
   2888898.804 9   2262517.67248  20807509.165    20807508.8314   20807516.3224
  10846769.323 9   8455876.02747  23242936.779    23242937.0494   23242944.8554
 00  4 29 14 16 30.0000000  0  8 26 27 11  2  4  7  8 13             0.000000002
  -9456382.398 9  -7333667.44047  22679340.589    22679340.8494   22679348.9054
   5196945.058 9   4057220.08348  21557217.379    21557217.2294   21557225.3774
  -2590035.072 9  -1999174.97146  23749580.216    23749580.1584   23749590.4434
  -2979402.513 9  -2306424.10948  21240907.062    21240906.6164   21240914.2454
  -4118134.143 7  -3187978.21144  24852992.914    24852992.9414   24853005.4554
 -11835202.955 9  -9194431.28449  20689549.292    20689548.8834   20689556.4834
   2917319.116 9   2284663.33648  20812917.394    20812917.0774   20812924.5794
  10894676.633 9   8493206.34247  23252053.265    23252053.5594   23252061.4134
 00  4 29 14 16 45.0000000  0  8 26 27 11  2  4  7  8 13             0.000000008
  -9463970.048 9  -7339579.91247  22677896.759    22677896.9994   22677905.0674
   5232689.861 9   4085073.12648  21564019.403    21564019.2704   21564027.4274
  -2576383.635 9  -1988537.52446  23752178.072    23752177.9394   23752188.2794
  -2981058.283 9  -2307714.33248  21240591.965    21240591.5244   21240599.1594
  -4168521.646 8  -3227241.26944  24843404.361    24843404.6584   24843417.4164
 -11851400.271 9  -9207052.57049  20686467.108    20686466.6874   20686474.2744
   2945838.164 9   2306885.93948  20818344.389    20818344.1004   20818351.6024
  10942622.390 9   8530566.60147  23261177.077    23261177.3814   23261185.3404
 00  4 29 14 17  0.0000000  0  8 26 27 11  2  4  7  8 13             0.000000013
  -9471428.295 9  -7345391.55947  22676477.534    22676477.7714   22676485.8244
   5268534.199 9   4113003.73148  21570840.366    21570840.2384   21570848.4094
  -2562608.005 9  -1977803.30946  23754799.513    23754799.3844   23754809.7024
  -2982688.059 9  -2308984.30148  21240281.856    21240281.4094   21240289.0564
  -4218944.884 8  -3266532.14145  24833809.071    24833809.4414   24833822.0274
 -11867487.731 9  -9219588.26149  20683405.789    20683405.3564   20683412.9334
   2974457.997 9   2329187.07248  20823790.605    20823790.3104   20823797.8194
  10990603.536 9   8567954.44247  23270307.617    23270307.9604   23270315.9664
 00  4 29 14 17 15.0000000  0  8 26 27 11  2  4  7  8 13             0.000000017
  -9478755.791 9  -7351101.31447  22675083.190    22675083.4464   22675091.4654
   5304478.010 9   4141011.85048  21577680.286    21577680.1534   21577688.3414
  -2548707.335 9  -1966971.65846  23757444.762    23757444.6234   23757454.9434
  -2984291.970 9  -2310234.12448  21239976.661    21239976.2204   21239983.8664
  -4269403.272 8  -3305850.43045  24824207.468    24824207.4594   24824220.3644
 -11883465.531 9  -9232038.49849  20680365.317    20680364.8614   20680372.4394
   3003182.232 9   2351569.55848  20829256.709    20829256.4164   20829263.9114
  11038618.538 9   8605368.66047  23279444.583    23279444.9464   23279453.0094
 00  4 29 14 17 30.0000000  0  8 26 27 11  2  4  7  8 13             0.000000020
  -9485950.598 9  -7356707.68147  22673714.106    22673714.3744   22673722.3704
   5340519.677 9   4169096.21848  21584538.817    21584538.6854   21584546.8794
  -2534683.012 9  -1956043.64346  23760113.570    23760113.4854   23760123.6994
  -2985867.441 9  -2311461.78548  21239676.882    21239676.4284   21239684.0724
  -4319894.202 8  -3345194.07345  24814599.504    24814599.4984   24814612.2854
 -11899334.140 9  -9244403.64849  20677345.608    20677345.1824   20677352.7504
   3032012.371 9   2374034.56848  20834742.982    20834742.6574   20834750.1464
  11086667.731 9   8642809.52046  23288588.058    23288588.4454   23288596.5194
 00  4 29 14 17 45.0000000  0  8 26 27 11  2  4  7  8 13             0.000000021
  -9493012.312 9  -7362210.34647  22672370.319    22672370.5854   22672378.5704
   5376660.713 9   4197258.01648  21591416.267    21591416.1344   21591424.3224
  -2520538.725 9  -1945022.16846  23762805.232    23762805.1224   23762815.2614
  -2987411.056 9  -2312664.62048  21239383.165    21239382.7214   21239390.3524
  -4370416.199 8  -3384561.91845  24804985.577    24804985.9744   24804998.3094
 -11915095.267 9  -9256685.04649  20674346.385    20674345.9584   20674353.5324
   3060946.907 9   2396580.92648  20840249.100    20840248.7764   20840256.2404
  11134751.154 9   8680277.04046  23297738.079    23297738.4514   23297746.5684
 00  4 29 14 18  0.0000000  0  8 26 27 11  2  4  7  8 13             0.000000021
  -9499939.425 9  -7367608.13447  22671052.164    22671052.4374   22671060.3984
   5412901.251 9   4225497.34548  21598312.650    21598312.4994   21598320.7154
  -2506273.972 9  -1933906.80646  23765519.780    23765519.6624   23765529.7674
  -2988921.500 9  -2313841.61648  21239095.743    21239095.3004   21239102.9304
  -4420968.562 8  -3423953.41745  24795365.843    24795366.4754   24795378.4944
 -11930750.076 9  -9268883.60349  20671367.391    20671366.9704   20671374.5314
   3089987.309 9   2419209.77948  20845775.322    20845775.0004   20845782.4604
  11182869.683 9   8717771.91946  23306894.729    23306895.0934   23306903.2864
 00  4 29 14 18 15.0000000  0  8 26 27 11  2  4  7  8 13             0.000000020
  -9506729.031 9  -7372898.76247  22669760.157    22669760.4214   22669768.3834
   5449238.589 9   4253812.10948  21605227.420    21605227.2824   21605235.5124
  -2491888.031 9  -1922697.02646  23768257.389    23768257.2184   23768267.3414
  -2990399.948 9  -2314993.67748  21238814.424    21238813.9854   21238821.6034
  -4471550.004 8  -3463367.57845  24785740.651    24785741.0004   24785753.4394
 -11946297.730 9  -9280998.66049  20668408.765    20668408.3394   20668415.8924
   3119131.598 9   2441919.58248  20851321.335    20851321.0214   20851328.4884
  11231021.840 9   8755293.00646  23316057.776    23316058.1794   23316066.3824
 00  4 29 14 18 30.0000000  0  8 26 27 11  2  4  7  8 13             0.000000019
  -9513381.196 9  -7378082.29447  22668494.345    22668494.5884   22668502.5704
   5485670.762 9   4282200.76348  21612160.278    21612160.1534   21612168.3804
  -2477379.084 9  -1911391.40046  23771018.438    23771018.2364   23771028.3454
  -2991845.973 9  -2316120.47348  21238539.293    21238538.8454   21238546.4344
  -4522164.158 8  -3502807.25145  24776109.211    24776109.4264   24776122.1284
 -11961738.398 9  -9293030.35549  20665470.518    20665470.0934   20665477.6324
   3148378.882 9   2464709.64148  20856886.963    20856886.6584   20856894.1084
  11279203.947 9   8792837.42846  23325226.551    23325226.9614   23325235.1854
 00  4 29 14 18 45.0000000  0  8 26 27 11  2  4  7  8 13             0.000000019
  -9519896.954 9  -7383159.52547  22667254.446    22667254.7164   22667262.7084
   5522197.061 9   4310662.76648  21619111.018    21619110.8814   21619119.1214
  -2462744.972 9  -1899988.23346  23773803.249    23773803.0594   23773813.1674
  -2993260.675 9  -2317222.85948  21238270.133    21238269.6624   21238277.2264
  -4572814.417 8  -3542275.06345  24766470.767    24766470.9294   24766483.3804
 -11977071.612 9  -9304978.31849  20662552.735    20662552.3034   20662559.8314
   3177729.087 9   2487579.89948  20862472.145    20862471.8414   20862479.2894
  11327417.094 9   8830406.04546  23334401.253    23334401.6804   23334409.8724
 00  4 29 14 19  0.0000000  0  8 26 27 11  2  4  7  8 13             0.000000017
  -9526275.427 9  -7388129.78747  22666040.667    22666040.9464   22666048.9174
   5558815.582 9   4339196.62348  21626079.356    21626079.2274   21626087.4694
  -2447988.834 9  -1888489.99546  23776611.274    23776611.0854   23776621.1904
  -2994647.749 9  -2318303.71448  21238006.215    21238005.7454   21238013.3084
  -4623502.751 8  -3581772.52245  24756825.065    24756825.4954   24756837.7964
 -11992293.899 9  -9316839.84949  20659656.064    20659655.6284   20659663.1394
   3207184.069 9   2510531.80048  20868077.276    20868076.9814   20868084.4194
  11375660.386 9   8867998.15446  23343581.658    23343582.0754   23343590.2664
 00  4 29 14 19 15.0000000  0  8 26 27 11  2  4  7  8 13             0.000000013
  -9532519.497 9  -7392995.31647  22664852.535    22664852.7994   22664860.7694
   5595525.858 9   4367801.98748  21633065.126    21633065.0004   21633073.2394
  -2433111.312 9  -1876897.16546  23779442.414    23779442.1544   23779452.3584
  -2996005.626 9  -2319361.82048  21237747.817    21237747.3634   21237754.9424
  -4674230.310 8  -3621300.54045  24747171.970    24747172.2994   24747184.5654
 -12007402.329 9  -9328612.65949  20656781.065    20656780.6284   20656788.1234
   3236745.550 9   2533566.69248  20873702.672    20873702.3764   20873709.8184
  11423933.854 9   8905613.75846  23352767.852    23352768.2744   23352776.4194
 00  4 29 14 19 30.0000000  0  8 26 27 11  2  4  7  8 13             0.000000007
  -9538627.605 9  -7397754.90047  22663690.205    22663690.4644   22663698.4664
   5632329.108 9   4396479.78548  21640068.590    21640068.4624   21640076.6964
  -2418111.333 9  -1865208.92346  23782296.836    23782296.5884   23782306.8674
  -2997331.597 9  -2320395.07348  21237495.515    21237495.0784   21237502.6664
  -4724996.892 8  -3660858.95645  24737511.520    24737511.9264   24737523.9724
 -12022396.169 9  -9340296.18249  20653927.829    20653927.3844   20653934.8814
   3266412.169 9   2556683.50248  20879348.073    20879347.7784   20879355.2204
  11472242.101 9   8943256.46646  23361960.663    23361961.0714   23361969.2094
 00  4 29 14 19 45.0000000  0  8 26 27 11  2  4  7  8 13             0.000000002
  -9544601.362 9  -7402409.79647  22662553.433    22662553.6904   22662561.6954
   5669227.559 9   4425231.76948  21647090.200    21647090.0714   21647098.2934
  -2402988.822 9  -1853425.19246  23785174.566    23785174.3374   23785184.6454
  -2998625.385 9  -2321403.24048  21237249.336    21237248.8884   21237256.4814
  -4775803.060 8  -3700448.23045  24727843.536    24727843.8204   24727855.9604
 -12037274.668 9  -9351889.82249  20651096.559    20651096.1144   20651103.6204
   3296182.965 9   2579881.49848  20885013.296    20885012.9964   20885020.4624
  11520588.614 9   8980928.99946  23371160.792    23371161.1914   23371169.2584
 00  4 29 14 20  0.0000000  0  8 26 27 11  2  4  7  8 13            -0.000000003
  -9550441.088 9  -7406960.27247  22661442.187    22661442.4404   22661450.4524
   5706221.144 9   4454057.88448  21654129.868    21654129.7484   21654137.9804
  -2387741.670 9  -1841544.34246  23788076.015    23788075.8074   23788086.1254
  -2999889.019 9  -2322387.91448  21237008.903    21237008.4454   21237016.0524
  -4826647.066 8  -3740066.97845  24718168.306    24718168.6674   24718180.8304
 -12052035.753 9  -9363391.97149  20648287.630    20648287.1784   20648294.6804
   3326058.930 9   2603161.43848  20890698.506    20890698.2014   20890705.6864
  11568973.501 9   9018631.43146  23380368.235    23380368.5884   23380376.5984
 00  4 29 14 20 15.0000000  0  8 26 27 11  2  4  7  8 13            -0.000000006
  -9556147.091 9  -7411406.53647  22660356.356    22660356.6324   22660364.6554
   5743307.416 9   4482956.21748  21661187.160    21661187.0524   21661195.3054
  -2372367.462 9  -1829564.49046  23791001.636    23791001.4124   23791011.8024
  -3001124.222 9  -2323350.43448  21236773.881    21236773.4084   21236781.0404
  -4877529.735 8  -3779715.87445  24708485.734    24708486.2504   24708498.3834
 -12066676.815 9  -9374800.59549  20645501.518    20645501.0874   20645508.6034
   3356040.667 9   2626523.80248  20896403.887    20896403.5814   20896411.0824
  11617396.402 9   9056363.48046  23389582.968    23389583.2584   23389591.2384
 00  4 29 14 20 30.0000000  0  8 26 27 11  2  4  7  8 13            -0.000000008
  -9561719.516 9  -7415748.70847  22659295.968    22659296.2754   22659304.3034
   5780488.622 9   4511928.53548  21668262.567    21668262.4344   21668270.7164
  -2356866.201 9  -1817485.63746  23793951.432    23793951.1904   23793961.6544
  -3002329.325 9  -2324289.50148  21236544.572    21236544.1264   21236551.7454
  -4928452.406 8  -3819395.93945  24698795.546    24698795.9004   24698808.1134
 -12081198.318 9  -9386116.05449  20642738.152    20642737.7104   20642745.2484
   3386130.759 9   2649970.59948  20902129.861    20902129.5574   20902137.0634
  11665857.115 9   9094124.98946  23398804.849    23398805.1444   23398813.0634
 00  4 29 14 20 45.0000000  0  8 26 27 11  2  4  7  8 13            -0.000000011
  -9567160.537 9  -7419988.49847  22658260.582    22658260.8924   22658268.9194
   5817767.896 9   4540977.26248  21675356.612    21675356.4734   21675364.7604
  -2341239.938 9  -1805309.37746  23796925.013    23796924.7424   23796935.2174
  -3003503.510 9  -2325204.48248  21236321.138    21236320.7014   21236328.3224
  -4979413.866 8  -3859106.21745  24689097.928    24689098.2934   24689110.5414
 -12095600.607 9  -9397338.62249  20639997.508    20639997.0774   20640004.6254
   3416331.164 9   2673503.35148  20907876.857    20907876.5484   20907884.0434
  11714356.068 9   9131916.30646  23408034.004    23408034.3154   23408042.1864
 00  4 29 14 21  0.0000000  0  8 26 27 11  2  4  7  8 13            -0.000000015
  -9572468.076 9  -7424124.26947  22657250.641    22657250.9414   22657258.9784
   5855147.598 9   4570104.24648  21682469.797    21682469.6384   21682477.9474
  -2325491.058 9  -1793037.57946  23799921.919    23799921.6774   23799932.2244
  -3004644.986 9  -2326093.97048  21236103.935    21236103.4914   21236111.1114
  -5030408.022 8  -3898841.97645  24679394.115    24679394.4204   24679406.6214
 -12109881.887 9  -9408466.89249  20637279.870    20637279.4394   20637287.0014
   3446639.504 9   2697120.21148  20913644.345    20913644.0064   20913651.5114
  11762891.991 9   9169736.41646  23417270.182    23417270.4804   23417278.2904
 00  4 29 14 21 15.0000000  0  8 26 27 11  2  4  7  8 13            -0.000000021
  -9577640.584 9  -7428154.82547  22656266.381    22656266.6434   22656274.7144
   5892630.696 9   4599311.79948  21689602.602    21689602.4614   21689610.7904
  -2309619.610 9  -1780670.26546  23802942.172    23802941.9174   23802952.5354
  -3005750.136 9  -2326955.15148  21235893.666    21235893.2274   21235900.8604
  -5081432.661 8  -3938601.48745  24669684.546    24669684.9224   24669696.9594
 -12124042.386 9  -9419501.05049  20634585.238    20634584.8044   20634592.3764
   3477054.962 9   2720820.54148  20919432.233    20919431.9094   20919439.4044
  11811465.238 9   9207585.61046  23426513.497    23426513.7614   23426521.5374
 00  4 29 14 21 30.0000000  0  8 26 27 11  2  4  7  8 13            -0.000000024
  -9582676.250 9  -7432078.74947  22655308.116    22655308.3864   22655316.4794
   5930221.323 9   4628603.13848  21696755.861    21696755.7484   21696764.1034
  -2293621.279 9  -1768204.08346  23805986.551    23805986.3184   23805996.9254
  -3006817.521 9  -2327786.90248  21235690.595    21235690.1384   21235697.7624
  -5132486.261 8  -3978383.56445  24659969.463    24659969.8784   24659981.9094
 -12138085.154 9  -9430443.46949  20631912.991    20631912.5244   20631920.1184
   3507576.919 9   2744603.85748  20925240.409    20925240.0874   20925247.5764
  11860075.991 9   9245464.03546  23435763.959    23435764.1674   23435771.9524
 00  4 29 14 21 45.0000000  0  8 26 27 11  2  4  7  8 13            -0.000000023
  -9587576.161 9  -7435896.89847  22654375.732    22654375.9924   22654384.1084
   5967919.689 9   4657978.42648  21703929.674    21703929.5624   21703937.9644
  -2277496.467 9  -1755639.33946  23809055.041    23809054.7844   23809065.3664
  -3007852.993 9  -2328593.78848  21235493.593    21235493.1244   21235500.7664
  -5183566.796 8  -4018186.61845  24650249.323    24650249.7164   24650261.5714
 -12152012.785 9  -9441296.17849  20629262.650    20629262.2094   20629269.8124
   3538203.957 9   2768469.05248  20931068.564    20931068.2434   20931075.7224
  11908722.946 9   9283370.66146  23445021.292    23445021.4794   23445029.2024
 00  4 29 14 22  0.0000000  0  8 26 27 11  2  4  7  8 13            -0.000000022
  -9592343.013 9  -7439611.35747  22653468.634    22653468.8904   22653477.0114
   6005724.931 9   4687437.00248  21711123.820    21711123.6924   21711132.0984
  -2261246.189 9  -1742976.83646  23812147.448    23812147.1634   23812157.8164
  -3008859.902 9  -2329378.41348  21235301.995    21235301.5274   21235309.1704
  -5234675.362 8  -4058011.52645  24640523.843    24640524.1804   24640536.1064
 -12165826.385 9  -9452060.02749  20626634.024    20626633.5894   20626641.1894
   3568937.036 9   2792416.88148  20936916.899    20936916.5744   20936924.0654
  11957399.571 9   9321300.42546  23454284.203    23454284.3764   23454292.1474
 00  4 29 14 22 15.0000000  0  8 26 27 11  2  4  7  8 13            -0.000000021
  -9596976.058 9  -7443221.55547  22652587.024    22652587.2904   22652595.4254
   6043636.798 9   4716978.66448  21718338.245    21718338.1174   21718346.5484
  -2244868.088 9  -1730214.74146  23815264.121    23815263.8764   23815274.4674
  -3009836.097 9  -2330139.10348  21235116.254    21235115.7754   21235123.4364
  -5285812.769 8  -4097858.89945  24630792.731    24630792.9184   24630804.9374
 -12179525.798 9  -9462734.89749  20624027.131    20624026.6834   20624034.3144
   3599777.599 9   2816448.46148  20942785.695    20942785.3714   20942792.8874
  12006103.402 9   9359251.38046  23463552.310    23463552.5314   23463560.3124
 00  4 29 14 22 30.0000000  0  8 26 27 11  2  4  7  8 13            -0.000000019
  -9601475.312 9  -7446727.50147  22651730.893    22651731.1234   22651739.2744
   6081656.140 9   4746604.07248  21725573.106    21725572.9694   21725581.4174
  -2228364.646 9  -1717354.96546  23818404.656    23818404.4224   23818415.0144
  -3010781.792 9  -2330876.02748  21234936.295    21234935.8304   21234943.4894
  -5336982.404 8  -4137731.38745  24621055.421    24621055.5684   24621067.7354
 -12193114.705 9  -9473323.65949  20621441.261    20621440.8144   20621448.4534
   3630723.137 9   2840561.84048  20948674.450    20948674.1254   20948681.6714
  12054833.343 9   9397222.68446  23472825.370    23472825.5814   23472833.4224
 00  4 29 14 22 45.0000000  0  8 26 27 11  2  4  7  8 13            -0.000000018
  -9605839.636 9  -7450128.31147  22650900.419    22650900.6684   22650908.7974
   6119783.817 9   4776313.89348  21732828.582    21732828.4564   21732836.9474
  -2211737.751 9  -1704399.01046  23821568.707    23821568.4214   23821579.0654
  -3011698.133 9  -2331590.08248  21234761.949    21234761.4904   21234769.1604
  -5388183.012 8  -4177628.01045  24611312.295    24611312.4134   24611324.8294
 -12206593.851 9  -9483826.89349  20618876.264    20618875.8194   20618883.4584
   3661771.072 9   2864755.01148  20954582.694    20954582.3644   20954589.9354
  12103585.993 9   9435211.67346  23482102.697    23482102.9284   23482110.8344
 00  4 29 14 23  0.0000000  0  8 26 27 11  2  4  7  8 13            -0.000000015
  -9610066.902 9  -7453422.31547  22650096.040    22650096.2854   22650104.3914
   6158020.047 9   4806108.30248  21740104.716    21740104.5994   21740113.1204
  -2194985.948 9  -1691345.69846  23824756.527    23824756.3244   23824766.9114
  -3012586.153 9  -2332282.06148  21234592.983    21234592.5374   21234600.2014
  -5439411.793 8  -4217546.58645  24601563.857    24601563.9714   24601576.2934
 -12219962.429 9  -9494243.97049  20616332.299    20616331.8514   20616339.4814
   3692917.527 9   2889024.94948  20960509.673    20960509.3314   20960516.9324
  12152360.263 9   9473217.51146  23491384.145    23491384.4034   23491392.3894
 00  4 29 14 23 15.0000000  0  8 26 27 11  2  4  7  8 13            -0.000000010
  -9614158.412 9  -7456610.54147  22649317.450    22649317.7034   22649325.8224
   6196362.011 9   4835985.10648  21747400.972    21747400.8684   21747409.4144
  -2178109.671 9  -1678195.41146  23827968.015    23827967.8614   23827978.4634
  -3013448.588 9  -2332954.10648  21234428.888    21234428.4414   21234436.1004
  -5490672.279 8  -4257489.86045  24591809.379    24591809.5554   24591821.8024
 -12233223.089 9  -9504576.95649  20613808.895    20613808.4374   20613816.0714
   3724162.255 9   2913371.46448  20966455.350    20966455.0154   20966462.6394
  12201154.168 9   9511238.65046  23500669.349    23500669.6154   23500677.6514
 00  4 29 14 23 30.0000000  0  8 26 27 11  2  4  7  8 13            -0.000000004
  -9618116.942 9  -7459695.15547  22648564.148    22648564.4154   22648572.5724
   6234807.214 9   4865942.35448  21754716.899    21754716.7834   21754725.3594
  -2161109.581 9  -1664948.64446  23831203.106    23831202.9624   23831213.5944
  -3014290.084 9  -2333609.83148  21234268.766    21234268.3324   21234276.0024
  -5541968.287 8  -4297460.82845  24582048.117    24582048.2024   24582060.4834
 -12246380.902 9  -9514829.80549  20611305.049    20611304.5914   20611312.2274
   3755507.888 9   2937796.60548  20972420.227    20972419.8964   20972427.5554
  12249968.574 9   9549275.75846  23509958.437    23509958.7244   23509966.8204
 00  4 29 14 23 45.0000000  0  8 26 27 11  2  4  7  8 13             0.000000003
  -9621943.006 9  -7462676.53547  22647836.083    22647836.3294   22647844.5564
   6273353.747 9   4895978.56148  21762052.103    21762051.9554   21762060.5564
  -2143990.056 9  -1651608.80646  23834460.909    23834460.7364   23834471.3984
  -3015114.027 9  -2334251.87748  21234111.971    21234111.5404   21234119.2054
  -5593297.970 8  -4337458.03245  24572280.405    24572280.4844   24572292.8154
 -12259433.677 9  -9525000.79949  20608821.170    20608820.7304   20608828.3524
   3786955.253 9   2962301.01648  20978404.497    20978404.1734   20978411.8414
  12298803.717 9   9587329.03446  23519251.478    23519251.7604   23519259.9214
 00  4 29 14 24  0.0000000  0  8 26 27 11  2  4  7  8 13             0.000000007
  -9625637.080 9  -7465555.05947  22647133.181    22647133.4264   22647141.6824
   6311998.607 9   4926091.38748  21769406.066    21769405.8944   21769414.5274
  -2126754.927 9  -1638178.89046  23837740.692    23837740.4654   23837751.2154
  -3015918.667 9  -2334878.89048  21233958.895    21233958.4464   21233966.1074
  -5644663.036 8  -4377482.79445  24562506.008    24562506.0314   24562518.5314
 -12272380.937 9  -9535089.57549  20606357.394    20606356.9464   20606364.5774
   3818502.801 9   2986883.49248  20984407.804    20984407.4874   20984415.1734
  12347658.613 9   9625397.69546  23528548.279    23528548.5744   23528556.7964
 00  4 29 14 24 15.0000000  0  8 26 27 11  2  4  7  8 13             0.000000009
  -9629197.300 9  -7468329.28347  22646455.719    22646455.9554   22646464.2334
   6350740.257 9   4956279.63448  21776778.421    21776778.2504   21776786.8784
  -2109404.821 9  -1624659.38746  23841042.340    23841042.1504   23841052.8654
  -3016702.828 9  -2335489.94249  21233809.713    21233809.2504   21233816.9164
  -5696064.289 8  -4417535.75845  24552724.742    24552724.6134   24552737.3214
 -12285222.133 9  -9545095.70449  20603913.785    20603913.3384   20603920.9894
   3850148.721 9   3011542.62648  20990429.832    20990429.5084   20990437.2244
  12396532.484 9   9663481.15546  23537848.742    23537849.0264   23537857.3094
 00  4 29 14 24 30.0000000  0  8 26 27 11  2  4  7  8 13             0.000000012
  -9632621.998 9  -7470997.91747  22645804.052    22645804.2964   22645812.5984
   6389578.584 9   4986543.21348  21784169.168    21784169.0134   21784177.6144
  -2091939.881 9  -1611050.39946  23844365.871    23844365.6984   23844376.3564
  -3017464.479 9  -2336083.45349  21233664.815    21233664.3504   21233672.0064
  -5747497.221 8  -4457613.40745  24542937.419    24542937.2984   24542949.9464
 -12297959.095 9  -9555020.61149  20601490.031    20601489.5864   20601497.2434
   3881889.836 9   3036275.93048  20996470.014    20996469.6764   20996477.4074
  12445429.047 9   9701582.28946  23547153.518    23547153.7744   23547162.0974
 00  4 29 14 24 45.0000000  0  8 26 27 11  2  4  7  8 13             0.000000015
  -9635911.957 9  -7473561.56447  22645178.035    22645178.2694   22645186.6054
   6428513.973 9   5016882.42748  21791578.396    21791578.2344   21791586.8324
  -2074362.731 9  -1597353.97146  23847710.754    23847710.5734   23847721.1984
  -3018207.072 9  -2336662.11249  21233523.506    21233523.0384   21233530.6914
  -5798959.511 8  -4497713.92545  24533144.486    24533144.4674   24533156.8754
 -12310591.366 9  -9564863.94249  20599086.205    20599085.7704   20599093.4244
   3913726.143 9   3061083.41148  21002528.264    21002527.9024   21002535.6664
  12494348.865 9   9739701.55646  23556462.707    23556462.9604   23556471.2984
 00  4 29 14 25  0.0000000  0  8 26 27 11  2  4  7  8 13             0.000000016
  -9639070.253 9  -7476022.61547  22644577.051    22644577.3154   22644585.6204
   6467542.610 9   5047294.29848  21799005.378    21799005.2134   21799013.7894
  -2056673.148 9  -1583569.95446  23851077.026    23851076.8034   23851087.5164
  -3018930.013 9  -2337225.46149  21233385.950    21233385.4934   21233393.1474
  -5850449.907 8  -4537836.35745  24523346.247    24523346.2214   24523358.7434
 -12323120.031 9  -9574626.54549  20596702.055    20596701.6004   20596709.2784
   3945658.860 9   3085966.01348  21008604.869    21008604.5364   21008612.2984
  12543291.503 9   9777838.59046  23565776.206    23565776.4724   23565784.8244
 00  4 29 14 25 15.0000000  0  8 26 27 11  2  4  7  8 13             0.000000015
  -9642099.946 9  -7478383.44847  22644000.572    22644000.8154   22644009.1064
   6506661.860 9   5077776.77948  21806449.576    21806449.4094   21806457.9864
  -2038870.055 9  -1569697.46946  23854464.903    23854464.6584   23854475.2494
  -3019631.038 9  -2337771.73249  21233252.595    21233252.1254   21233259.7694
  -5901966.741 8  -4577979.37945  24513542.899    24513542.9474   24513555.4544
 -12335546.459 9  -9584309.47949  20594337.387    20594336.9474   20594344.6074
   3977693.055 9   3110927.69548  21014700.796    21014700.4554   21014708.2144
  12592258.630 9   9815994.69446  23575094.419    23575094.6714   23575103.0614
 00  4 29 14 25 30.0000000  0  8 26 27 11  2  4  7  8 13             0.000000011
  -9645003.333 9  -7480645.86547  22643448.093    22643448.3474   22643456.6134
   6545870.749 9   5108329.11148  21813910.858    21813910.6844   21813919.2694
  -2020954.464 9  -1555737.32546  23857874.177    23857873.8774   23857884.4354
  -3020308.278 9  -2338299.46749  21233123.771    21233123.3044   21233130.9334
  -5953510.708 8  -4618143.53845  24503734.406    24503734.4674   24503746.9434
 -12347869.362 9  -9593911.74149  20591992.434    20591991.9714   20591999.6434
   4009832.231 9   3135971.17848  21020816.718    21020816.3924   21020824.1374
  12641250.402 9   9854170.00746  23584417.296    23584417.5384   23584425.9194
 00  4 29 14 25 45.0000000  0  8 26 27 11  2  4  7  8 13             0.000000002
  -9647779.039 9  -7482808.78147  22642919.924    22642920.1834   22642928.4434
   6585168.876 9   5138950.97848  21821389.080    21821388.8974   21821397.5144
  -2002925.629 9  -1541688.94746  23861304.983    23861304.7224   23861315.2224
  -3020960.036 9  -2338807.34849  21232999.779    21232999.3004   21233006.9144
  -6005079.784 8  -4658327.28145  24493921.192    24493921.3504   24493933.7414
 -12360084.961 9  -9603430.39149  20589667.856    20589667.4004   20589675.0814
   4042073.365 9   3161094.10548  21026952.023    21026951.6944   21026959.4444
  12690266.594 9   9892364.35446  23593744.843    23593745.1104   23593753.4914
 00  4 29 14 26  0.0000000  0  8 26 27 11  2  4  7  8 13            -0.000000007
  -9650423.941 9  -7484869.77847  22642416.632    22642416.9114   22642425.1604
   6624556.679 9   5169642.72948  21828884.367    21828884.1784   21828892.8254
  -1984775.819 9  -1527546.30346  23864758.836    23864758.5614   23864769.0704
  -3021583.845 9  -2339293.45349  21232881.099    21232880.6124   21232888.2284
  -6056672.429 8  -4698529.37245  24484103.449    24484103.6874   24484116.0804
 -12372188.798 9  -9612861.95449  20587364.567    20587364.1344   20587371.8174
   4074414.559 9   3186295.00448  21033106.354    21033106.0344   21033113.7994
  12739306.555 9   9930577.21546  23603076.937    23603077.2094   23603085.6324
 00  4 29 14 26 15.0000000  0  8 26 27 11  2  4  7  8 13            -0.000000016
  -9652939.362 9  -7486829.87947  22641938.006    22641938.2524   22641946.5074
   6664034.058 9   5200404.27948  21836396.702    21836396.5474   21836405.2154
  -1966500.083 9  -1513305.53046  23868236.620    23868236.3454   23868246.8954
  -3022179.018 9  -2339757.24349  21232767.874    21232767.3914   21232774.9904
  -6108287.627 8  -4738749.03845  24474281.450    24474281.6574   24474294.0984
 -12384182.504 9  -9622207.70049  20585082.233    20585081.7844   20585089.4834
   4106856.137 9   3211574.12248  21039279.802    21039279.4804   21039287.2574
  12788368.680 9   9968807.36046  23612413.229    23612413.4864   23612421.9314
 00  4 29 14 26 30.0000000  0  8 26 27 11  2  4  7  8 13            -0.000000022
  -9655326.741 9  -7488690.20547  22641483.741    22641483.9774   22641492.2294
   6703600.382 9   5231235.13048  21843925.935    21843925.8044   21843934.4804
  -1948095.018 9  -1498963.97646  23871739.072    23871738.7094   23871749.3814
  -3022745.126 9  -2340198.39149  21232660.161    21232659.6854   21232667.2824
  -6159921.928 8  -4778983.58645  24464455.824    24464456.1394   24464468.4454
 -12396064.606 9  -9631466.48449  20582821.160    20582820.7004   20582828.3964
   4139399.284 9   3236932.38348  21045472.602    21045472.2534   21045480.0294
  12837454.018 9  10007055.56846  23621753.958    23621754.2694   23621762.6224
 00  4 29 14 26 45.0000000  0  8 26 27 11  2  4  7  8 13            -0.000000028
  -9657586.962 9  -7490451.43447  22641053.656    22641053.9044   22641062.1384
   6743255.670 9   5262135.31048  21851472.123    21851472.0014   21851480.6944
  -1929562.884 9  -1484523.42346  23875265.646    23875265.3574   23875275.9164
  -3023284.504 9  -2340618.70349  21232557.547    21232557.0674   21232564.6804
  -6211576.191 8  -4819233.69345  24454626.406    24454626.7844   24454639.1014
 -12407834.869 9  -9640638.11749  20580581.363    20580580.9004   20580588.6074
   4172047.362 9   3262372.41048  21051685.323    21051684.9924   21051692.7664
  12886561.865 9  10045321.31846  23631098.992    23631099.2804   23631107.6184
 00  4 29 14 27  0.0000000  0  8 26 27 11  2  4  7  8 13            -0.000000035
  -9659719.376 9  -7492113.08847  22640647.903    22640648.1554   22640656.3454
   6783000.303 9   5293105.09748  21859035.346    21859035.2054   21859043.8924
  -1910903.369 9  -1469983.61146  23878816.470    23878816.1894   23878826.7534
  -3023797.367 9  -2341018.35349  21232459.983    21232459.5044   21232467.1224
  -6263251.801 8  -4859500.41045  24444792.862    24444793.2414   24444805.6284
 -12419491.181 9  -9649720.96149  20578363.248    20578362.7764   20578370.5044
   4204802.624 9   3287895.95548  21057918.476    21057918.1574   21057925.9394
  12935692.080 9  10083604.51146  23640448.243    23640448.5174   23640456.8434
 00  4 29 14 27 15.0000000  0  8 26 27 11  2  4  7  8 13            -0.000000040
  -9661723.489 9  -7493674.77047  22640266.590    22640266.8394   22640274.9864
   6822835.315 9   5324145.31448  21866615.761    21866615.6074   21866624.2854
  -1892114.845 9  -1455343.27946  23882391.836    23882391.5744   23882402.2244
  -3024280.325 9  -2341394.69949  21232368.123    21232367.6284   21232375.2584
  -6314948.511 8  -4899783.57045  24434955.319    24434955.7224   24434968.0644
 -12431032.976 9  -9658714.57449  20576166.865    20576166.3874   20576174.1344
   4237662.215 9   3313500.79748  21064171.487    21064171.1584   21064178.9534
  12984845.445 9  10121905.74246  23649801.933    23649802.2124   23649810.5284
 00  4 29 14 27 30.0000000  0  8 26 27 11  2  4  7  8 13            -0.000000042
  -9663597.230 9  -7495134.87247  22639910.071    22639910.3354   22639918.4404
   6862763.973 9   5355258.50248  21874213.981    21874213.8374   21874222.5114
  -1873198.789 9  -1440603.55346  23885991.486    23885991.2114   23886001.8094
  -3024737.720 9  -2341751.12749  21232281.096    21232280.5784   21232288.2034
  -6366668.227 8  -4940084.65545  24425113.388    24425113.7364   24425126.1604
 -12442457.565 9  -9667616.85849  20573992.813    20573992.3524   20574000.1034
   4270622.675 9   3339184.23748  21070443.713    21070443.3654   21070451.1744
  13034023.213 9  10160225.98946  23659160.230    23659160.5344   23659168.8084
 00  4 29 14 27 45.0000000  0  8 26 27 11  2  4  7  8 13            -0.000000040
  -9665336.054 9  -7496489.83647  22639579.208    22639579.5054   22639587.5854
   6902788.821 9   5386446.64447  21881830.502    21881830.3744   21881839.0494
  -1854155.847 9  -1425764.97746  23889615.290    23889615.0634   23889625.6554
  -3025173.416 9  -2342090.64649  21232198.179    21232197.6654   21232205.3134
  -6418412.156 8  -4980404.60145  24415266.879    24415267.1124   24415279.6304
 -12453762.448 9  -9676425.86349  20571841.523    20571841.0614   20571848.8224
   4303677.747 9   3364941.39848  21076733.930    21076733.5814   21076741.4104
  13083227.058 9  10198566.55346  23668523.503    23668523.7914   23668532.0274
 00  4 29 14 28  0.0000000  0  8 26 27 11  2  4  7  8 13            -0.000000031
  -9666939.385 9  -7497739.23047  22639274.138    22639274.4274   22639282.5084
   6942910.105 9   5417709.92947  21889465.380    21889465.2194   21889473.8994
  -1834986.751 9  -1410828.09646  23893263.119    23893262.9274   23893273.4464
  -3025587.789 9  -2342413.55049  21232119.355    21232118.8504   21232126.4904
  -6470178.740 8  -5020742.20245  24405415.996    24405416.2724   24405428.8414
 -12464950.886 9  -9685144.12849  20569712.427    20569711.9554   20569719.7364
   4336825.190 9   3390770.54348  21083041.722    21083041.3744   21083049.2144
  13132456.573 9  10236927.11246  23677891.654    23677891.9864   23677900.1814
 00  4 29 14 28 15.0000000  0  8 26 27 11  2  4  7  8 13            -0.000000020
  -9668410.221 9  -7498885.36647  22638994.328    22638994.5404   22639002.6794
   6983127.826 9   5449048.35847  21897118.616    21897118.4604   21897127.1364
  -1815697.257 9  -1395797.39846  23896933.870    23896933.6284   23896944.1964
  -3025980.729 9  -2342719.75749  21232044.604    21232044.0924   21232051.7424
  -6521969.978 8  -5061099.01345  24395560.478    24395560.7554   24395573.3254
 -12476027.495 9  -9693775.25549  20567604.601    20567604.1244   20567611.9124
   4370067.938 9   3416673.94248  21089367.636    21089367.2854   21089375.1404
  13181708.833 9  10275305.40846  23687264.139    23687264.4774   23687272.6974
 00  4 29 14 28 30.0000000  0  8 26 27 11  2  4  7  8 13            -0.000000007
  -9669748.163 9  -7499927.96347  22638739.728    22638739.9374   22638748.0814
   7023442.496 9   5480462.32847  21904790.280    21904790.1194   21904798.8224
  -1796292.911 9  -1380677.20246  23900626.461    23900626.1414   23900636.8294
  -3026350.943 9  -2343008.25349  21231974.176    21231973.6604   21231981.3204
  -6573784.959 8  -5101474.31445  24385700.464    24385700.7104   24385713.3244
 -12486994.227 9  -9702320.76649  20565517.678    20565517.2194   20565525.0124
   4403408.554 9   3442653.60448  21095712.177    21095711.8124   21095719.6924
  13230986.203 9  10313703.26146  23696641.408    23696641.7464   23696649.8854
 00  4 29 14 28 45.0000000  0  8 26 27 11  2  4  7  8 13             0.000000004
  -9670952.362 9  -7500866.34447  22638510.593    22638510.8554   22638518.9744
   7063853.021 9   5511950.99747  21912480.167    21912480.0264   21912488.7404
  -1776778.220 9  -1365471.06546  23904340.009    23904339.6904   23904350.3984
  -3026698.925 9  -2343279.42549  21231907.994    21231907.4764   21231915.1364
  -6625628.526 8  -5141871.89345  24375835.022    24375835.2904   24375847.8894
 -12497851.812 9  -9710781.22749  20563451.537    20563451.0894   20563458.8764
   4436844.673 9   3468707.68048  21102074.909    21102074.5584   21102082.4334
  13280286.056 9  10352118.61946  23706023.006    23706023.2514   23706031.4524
 00  4 29 14 29  0.0000000  0  8 26 27 11  2  4  7  8 13             0.000000014
  -9672022.337 9  -7501700.11947  22638307.009    22638307.2464   22638315.3974
   7104360.876 9   5543515.50647  21920188.612    21920188.4494   21920197.1954
  -1757154.340 9  -1350179.80846  23908074.351    23908074.0944   23908084.8144
  -3027023.305 9  -2343532.20149  21231846.257    21231845.7594   21231853.4374
  -6677502.666 8  -5182293.28745  24365963.735    24365964.0444   24365976.7574
 -12508601.875 9  -9719157.89949  20561405.884    20561405.4254   20561413.2114
   4470376.424 9   3494836.28248  21108455.836    21108455.4804   21108463.3484
  13329605.508 9  10390549.25946  23715408.317    23715408.5244   23715416.7174
 00  4 29 14 29 15.0000000  0  8 26 27 11  2  4  7  8 13             0.000000022
  -9672959.422 9  -7502430.35547  22638128.759    22638128.9794   22638137.1304
   7144964.205 9   5575154.41247  21927915.209    21927915.0504   21927923.7954
  -1737417.005 9  -1334800.14146  23911830.269    23911829.9454   23911840.8124
  -3027319.574 9  -2343763.07649  21231789.877    21231789.3684   21231797.0704
  -6729408.708 8  -5222739.54045  24356086.307    24356086.6424   24356099.4294
 -12519242.459 9  -9727449.26949  20559381.064    20559380.6074   20559388.3934
   4504000.770 9   3521037.02748  21114854.392    21114854.0214   21114861.8974
  13378943.197 9  10428994.11946  23724797.077    23724797.2444   23724805.4564
 00  4 29 14 29 30.0000000  0  8 26 27 11  2  4  7  8 13             0.000000028
  -9673762.345 9  -7503056.04747  22637975.965    22637976.1754   22637984.3724
   7185662.219 9   5606867.09347  21935659.829    21935659.6684   21935668.4234
  -1717566.319 9  -1319332.17546  23915607.795    23915607.4694   23915618.3244
  -3027587.117 9  -2343971.57249  21231738.971    21231738.4634   21231746.1784
  -6781345.962 8  -5263210.11045  24346202.999    24346203.3744   24346216.1404
 -12529772.461 9  -9735654.47049  20557377.272    20557376.8144   20557384.5904
   4537719.957 9   3547311.67548  21121270.962    21121270.5884   21121278.4684
  13428298.295 9  10467452.53746  23734189.102    23734189.2824   23734197.5024
 00  4 29 14 29 45.0000000  0  8 26 27 11  2  4  7  8 13             0.000000031
  -9674430.371 9  -7503576.62047  22637848.818    22637849.0434   22637857.2884
   7226453.276 9   5638652.27547  21943422.141    21943421.9854   21943430.7574
  -1697601.953 9  -1303775.62146  23919406.973    23919406.6394   23919417.5444
  -3027824.769 9  -2344156.77548  21231693.755    21231693.2454   21231700.9734
  -6833314.391 8  -5303704.98245  24336313.733    24336314.1104   24336326.9114
 -12540191.173 9  -9743772.95249  20555394.664    20555394.1874   20555401.9734
   4571536.639 9   3573662.29548  21127706.116    21127705.7544   21127713.6354
  13477667.209 9  10505921.71046  23743583.732    23743583.9984   23743592.1234
 00  4 29 14 30  0.0000000  0  8 26 27 11  2  4  7  8 13             0.000000030
  -9674964.123 9  -7503992.56647  22637747.272    22637747.4934   22637755.7664
   7267336.703 9   5670509.43947  21951202.046    21951201.8794   21951210.6654
  -1677521.735 9  -1288128.80146  23923228.173    23923227.8244   23923238.7774
  -3028025.626 9  -2344313.30148  21231655.509    21231655.0114   21231662.7454
  -6885311.469 8  -5344222.17145  24326418.974    24326419.3904   24326432.2844
 -12550500.742 9  -9751806.38349  20553432.842    20553432.3654   20553440.1324
   4605453.289 9   3600090.81148  21134160.288    21134159.9154   21134167.7984
  13527046.500 9  10544398.97346  23752980.333    23752980.6534   23752988.8024
